<?xml version="1.0" encoding="UTF-8" standalone="no" ?>
<gpx xmlns="http://www.topografix.com/GPX/1/1" xmlns:xsi="http://www.w3.org/2001/XMLSchema-instance" xsi:schemaLocation="http://www.topografix.com/GPX/1/1 http://www.topografix.com/GPX/1/1/gpx.xsd" version="1.1" creator="VisuGPX - https://www.visugpx.com">
  <metadata>
    <name>Le grand Ferrand par la voie normale</name>
    <desc><![CDATA[Les copains randonneurs du 04
Au départ de la piste de Maubourg suivre le GR jusqu'au col de Charnier puis prendre une sente à peine marquée direction Nord jusqu'à la terrasse des reflexions ensuite monter le pierrier puis la cheminée ( suivre les traces rouges à peine visibles ) jusqu'au sommet]]></desc>
  </metadata>
  <trk>
    <name><![CDATA[Le grand Ferrand par la voie normale_1]]></name>
    <trkseg>
      <trkpt lat="44.70137" lon="5.86566">
        <ele>1442</ele>
        <time>2019-09-12T07:59:44+02:00</time>
      </trkpt>
      <trkpt lat="44.70137" lon="5.86566">
        <ele>1442</ele>
        <time>2019-09-12T07:59:45+02:00</time>
      </trkpt>
      <trkpt lat="44.70138" lon="5.86565">
        <ele>1442</ele>
        <time>2019-09-12T07:59:49+02:00</time>
      </trkpt>
      <trkpt lat="44.70137" lon="5.86565">
        <ele>1442</ele>
        <time>2019-09-12T07:59:50+02:00</time>
      </trkpt>
      <trkpt lat="44.70136" lon="5.86566">
        <ele>1442</ele>
        <time>2019-09-12T08:00:10+02:00</time>
      </trkpt>
      <trkpt lat="44.70137" lon="5.8657">
        <ele>1442</ele>
        <time>2019-09-12T08:00:41+02:00</time>
      </trkpt>
      <trkpt lat="44.70136" lon="5.86567">
        <ele>1442</ele>
        <time>2019-09-12T08:00:56+02:00</time>
      </trkpt>
      <trkpt lat="44.70137" lon="5.86565">
        <ele>1442</ele>
        <time>2019-09-12T08:01:16+02:00</time>
      </trkpt>
      <trkpt lat="44.70139" lon="5.86566">
        <ele>1442</ele>
        <time>2019-09-12T08:01:43+02:00</time>
      </trkpt>
      <trkpt lat="44.70139" lon="5.86569">
        <ele>1442</ele>
        <time>2019-09-12T08:02:10+02:00</time>
      </trkpt>
      <trkpt lat="44.70137" lon="5.86565">
        <ele>1442</ele>
        <time>2019-09-12T08:02:27+02:00</time>
      </trkpt>
      <trkpt lat="44.70138" lon="5.86566">
        <ele>1442</ele>
        <time>2019-09-12T08:02:51+02:00</time>
      </trkpt>
      <trkpt lat="44.70138" lon="5.86569">
        <ele>1442</ele>
        <time>2019-09-12T08:03:17+02:00</time>
      </trkpt>
      <trkpt lat="44.70137" lon="5.86568">
        <ele>1442</ele>
        <time>2019-09-12T08:03:33+02:00</time>
      </trkpt>
      <trkpt lat="44.70132" lon="5.86563">
        <ele>1442</ele>
        <time>2019-09-12T08:03:55+02:00</time>
      </trkpt>
      <trkpt lat="44.70138" lon="5.86567">
        <ele>1442</ele>
        <time>2019-09-12T08:04:12+02:00</time>
      </trkpt>
      <trkpt lat="44.70137" lon="5.86567">
        <ele>1442</ele>
        <time>2019-09-12T08:04:31+02:00</time>
      </trkpt>
      <trkpt lat="44.70138" lon="5.86566">
        <ele>1442</ele>
        <time>2019-09-12T08:04:43+02:00</time>
      </trkpt>
      <trkpt lat="44.70137" lon="5.86568">
        <ele>1442</ele>
        <time>2019-09-12T08:05:05+02:00</time>
      </trkpt>
      <trkpt lat="44.70138" lon="5.86568">
        <ele>1442</ele>
        <time>2019-09-12T08:05:38+02:00</time>
      </trkpt>
      <trkpt lat="44.70139" lon="5.86566">
        <ele>1442</ele>
        <time>2019-09-12T08:06:07+02:00</time>
      </trkpt>
      <trkpt lat="44.70139" lon="5.86561">
        <ele>1443</ele>
        <time>2019-09-12T08:06:21+02:00</time>
      </trkpt>
      <trkpt lat="44.70142" lon="5.86554">
        <ele>1443</ele>
        <time>2019-09-12T08:06:29+02:00</time>
      </trkpt>
      <trkpt lat="44.70144" lon="5.86549">
        <ele>1444</ele>
        <time>2019-09-12T08:06:33+02:00</time>
      </trkpt>
      <trkpt lat="44.7015" lon="5.86536">
        <ele>1445</ele>
        <time>2019-09-12T08:06:45+02:00</time>
      </trkpt>
      <trkpt lat="44.70155" lon="5.86525">
        <ele>1446</ele>
        <time>2019-09-12T08:06:55+02:00</time>
      </trkpt>
      <trkpt lat="44.70163" lon="5.86512">
        <ele>1448</ele>
        <time>2019-09-12T08:07:07+02:00</time>
      </trkpt>
      <trkpt lat="44.70172" lon="5.86504">
        <ele>1449</ele>
        <time>2019-09-12T08:07:16+02:00</time>
      </trkpt>
      <trkpt lat="44.70179" lon="5.865">
        <ele>1451</ele>
        <time>2019-09-12T08:07:27+02:00</time>
      </trkpt>
      <trkpt lat="44.70179" lon="5.865">
        <ele>1451</ele>
        <time>2019-09-12T08:07:28+02:00</time>
      </trkpt>
      <trkpt lat="44.70191" lon="5.86497">
        <ele>1453</ele>
        <time>2019-09-12T08:07:40+02:00</time>
      </trkpt>
      <trkpt lat="44.70196" lon="5.86494">
        <ele>1454</ele>
        <time>2019-09-12T08:07:48+02:00</time>
      </trkpt>
      <trkpt lat="44.70206" lon="5.86481">
        <ele>1456</ele>
        <time>2019-09-12T08:08:01+02:00</time>
      </trkpt>
      <trkpt lat="44.70213" lon="5.86465">
        <ele>1458</ele>
        <time>2019-09-12T08:08:17+02:00</time>
      </trkpt>
      <trkpt lat="44.70221" lon="5.86447">
        <ele>1460</ele>
        <time>2019-09-12T08:08:32+02:00</time>
      </trkpt>
      <trkpt lat="44.70228" lon="5.8643">
        <ele>1463</ele>
        <time>2019-09-12T08:08:48+02:00</time>
      </trkpt>
      <trkpt lat="44.70231" lon="5.86418">
        <ele>1466</ele>
        <time>2019-09-12T08:09:01+02:00</time>
      </trkpt>
      <trkpt lat="44.70234" lon="5.86406">
        <ele>1468</ele>
        <time>2019-09-12T08:09:15+02:00</time>
      </trkpt>
      <trkpt lat="44.70234" lon="5.86393">
        <ele>1470</ele>
        <time>2019-09-12T08:09:28+02:00</time>
      </trkpt>
      <trkpt lat="44.70234" lon="5.86379">
        <ele>1473</ele>
        <time>2019-09-12T08:09:42+02:00</time>
      </trkpt>
      <trkpt lat="44.70241" lon="5.86364">
        <ele>1475</ele>
        <time>2019-09-12T08:09:59+02:00</time>
      </trkpt>
      <trkpt lat="44.70248" lon="5.86351">
        <ele>1478</ele>
        <time>2019-09-12T08:10:14+02:00</time>
      </trkpt>
      <trkpt lat="44.70258" lon="5.86344">
        <ele>1479</ele>
        <time>2019-09-12T08:10:26+02:00</time>
      </trkpt>
      <trkpt lat="44.70272" lon="5.86337">
        <ele>1480</ele>
        <time>2019-09-12T08:10:43+02:00</time>
      </trkpt>
      <trkpt lat="44.70282" lon="5.86328">
        <ele>1482</ele>
        <time>2019-09-12T08:10:57+02:00</time>
      </trkpt>
      <trkpt lat="44.70294" lon="5.86318">
        <ele>1485</ele>
        <time>2019-09-12T08:11:11+02:00</time>
      </trkpt>
      <trkpt lat="44.70303" lon="5.86309">
        <ele>1486</ele>
        <time>2019-09-12T08:11:24+02:00</time>
      </trkpt>
      <trkpt lat="44.70308" lon="5.86293">
        <ele>1489</ele>
        <time>2019-09-12T08:11:38+02:00</time>
      </trkpt>
      <trkpt lat="44.70307" lon="5.86283">
        <ele>1490</ele>
        <time>2019-09-12T08:11:54+02:00</time>
      </trkpt>
      <trkpt lat="44.70308" lon="5.86273">
        <ele>1492</ele>
        <time>2019-09-12T08:12:06+02:00</time>
      </trkpt>
      <trkpt lat="44.70309" lon="5.86266">
        <ele>1493</ele>
        <time>2019-09-12T08:12:10+02:00</time>
      </trkpt>
      <trkpt lat="44.7031" lon="5.8625">
        <ele>1496</ele>
        <time>2019-09-12T08:12:26+02:00</time>
      </trkpt>
      <trkpt lat="44.70323" lon="5.8624">
        <ele>1499</ele>
        <time>2019-09-12T08:12:42+02:00</time>
      </trkpt>
      <trkpt lat="44.70333" lon="5.86238">
        <ele>1500</ele>
        <time>2019-09-12T08:12:59+02:00</time>
      </trkpt>
      <trkpt lat="44.70346" lon="5.86229">
        <ele>1503</ele>
        <time>2019-09-12T08:13:18+02:00</time>
      </trkpt>
      <trkpt lat="44.70353" lon="5.86222">
        <ele>1505</ele>
        <time>2019-09-12T08:13:30+02:00</time>
      </trkpt>
      <trkpt lat="44.70361" lon="5.86217">
        <ele>1506</ele>
        <time>2019-09-12T08:13:43+02:00</time>
      </trkpt>
      <trkpt lat="44.70365" lon="5.86215">
        <ele>1507</ele>
        <time>2019-09-12T08:13:48+02:00</time>
      </trkpt>
      <trkpt lat="44.70376" lon="5.86208">
        <ele>1509</ele>
        <time>2019-09-12T08:14:02+02:00</time>
      </trkpt>
      <trkpt lat="44.70387" lon="5.86202">
        <ele>1511</ele>
        <time>2019-09-12T08:14:16+02:00</time>
      </trkpt>
      <trkpt lat="44.70397" lon="5.862">
        <ele>1512</ele>
        <time>2019-09-12T08:14:29+02:00</time>
      </trkpt>
      <trkpt lat="44.70408" lon="5.86196">
        <ele>1514</ele>
        <time>2019-09-12T08:14:42+02:00</time>
      </trkpt>
      <trkpt lat="44.7042" lon="5.86189">
        <ele>1516</ele>
        <time>2019-09-12T08:14:56+02:00</time>
      </trkpt>
      <trkpt lat="44.70428" lon="5.86182">
        <ele>1518</ele>
        <time>2019-09-12T08:15:12+02:00</time>
      </trkpt>
      <trkpt lat="44.70435" lon="5.86175">
        <ele>1519</ele>
        <time>2019-09-12T08:15:30+02:00</time>
      </trkpt>
      <trkpt lat="44.70444" lon="5.86162">
        <ele>1522</ele>
        <time>2019-09-12T08:15:46+02:00</time>
      </trkpt>
      <trkpt lat="44.70453" lon="5.86152">
        <ele>1525</ele>
        <time>2019-09-12T08:16:02+02:00</time>
      </trkpt>
      <trkpt lat="44.70459" lon="5.86148">
        <ele>1527</ele>
        <time>2019-09-12T08:16:19+02:00</time>
      </trkpt>
      <trkpt lat="44.70459" lon="5.86144">
        <ele>1527</ele>
        <time>2019-09-12T08:16:37+02:00</time>
      </trkpt>
      <trkpt lat="44.70463" lon="5.86141">
        <ele>1529</ele>
        <time>2019-09-12T08:16:53+02:00</time>
      </trkpt>
      <trkpt lat="44.70471" lon="5.86142">
        <ele>1530</ele>
        <time>2019-09-12T08:17:10+02:00</time>
      </trkpt>
      <trkpt lat="44.70479" lon="5.8614">
        <ele>1531</ele>
        <time>2019-09-12T08:17:24+02:00</time>
      </trkpt>
      <trkpt lat="44.70488" lon="5.86137">
        <ele>1532</ele>
        <time>2019-09-12T08:17:41+02:00</time>
      </trkpt>
      <trkpt lat="44.70493" lon="5.86132">
        <ele>1534</ele>
        <time>2019-09-12T08:17:58+02:00</time>
      </trkpt>
      <trkpt lat="44.70494" lon="5.86133">
        <ele>1533</ele>
        <time>2019-09-12T08:18:38+02:00</time>
      </trkpt>
      <trkpt lat="44.70493" lon="5.86132">
        <ele>1534</ele>
        <time>2019-09-12T08:19:01+02:00</time>
      </trkpt>
      <trkpt lat="44.70498" lon="5.86114">
        <ele>1536</ele>
        <time>2019-09-12T08:19:16+02:00</time>
      </trkpt>
      <trkpt lat="44.70498" lon="5.86103">
        <ele>1538</ele>
        <time>2019-09-12T08:19:25+02:00</time>
      </trkpt>
      <trkpt lat="44.70497" lon="5.86084">
        <ele>1541</ele>
        <time>2019-09-12T08:19:39+02:00</time>
      </trkpt>
      <trkpt lat="44.70497" lon="5.86067">
        <ele>1542</ele>
        <time>2019-09-12T08:19:56+02:00</time>
      </trkpt>
      <trkpt lat="44.70495" lon="5.86049">
        <ele>1544</ele>
        <time>2019-09-12T08:20:13+02:00</time>
      </trkpt>
      <trkpt lat="44.70487" lon="5.86026">
        <ele>1546</ele>
        <time>2019-09-12T08:20:32+02:00</time>
      </trkpt>
      <trkpt lat="44.70481" lon="5.86001">
        <ele>1549</ele>
        <time>2019-09-12T08:20:50+02:00</time>
      </trkpt>
      <trkpt lat="44.70478" lon="5.85984">
        <ele>1551</ele>
        <time>2019-09-12T08:21:07+02:00</time>
      </trkpt>
      <trkpt lat="44.70473" lon="5.85973">
        <ele>1552</ele>
        <time>2019-09-12T08:21:23+02:00</time>
      </trkpt>
      <trkpt lat="44.70459" lon="5.85953">
        <ele>1554</ele>
        <time>2019-09-12T08:21:42+02:00</time>
      </trkpt>
      <trkpt lat="44.70448" lon="5.85928">
        <ele>1556</ele>
        <time>2019-09-12T08:22:02+02:00</time>
      </trkpt>
      <trkpt lat="44.7045" lon="5.85899">
        <ele>1558</ele>
        <time>2019-09-12T08:22:23+02:00</time>
      </trkpt>
      <trkpt lat="44.70448" lon="5.8588">
        <ele>1561</ele>
        <time>2019-09-12T08:22:38+02:00</time>
      </trkpt>
      <trkpt lat="44.70452" lon="5.85863">
        <ele>1563</ele>
        <time>2019-09-12T08:22:53+02:00</time>
      </trkpt>
      <trkpt lat="44.70453" lon="5.85848">
        <ele>1565</ele>
        <time>2019-09-12T08:23:07+02:00</time>
      </trkpt>
      <trkpt lat="44.70457" lon="5.85835">
        <ele>1566</ele>
        <time>2019-09-12T08:23:23+02:00</time>
      </trkpt>
      <trkpt lat="44.70462" lon="5.85822">
        <ele>1568</ele>
        <time>2019-09-12T08:23:38+02:00</time>
      </trkpt>
      <trkpt lat="44.70465" lon="5.85806">
        <ele>1570</ele>
        <time>2019-09-12T08:23:54+02:00</time>
      </trkpt>
      <trkpt lat="44.70466" lon="5.8579">
        <ele>1573</ele>
        <time>2019-09-12T08:24:09+02:00</time>
      </trkpt>
      <trkpt lat="44.70467" lon="5.85773">
        <ele>1577</ele>
        <time>2019-09-12T08:24:27+02:00</time>
      </trkpt>
      <trkpt lat="44.70465" lon="5.8576">
        <ele>1579</ele>
        <time>2019-09-12T08:24:43+02:00</time>
      </trkpt>
      <trkpt lat="44.70459" lon="5.85752">
        <ele>1581</ele>
        <time>2019-09-12T08:24:59+02:00</time>
      </trkpt>
      <trkpt lat="44.70457" lon="5.85754">
        <ele>1581</ele>
        <time>2019-09-12T08:25:17+02:00</time>
      </trkpt>
      <trkpt lat="44.70457" lon="5.85755">
        <ele>1580</ele>
        <time>2019-09-12T08:25:56+02:00</time>
      </trkpt>
      <trkpt lat="44.70457" lon="5.85753">
        <ele>1581</ele>
        <time>2019-09-12T08:26:18+02:00</time>
      </trkpt>
      <trkpt lat="44.70456" lon="5.85752">
        <ele>1581</ele>
        <time>2019-09-12T08:26:35+02:00</time>
      </trkpt>
      <trkpt lat="44.70459" lon="5.8575">
        <ele>1581</ele>
        <time>2019-09-12T08:26:58+02:00</time>
      </trkpt>
      <trkpt lat="44.70459" lon="5.85753">
        <ele>1581</ele>
        <time>2019-09-12T08:27:28+02:00</time>
      </trkpt>
      <trkpt lat="44.70457" lon="5.8575">
        <ele>1581</ele>
        <time>2019-09-12T08:27:47+02:00</time>
      </trkpt>
      <trkpt lat="44.70457" lon="5.85736">
        <ele>1583</ele>
        <time>2019-09-12T08:28:01+02:00</time>
      </trkpt>
      <trkpt lat="44.70458" lon="5.85722">
        <ele>1585</ele>
        <time>2019-09-12T08:28:16+02:00</time>
      </trkpt>
      <trkpt lat="44.70457" lon="5.85703">
        <ele>1587</ele>
        <time>2019-09-12T08:28:33+02:00</time>
      </trkpt>
      <trkpt lat="44.70458" lon="5.85686">
        <ele>1590</ele>
        <time>2019-09-12T08:28:49+02:00</time>
      </trkpt>
      <trkpt lat="44.70461" lon="5.85667">
        <ele>1593</ele>
        <time>2019-09-12T08:29:06+02:00</time>
      </trkpt>
      <trkpt lat="44.70464" lon="5.85652">
        <ele>1595</ele>
        <time>2019-09-12T08:29:21+02:00</time>
      </trkpt>
      <trkpt lat="44.70465" lon="5.85634">
        <ele>1597</ele>
        <time>2019-09-12T08:29:38+02:00</time>
      </trkpt>
      <trkpt lat="44.70463" lon="5.85615">
        <ele>1599</ele>
        <time>2019-09-12T08:29:56+02:00</time>
      </trkpt>
      <trkpt lat="44.7046" lon="5.85597">
        <ele>1601</ele>
        <time>2019-09-12T08:30:11+02:00</time>
      </trkpt>
      <trkpt lat="44.70458" lon="5.85582">
        <ele>1602</ele>
        <time>2019-09-12T08:30:23+02:00</time>
      </trkpt>
      <trkpt lat="44.70459" lon="5.85561">
        <ele>1604</ele>
        <time>2019-09-12T08:30:40+02:00</time>
      </trkpt>
      <trkpt lat="44.70459" lon="5.85543">
        <ele>1606</ele>
        <time>2019-09-12T08:30:55+02:00</time>
      </trkpt>
      <trkpt lat="44.70466" lon="5.85535">
        <ele>1607</ele>
        <time>2019-09-12T08:31:10+02:00</time>
      </trkpt>
      <trkpt lat="44.70476" lon="5.85535">
        <ele>1608</ele>
        <time>2019-09-12T08:31:22+02:00</time>
      </trkpt>
      <trkpt lat="44.70493" lon="5.85545">
        <ele>1609</ele>
        <time>2019-09-12T08:31:43+02:00</time>
      </trkpt>
      <trkpt lat="44.705" lon="5.85543">
        <ele>1610</ele>
        <time>2019-09-12T08:31:51+02:00</time>
      </trkpt>
      <trkpt lat="44.70503" lon="5.8553">
        <ele>1612</ele>
        <time>2019-09-12T08:32:04+02:00</time>
      </trkpt>
      <trkpt lat="44.705" lon="5.85511">
        <ele>1614</ele>
        <time>2019-09-12T08:32:21+02:00</time>
      </trkpt>
      <trkpt lat="44.70493" lon="5.85492">
        <ele>1617</ele>
        <time>2019-09-12T08:32:40+02:00</time>
      </trkpt>
      <trkpt lat="44.70488" lon="5.85477">
        <ele>1619</ele>
        <time>2019-09-12T08:32:55+02:00</time>
      </trkpt>
      <trkpt lat="44.70486" lon="5.85462">
        <ele>1621</ele>
        <time>2019-09-12T08:33:09+02:00</time>
      </trkpt>
      <trkpt lat="44.70484" lon="5.85445">
        <ele>1624</ele>
        <time>2019-09-12T08:33:24+02:00</time>
      </trkpt>
      <trkpt lat="44.70478" lon="5.85429">
        <ele>1625</ele>
        <time>2019-09-12T08:33:39+02:00</time>
      </trkpt>
      <trkpt lat="44.7048" lon="5.85427">
        <ele>1626</ele>
        <time>2019-09-12T08:33:53+02:00</time>
      </trkpt>
      <trkpt lat="44.70479" lon="5.85423">
        <ele>1626</ele>
        <time>2019-09-12T08:34:20+02:00</time>
      </trkpt>
      <trkpt lat="44.70476" lon="5.85419">
        <ele>1627</ele>
        <time>2019-09-12T08:34:39+02:00</time>
      </trkpt>
      <trkpt lat="44.70476" lon="5.85418">
        <ele>1627</ele>
        <time>2019-09-12T08:34:40+02:00</time>
      </trkpt>
      <trkpt lat="44.70469" lon="5.85413">
        <ele>1628</ele>
        <time>2019-09-12T08:34:51+02:00</time>
      </trkpt>
      <trkpt lat="44.70461" lon="5.85411">
        <ele>1628</ele>
        <time>2019-09-12T08:35:01+02:00</time>
      </trkpt>
      <trkpt lat="44.70458" lon="5.85411">
        <ele>1628</ele>
        <time>2019-09-12T08:35:04+02:00</time>
      </trkpt>
      <trkpt lat="44.70453" lon="5.85408">
        <ele>1628</ele>
        <time>2019-09-12T08:35:16+02:00</time>
      </trkpt>
      <trkpt lat="44.70445" lon="5.85397">
        <ele>1631</ele>
        <time>2019-09-12T08:35:31+02:00</time>
      </trkpt>
      <trkpt lat="44.70456" lon="5.85392">
        <ele>1632</ele>
        <time>2019-09-12T08:35:46+02:00</time>
      </trkpt>
      <trkpt lat="44.70465" lon="5.85384">
        <ele>1634</ele>
        <time>2019-09-12T08:36:01+02:00</time>
      </trkpt>
      <trkpt lat="44.7048" lon="5.85371">
        <ele>1636</ele>
        <time>2019-09-12T08:36:21+02:00</time>
      </trkpt>
      <trkpt lat="44.70483" lon="5.85365">
        <ele>1637</ele>
        <time>2019-09-12T08:36:27+02:00</time>
      </trkpt>
      <trkpt lat="44.70478" lon="5.8535">
        <ele>1642</ele>
        <time>2019-09-12T08:36:44+02:00</time>
      </trkpt>
      <trkpt lat="44.70459" lon="5.85349">
        <ele>1645</ele>
        <time>2019-09-12T08:37:05+02:00</time>
      </trkpt>
      <trkpt lat="44.70443" lon="5.85346">
        <ele>1648</ele>
        <time>2019-09-12T08:37:26+02:00</time>
      </trkpt>
      <trkpt lat="44.70432" lon="5.85338">
        <ele>1650</ele>
        <time>2019-09-12T08:37:48+02:00</time>
      </trkpt>
      <trkpt lat="44.70422" lon="5.85337">
        <ele>1650</ele>
        <time>2019-09-12T08:38:05+02:00</time>
      </trkpt>
      <trkpt lat="44.70412" lon="5.8533">
        <ele>1652</ele>
        <time>2019-09-12T08:38:21+02:00</time>
      </trkpt>
      <trkpt lat="44.70404" lon="5.85324">
        <ele>1653</ele>
        <time>2019-09-12T08:38:38+02:00</time>
      </trkpt>
      <trkpt lat="44.70397" lon="5.85317">
        <ele>1654</ele>
        <time>2019-09-12T08:38:53+02:00</time>
      </trkpt>
      <trkpt lat="44.7039" lon="5.85313">
        <ele>1655</ele>
        <time>2019-09-12T08:39:09+02:00</time>
      </trkpt>
      <trkpt lat="44.70395" lon="5.85306">
        <ele>1657</ele>
        <time>2019-09-12T08:39:33+02:00</time>
      </trkpt>
      <trkpt lat="44.70398" lon="5.85299">
        <ele>1659</ele>
        <time>2019-09-12T08:39:48+02:00</time>
      </trkpt>
      <trkpt lat="44.704" lon="5.85296">
        <ele>1660</ele>
        <time>2019-09-12T08:40:23+02:00</time>
      </trkpt>
      <trkpt lat="44.70407" lon="5.85286">
        <ele>1664</ele>
        <time>2019-09-12T08:40:39+02:00</time>
      </trkpt>
      <trkpt lat="44.70404" lon="5.85272">
        <ele>1667</ele>
        <time>2019-09-12T08:40:54+02:00</time>
      </trkpt>
      <trkpt lat="44.704" lon="5.85262">
        <ele>1669</ele>
        <time>2019-09-12T08:41:10+02:00</time>
      </trkpt>
      <trkpt lat="44.70394" lon="5.85247">
        <ele>1672</ele>
        <time>2019-09-12T08:41:26+02:00</time>
      </trkpt>
      <trkpt lat="44.70389" lon="5.85234">
        <ele>1675</ele>
        <time>2019-09-12T08:41:43+02:00</time>
      </trkpt>
      <trkpt lat="44.70381" lon="5.85212">
        <ele>1679</ele>
        <time>2019-09-12T08:42:05+02:00</time>
      </trkpt>
      <trkpt lat="44.70377" lon="5.85204">
        <ele>1681</ele>
        <time>2019-09-12T08:42:21+02:00</time>
      </trkpt>
      <trkpt lat="44.70366" lon="5.85194">
        <ele>1682</ele>
        <time>2019-09-12T08:42:39+02:00</time>
      </trkpt>
      <trkpt lat="44.70352" lon="5.8519">
        <ele>1684</ele>
        <time>2019-09-12T08:42:59+02:00</time>
      </trkpt>
      <trkpt lat="44.70343" lon="5.8519">
        <ele>1684</ele>
        <time>2019-09-12T08:43:09+02:00</time>
      </trkpt>
      <trkpt lat="44.70336" lon="5.8519">
        <ele>1685</ele>
        <time>2019-09-12T08:43:17+02:00</time>
      </trkpt>
      <trkpt lat="44.70319" lon="5.85184">
        <ele>1688</ele>
        <time>2019-09-12T08:43:36+02:00</time>
      </trkpt>
      <trkpt lat="44.70302" lon="5.85188">
        <ele>1688</ele>
        <time>2019-09-12T08:43:56+02:00</time>
      </trkpt>
      <trkpt lat="44.70286" lon="5.85182">
        <ele>1691</ele>
        <time>2019-09-12T08:44:15+02:00</time>
      </trkpt>
      <trkpt lat="44.70275" lon="5.85178">
        <ele>1693</ele>
        <time>2019-09-12T08:44:31+02:00</time>
      </trkpt>
      <trkpt lat="44.70281" lon="5.85167">
        <ele>1695</ele>
        <time>2019-09-12T08:44:47+02:00</time>
      </trkpt>
      <trkpt lat="44.70288" lon="5.85162">
        <ele>1695</ele>
        <time>2019-09-12T08:45:04+02:00</time>
      </trkpt>
      <trkpt lat="44.70298" lon="5.85149">
        <ele>1697</ele>
        <time>2019-09-12T08:45:21+02:00</time>
      </trkpt>
      <trkpt lat="44.70306" lon="5.85128">
        <ele>1701</ele>
        <time>2019-09-12T08:45:43+02:00</time>
      </trkpt>
      <trkpt lat="44.70293" lon="5.85115">
        <ele>1705</ele>
        <time>2019-09-12T08:46:02+02:00</time>
      </trkpt>
      <trkpt lat="44.70289" lon="5.85112">
        <ele>1705</ele>
        <time>2019-09-12T08:46:13+02:00</time>
      </trkpt>
      <trkpt lat="44.70276" lon="5.85103">
        <ele>1708</ele>
        <time>2019-09-12T08:46:30+02:00</time>
      </trkpt>
      <trkpt lat="44.7027" lon="5.8509">
        <ele>1712</ele>
        <time>2019-09-12T08:46:45+02:00</time>
      </trkpt>
      <trkpt lat="44.70258" lon="5.85081">
        <ele>1715</ele>
        <time>2019-09-12T08:47:04+02:00</time>
      </trkpt>
      <trkpt lat="44.7025" lon="5.85074">
        <ele>1717</ele>
        <time>2019-09-12T08:47:19+02:00</time>
      </trkpt>
      <trkpt lat="44.7025" lon="5.85074">
        <ele>1717</ele>
        <time>2019-09-12T08:47:43+02:00</time>
      </trkpt>
      <trkpt lat="44.70233" lon="5.85062">
        <ele>1717</ele>
        <time>2019-09-12T08:48:00+02:00</time>
      </trkpt>
      <trkpt lat="44.70221" lon="5.8506">
        <ele>1715</ele>
        <time>2019-09-12T08:48:14+02:00</time>
      </trkpt>
      <trkpt lat="44.70207" lon="5.85052">
        <ele>1714</ele>
        <time>2019-09-12T08:48:30+02:00</time>
      </trkpt>
      <trkpt lat="44.70211" lon="5.85057">
        <ele>1714</ele>
        <time>2019-09-12T08:48:53+02:00</time>
      </trkpt>
      <trkpt lat="44.70211" lon="5.85056">
        <ele>1714</ele>
        <time>2019-09-12T08:48:54+02:00</time>
      </trkpt>
      <trkpt lat="44.70211" lon="5.85053">
        <ele>1714</ele>
        <time>2019-09-12T08:48:56+02:00</time>
      </trkpt>
      <trkpt lat="44.70206" lon="5.85025">
        <ele>1716</ele>
        <time>2019-09-12T08:49:11+02:00</time>
      </trkpt>
      <trkpt lat="44.70202" lon="5.8501">
        <ele>1716</ele>
        <time>2019-09-12T08:49:22+02:00</time>
      </trkpt>
      <trkpt lat="44.70199" lon="5.85004">
        <ele>1715</ele>
        <time>2019-09-12T08:49:27+02:00</time>
      </trkpt>
      <trkpt lat="44.70197" lon="5.84978">
        <ele>1718</ele>
        <time>2019-09-12T08:49:45+02:00</time>
      </trkpt>
      <trkpt lat="44.70196" lon="5.84958">
        <ele>1719</ele>
        <time>2019-09-12T08:50:02+02:00</time>
      </trkpt>
      <trkpt lat="44.7019" lon="5.84941">
        <ele>1720</ele>
        <time>2019-09-12T08:50:18+02:00</time>
      </trkpt>
      <trkpt lat="44.70191" lon="5.84934">
        <ele>1721</ele>
        <time>2019-09-12T08:50:32+02:00</time>
      </trkpt>
      <trkpt lat="44.70194" lon="5.84924">
        <ele>1721</ele>
        <time>2019-09-12T08:50:41+02:00</time>
      </trkpt>
      <trkpt lat="44.70197" lon="5.84915">
        <ele>1722</ele>
        <time>2019-09-12T08:50:49+02:00</time>
      </trkpt>
      <trkpt lat="44.70197" lon="5.84905">
        <ele>1723</ele>
        <time>2019-09-12T08:50:57+02:00</time>
      </trkpt>
      <trkpt lat="44.70198" lon="5.849">
        <ele>1723</ele>
        <time>2019-09-12T08:51:03+02:00</time>
      </trkpt>
      <trkpt lat="44.70198" lon="5.84895">
        <ele>1723</ele>
        <time>2019-09-12T08:51:08+02:00</time>
      </trkpt>
      <trkpt lat="44.70199" lon="5.84888">
        <ele>1723</ele>
        <time>2019-09-12T08:51:23+02:00</time>
      </trkpt>
      <trkpt lat="44.70192" lon="5.84877">
        <ele>1726</ele>
        <time>2019-09-12T08:51:36+02:00</time>
      </trkpt>
      <trkpt lat="44.70188" lon="5.84873">
        <ele>1726</ele>
        <time>2019-09-12T08:51:42+02:00</time>
      </trkpt>
      <trkpt lat="44.70181" lon="5.84864">
        <ele>1728</ele>
        <time>2019-09-12T08:51:58+02:00</time>
      </trkpt>
      <trkpt lat="44.70177" lon="5.84848">
        <ele>1731</ele>
        <time>2019-09-12T08:52:17+02:00</time>
      </trkpt>
      <trkpt lat="44.7018" lon="5.84839">
        <ele>1733</ele>
        <time>2019-09-12T08:52:32+02:00</time>
      </trkpt>
      <trkpt lat="44.70185" lon="5.84836">
        <ele>1733</ele>
        <time>2019-09-12T08:52:43+02:00</time>
      </trkpt>
      <trkpt lat="44.70195" lon="5.84827">
        <ele>1734</ele>
        <time>2019-09-12T08:52:58+02:00</time>
      </trkpt>
      <trkpt lat="44.70201" lon="5.84817">
        <ele>1736</ele>
        <time>2019-09-12T08:53:15+02:00</time>
      </trkpt>
      <trkpt lat="44.70206" lon="5.84808">
        <ele>1739</ele>
        <time>2019-09-12T08:53:32+02:00</time>
      </trkpt>
      <trkpt lat="44.70213" lon="5.84801">
        <ele>1741</ele>
        <time>2019-09-12T08:53:49+02:00</time>
      </trkpt>
      <trkpt lat="44.70217" lon="5.84799">
        <ele>1741</ele>
        <time>2019-09-12T08:54:02+02:00</time>
      </trkpt>
      <trkpt lat="44.70215" lon="5.848">
        <ele>1741</ele>
        <time>2019-09-12T08:54:33+02:00</time>
      </trkpt>
      <trkpt lat="44.70217" lon="5.84796">
        <ele>1742</ele>
        <time>2019-09-12T08:54:48+02:00</time>
      </trkpt>
      <trkpt lat="44.70216" lon="5.84792">
        <ele>1744</ele>
        <time>2019-09-12T08:55:05+02:00</time>
      </trkpt>
      <trkpt lat="44.70217" lon="5.84791">
        <ele>1744</ele>
        <time>2019-09-12T08:55:23+02:00</time>
      </trkpt>
      <trkpt lat="44.7022" lon="5.84784">
        <ele>1746</ele>
        <time>2019-09-12T08:55:38+02:00</time>
      </trkpt>
      <trkpt lat="44.70223" lon="5.84776">
        <ele>1749</ele>
        <time>2019-09-12T08:55:53+02:00</time>
      </trkpt>
      <trkpt lat="44.7023" lon="5.84773">
        <ele>1749</ele>
        <time>2019-09-12T08:56:08+02:00</time>
      </trkpt>
      <trkpt lat="44.70239" lon="5.84761">
        <ele>1752</ele>
        <time>2019-09-12T08:56:26+02:00</time>
      </trkpt>
      <trkpt lat="44.70246" lon="5.84748">
        <ele>1755</ele>
        <time>2019-09-12T08:56:42+02:00</time>
      </trkpt>
      <trkpt lat="44.70251" lon="5.84737">
        <ele>1757</ele>
        <time>2019-09-12T08:56:57+02:00</time>
      </trkpt>
      <trkpt lat="44.70257" lon="5.84721">
        <ele>1761</ele>
        <time>2019-09-12T08:57:17+02:00</time>
      </trkpt>
      <trkpt lat="44.70262" lon="5.84711">
        <ele>1763</ele>
        <time>2019-09-12T08:57:33+02:00</time>
      </trkpt>
      <trkpt lat="44.70268" lon="5.84701">
        <ele>1765</ele>
        <time>2019-09-12T08:57:48+02:00</time>
      </trkpt>
      <trkpt lat="44.70279" lon="5.84695">
        <ele>1765</ele>
        <time>2019-09-12T08:58:05+02:00</time>
      </trkpt>
      <trkpt lat="44.70293" lon="5.84688">
        <ele>1766</ele>
        <time>2019-09-12T08:58:24+02:00</time>
      </trkpt>
      <trkpt lat="44.70305" lon="5.84678">
        <ele>1767</ele>
        <time>2019-09-12T08:58:41+02:00</time>
      </trkpt>
      <trkpt lat="44.70308" lon="5.84668">
        <ele>1768</ele>
        <time>2019-09-12T08:58:56+02:00</time>
      </trkpt>
      <trkpt lat="44.70311" lon="5.84655">
        <ele>1771</ele>
        <time>2019-09-12T08:59:11+02:00</time>
      </trkpt>
      <trkpt lat="44.70314" lon="5.84639">
        <ele>1774</ele>
        <time>2019-09-12T08:59:28+02:00</time>
      </trkpt>
      <trkpt lat="44.70318" lon="5.84625">
        <ele>1775</ele>
        <time>2019-09-12T08:59:46+02:00</time>
      </trkpt>
      <trkpt lat="44.70322" lon="5.84612">
        <ele>1778</ele>
        <time>2019-09-12T09:00:01+02:00</time>
      </trkpt>
      <trkpt lat="44.70328" lon="5.84599">
        <ele>1780</ele>
        <time>2019-09-12T09:00:17+02:00</time>
      </trkpt>
      <trkpt lat="44.70336" lon="5.84587">
        <ele>1781</ele>
        <time>2019-09-12T09:00:36+02:00</time>
      </trkpt>
      <trkpt lat="44.70342" lon="5.84574">
        <ele>1783</ele>
        <time>2019-09-12T09:00:54+02:00</time>
      </trkpt>
      <trkpt lat="44.70346" lon="5.84561">
        <ele>1785</ele>
        <time>2019-09-12T09:01:10+02:00</time>
      </trkpt>
      <trkpt lat="44.7035" lon="5.8455">
        <ele>1787</ele>
        <time>2019-09-12T09:01:26+02:00</time>
      </trkpt>
      <trkpt lat="44.70349" lon="5.8454">
        <ele>1788</ele>
        <time>2019-09-12T09:01:43+02:00</time>
      </trkpt>
      <trkpt lat="44.70352" lon="5.84532">
        <ele>1789</ele>
        <time>2019-09-12T09:01:59+02:00</time>
      </trkpt>
      <trkpt lat="44.70352" lon="5.84534">
        <ele>1789</ele>
        <time>2019-09-12T09:02:23+02:00</time>
      </trkpt>
      <trkpt lat="44.70351" lon="5.84533">
        <ele>1789</ele>
        <time>2019-09-12T09:02:49+02:00</time>
      </trkpt>
      <trkpt lat="44.70351" lon="5.84533">
        <ele>1789</ele>
        <time>2019-09-12T09:03:06+02:00</time>
      </trkpt>
      <trkpt lat="44.70351" lon="5.84533">
        <ele>1789</ele>
        <time>2019-09-12T09:03:31+02:00</time>
      </trkpt>
      <trkpt lat="44.70353" lon="5.84521">
        <ele>1790</ele>
        <time>2019-09-12T09:03:45+02:00</time>
      </trkpt>
      <trkpt lat="44.70361" lon="5.84503">
        <ele>1791</ele>
        <time>2019-09-12T09:04:02+02:00</time>
      </trkpt>
      <trkpt lat="44.70366" lon="5.84485">
        <ele>1792</ele>
        <time>2019-09-12T09:04:18+02:00</time>
      </trkpt>
      <trkpt lat="44.70368" lon="5.84466">
        <ele>1793</ele>
        <time>2019-09-12T09:04:35+02:00</time>
      </trkpt>
      <trkpt lat="44.7037" lon="5.84454">
        <ele>1794</ele>
        <time>2019-09-12T09:04:51+02:00</time>
      </trkpt>
      <trkpt lat="44.70372" lon="5.84455">
        <ele>1795</ele>
        <time>2019-09-12T09:05:04+02:00</time>
      </trkpt>
      <trkpt lat="44.70372" lon="5.84457">
        <ele>1795</ele>
        <time>2019-09-12T09:05:17+02:00</time>
      </trkpt>
      <trkpt lat="44.70373" lon="5.84461">
        <ele>1795</ele>
        <time>2019-09-12T09:05:32+02:00</time>
      </trkpt>
      <trkpt lat="44.70375" lon="5.84454">
        <ele>1795</ele>
        <time>2019-09-12T09:05:49+02:00</time>
      </trkpt>
      <trkpt lat="44.70379" lon="5.8443">
        <ele>1796</ele>
        <time>2019-09-12T09:06:07+02:00</time>
      </trkpt>
      <trkpt lat="44.7038" lon="5.84426">
        <ele>1796</ele>
        <time>2019-09-12T09:06:10+02:00</time>
      </trkpt>
      <trkpt lat="44.7039" lon="5.84398">
        <ele>1798</ele>
        <time>2019-09-12T09:06:29+02:00</time>
      </trkpt>
      <trkpt lat="44.70393" lon="5.84375">
        <ele>1798</ele>
        <time>2019-09-12T09:06:46+02:00</time>
      </trkpt>
      <trkpt lat="44.70396" lon="5.84348">
        <ele>1798</ele>
        <time>2019-09-12T09:07:04+02:00</time>
      </trkpt>
      <trkpt lat="44.70402" lon="5.84324">
        <ele>1799</ele>
        <time>2019-09-12T09:07:19+02:00</time>
      </trkpt>
      <trkpt lat="44.70409" lon="5.84307">
        <ele>1800</ele>
        <time>2019-09-12T09:07:32+02:00</time>
      </trkpt>
      <trkpt lat="44.70427" lon="5.84292">
        <ele>1800</ele>
        <time>2019-09-12T09:07:52+02:00</time>
      </trkpt>
      <trkpt lat="44.70428" lon="5.8429">
        <ele>1800</ele>
        <time>2019-09-12T09:07:54+02:00</time>
      </trkpt>
      <trkpt lat="44.70449" lon="5.84282">
        <ele>1801</ele>
        <time>2019-09-12T09:08:15+02:00</time>
      </trkpt>
      <trkpt lat="44.70462" lon="5.84278">
        <ele>1802</ele>
        <time>2019-09-12T09:08:31+02:00</time>
      </trkpt>
      <trkpt lat="44.70474" lon="5.84264">
        <ele>1805</ele>
        <time>2019-09-12T09:08:49+02:00</time>
      </trkpt>
      <trkpt lat="44.7049" lon="5.84247">
        <ele>1808</ele>
        <time>2019-09-12T09:09:06+02:00</time>
      </trkpt>
      <trkpt lat="44.70505" lon="5.84235">
        <ele>1810</ele>
        <time>2019-09-12T09:09:24+02:00</time>
      </trkpt>
      <trkpt lat="44.70517" lon="5.84224">
        <ele>1812</ele>
        <time>2019-09-12T09:09:41+02:00</time>
      </trkpt>
      <trkpt lat="44.70519" lon="5.84225">
        <ele>1812</ele>
        <time>2019-09-12T09:09:59+02:00</time>
      </trkpt>
      <trkpt lat="44.70531" lon="5.8422">
        <ele>1814</ele>
        <time>2019-09-12T09:10:15+02:00</time>
      </trkpt>
      <trkpt lat="44.70547" lon="5.84208">
        <ele>1814</ele>
        <time>2019-09-12T09:10:34+02:00</time>
      </trkpt>
      <trkpt lat="44.70562" lon="5.84195">
        <ele>1814</ele>
        <time>2019-09-12T09:10:53+02:00</time>
      </trkpt>
      <trkpt lat="44.7058" lon="5.84185">
        <ele>1814</ele>
        <time>2019-09-12T09:11:12+02:00</time>
      </trkpt>
      <trkpt lat="44.70601" lon="5.84178">
        <ele>1813</ele>
        <time>2019-09-12T09:11:33+02:00</time>
      </trkpt>
      <trkpt lat="44.70605" lon="5.84176">
        <ele>1814</ele>
        <time>2019-09-12T09:11:38+02:00</time>
      </trkpt>
      <trkpt lat="44.7062" lon="5.84168">
        <ele>1814</ele>
        <time>2019-09-12T09:11:57+02:00</time>
      </trkpt>
      <trkpt lat="44.70635" lon="5.84152">
        <ele>1813</ele>
        <time>2019-09-12T09:12:16+02:00</time>
      </trkpt>
      <trkpt lat="44.7065" lon="5.8414">
        <ele>1812</ele>
        <time>2019-09-12T09:12:34+02:00</time>
      </trkpt>
      <trkpt lat="44.70657" lon="5.84138">
        <ele>1811</ele>
        <time>2019-09-12T09:12:53+02:00</time>
      </trkpt>
      <trkpt lat="44.70654" lon="5.8414">
        <ele>1812</ele>
        <time>2019-09-12T09:13:02+02:00</time>
      </trkpt>
      <trkpt lat="44.70666" lon="5.84153">
        <ele>1810</ele>
        <time>2019-09-12T09:13:23+02:00</time>
      </trkpt>
      <trkpt lat="44.70665" lon="5.84152">
        <ele>1810</ele>
        <time>2019-09-12T09:13:38+02:00</time>
      </trkpt>
      <trkpt lat="44.70674" lon="5.84151">
        <ele>1810</ele>
        <time>2019-09-12T09:13:54+02:00</time>
      </trkpt>
      <trkpt lat="44.70684" lon="5.84152">
        <ele>1809</ele>
        <time>2019-09-12T09:14:11+02:00</time>
      </trkpt>
      <trkpt lat="44.70685" lon="5.84152">
        <ele>1809</ele>
        <time>2019-09-12T09:14:12+02:00</time>
      </trkpt>
      <trkpt lat="44.70698" lon="5.84154">
        <ele>1808</ele>
        <time>2019-09-12T09:14:28+02:00</time>
      </trkpt>
      <trkpt lat="44.70717" lon="5.84147">
        <ele>1805</ele>
        <time>2019-09-12T09:14:45+02:00</time>
      </trkpt>
      <trkpt lat="44.70718" lon="5.84149">
        <ele>1804</ele>
        <time>2019-09-12T09:15:04+02:00</time>
      </trkpt>
      <trkpt lat="44.70721" lon="5.8415">
        <ele>1803</ele>
        <time>2019-09-12T09:15:21+02:00</time>
      </trkpt>
      <trkpt lat="44.7072" lon="5.84148">
        <ele>1804</ele>
        <time>2019-09-12T09:15:47+02:00</time>
      </trkpt>
      <trkpt lat="44.70717" lon="5.84129">
        <ele>1806</ele>
        <time>2019-09-12T09:16:05+02:00</time>
      </trkpt>
      <trkpt lat="44.70711" lon="5.84111">
        <ele>1806</ele>
        <time>2019-09-12T09:16:24+02:00</time>
      </trkpt>
      <trkpt lat="44.70704" lon="5.84109">
        <ele>1808</ele>
        <time>2019-09-12T09:16:38+02:00</time>
      </trkpt>
      <trkpt lat="44.70696" lon="5.84102">
        <ele>1809</ele>
        <time>2019-09-12T09:16:50+02:00</time>
      </trkpt>
      <trkpt lat="44.70694" lon="5.841">
        <ele>1809</ele>
        <time>2019-09-12T09:16:54+02:00</time>
      </trkpt>
      <trkpt lat="44.70688" lon="5.84087">
        <ele>1809</ele>
        <time>2019-09-12T09:17:09+02:00</time>
      </trkpt>
      <trkpt lat="44.70689" lon="5.84077">
        <ele>1808</ele>
        <time>2019-09-12T09:17:22+02:00</time>
      </trkpt>
      <trkpt lat="44.70697" lon="5.84074">
        <ele>1807</ele>
        <time>2019-09-12T09:17:30+02:00</time>
      </trkpt>
      <trkpt lat="44.70709" lon="5.84066">
        <ele>1801</ele>
        <time>2019-09-12T09:17:46+02:00</time>
      </trkpt>
      <trkpt lat="44.70716" lon="5.84066">
        <ele>1798</ele>
        <time>2019-09-12T09:18:00+02:00</time>
      </trkpt>
      <trkpt lat="44.70717" lon="5.84065">
        <ele>1797</ele>
        <time>2019-09-12T09:18:02+02:00</time>
      </trkpt>
      <trkpt lat="44.70718" lon="5.84065">
        <ele>1797</ele>
        <time>2019-09-12T09:18:04+02:00</time>
      </trkpt>
      <trkpt lat="44.7072" lon="5.84052">
        <ele>1795</ele>
        <time>2019-09-12T09:18:13+02:00</time>
      </trkpt>
      <trkpt lat="44.70723" lon="5.84035">
        <ele>1791</ele>
        <time>2019-09-12T09:18:28+02:00</time>
      </trkpt>
      <trkpt lat="44.70728" lon="5.8404">
        <ele>1788</ele>
        <time>2019-09-12T09:18:41+02:00</time>
      </trkpt>
      <trkpt lat="44.70731" lon="5.84031">
        <ele>1786</ele>
        <time>2019-09-12T09:18:55+02:00</time>
      </trkpt>
      <trkpt lat="44.70733" lon="5.84021">
        <ele>1783</ele>
        <time>2019-09-12T09:19:09+02:00</time>
      </trkpt>
      <trkpt lat="44.70737" lon="5.84009">
        <ele>1780</ele>
        <time>2019-09-12T09:19:25+02:00</time>
      </trkpt>
      <trkpt lat="44.70735" lon="5.83986">
        <ele>1778</ele>
        <time>2019-09-12T09:19:42+02:00</time>
      </trkpt>
      <trkpt lat="44.70737" lon="5.83968">
        <ele>1774</ele>
        <time>2019-09-12T09:19:56+02:00</time>
      </trkpt>
      <trkpt lat="44.70734" lon="5.83953">
        <ele>1773</ele>
        <time>2019-09-12T09:20:12+02:00</time>
      </trkpt>
      <trkpt lat="44.7073" lon="5.83931">
        <ele>1771</ele>
        <time>2019-09-12T09:20:27+02:00</time>
      </trkpt>
      <trkpt lat="44.70724" lon="5.83911">
        <ele>1772</ele>
        <time>2019-09-12T09:20:42+02:00</time>
      </trkpt>
      <trkpt lat="44.70724" lon="5.83901">
        <ele>1771</ele>
        <time>2019-09-12T09:20:55+02:00</time>
      </trkpt>
      <trkpt lat="44.70721" lon="5.83891">
        <ele>1771</ele>
        <time>2019-09-12T09:21:13+02:00</time>
      </trkpt>
      <trkpt lat="44.7072" lon="5.83881">
        <ele>1772</ele>
        <time>2019-09-12T09:21:32+02:00</time>
      </trkpt>
      <trkpt lat="44.70722" lon="5.83875">
        <ele>1771</ele>
        <time>2019-09-12T09:21:46+02:00</time>
      </trkpt>
      <trkpt lat="44.70724" lon="5.83864">
        <ele>1771</ele>
        <time>2019-09-12T09:22:05+02:00</time>
      </trkpt>
      <trkpt lat="44.70729" lon="5.83862">
        <ele>1769</ele>
        <time>2019-09-12T09:22:22+02:00</time>
      </trkpt>
      <trkpt lat="44.70734" lon="5.83854">
        <ele>1767</ele>
        <time>2019-09-12T09:22:43+02:00</time>
      </trkpt>
      <trkpt lat="44.70739" lon="5.83841">
        <ele>1766</ele>
        <time>2019-09-12T09:22:56+02:00</time>
      </trkpt>
      <trkpt lat="44.70745" lon="5.83824">
        <ele>1765</ele>
        <time>2019-09-12T09:23:13+02:00</time>
      </trkpt>
      <trkpt lat="44.70752" lon="5.83811">
        <ele>1764</ele>
        <time>2019-09-12T09:23:27+02:00</time>
      </trkpt>
      <trkpt lat="44.70761" lon="5.83783">
        <ele>1766</ele>
        <time>2019-09-12T09:23:48+02:00</time>
      </trkpt>
      <trkpt lat="44.70777" lon="5.83758">
        <ele>1764</ele>
        <time>2019-09-12T09:24:09+02:00</time>
      </trkpt>
      <trkpt lat="44.7078" lon="5.83746">
        <ele>1765</ele>
        <time>2019-09-12T09:24:20+02:00</time>
      </trkpt>
      <trkpt lat="44.70788" lon="5.83724">
        <ele>1767</ele>
        <time>2019-09-12T09:24:38+02:00</time>
      </trkpt>
      <trkpt lat="44.70797" lon="5.83706">
        <ele>1768</ele>
        <time>2019-09-12T09:24:55+02:00</time>
      </trkpt>
      <trkpt lat="44.70807" lon="5.83688">
        <ele>1767</ele>
        <time>2019-09-12T09:25:15+02:00</time>
      </trkpt>
      <trkpt lat="44.70817" lon="5.8367">
        <ele>1768</ele>
        <time>2019-09-12T09:25:33+02:00</time>
      </trkpt>
      <trkpt lat="44.70821" lon="5.83663">
        <ele>1768</ele>
        <time>2019-09-12T09:25:39+02:00</time>
      </trkpt>
      <trkpt lat="44.70835" lon="5.83636">
        <ele>1768</ele>
        <time>2019-09-12T09:26:00+02:00</time>
      </trkpt>
      <trkpt lat="44.70843" lon="5.83614">
        <ele>1768</ele>
        <time>2019-09-12T09:26:17+02:00</time>
      </trkpt>
      <trkpt lat="44.70858" lon="5.83592">
        <ele>1764</ele>
        <time>2019-09-12T09:26:35+02:00</time>
      </trkpt>
      <trkpt lat="44.70867" lon="5.83563">
        <ele>1765</ele>
        <time>2019-09-12T09:26:54+02:00</time>
      </trkpt>
      <trkpt lat="44.70874" lon="5.83551">
        <ele>1765</ele>
        <time>2019-09-12T09:27:06+02:00</time>
      </trkpt>
      <trkpt lat="44.70884" lon="5.83519">
        <ele>1766</ele>
        <time>2019-09-12T09:27:29+02:00</time>
      </trkpt>
      <trkpt lat="44.70893" lon="5.83493">
        <ele>1768</ele>
        <time>2019-09-12T09:27:47+02:00</time>
      </trkpt>
      <trkpt lat="44.70902" lon="5.83465">
        <ele>1770</ele>
        <time>2019-09-12T09:28:06+02:00</time>
      </trkpt>
      <trkpt lat="44.70912" lon="5.83442">
        <ele>1771</ele>
        <time>2019-09-12T09:28:26+02:00</time>
      </trkpt>
      <trkpt lat="44.7092" lon="5.83423">
        <ele>1772</ele>
        <time>2019-09-12T09:28:44+02:00</time>
      </trkpt>
      <trkpt lat="44.70928" lon="5.83401">
        <ele>1774</ele>
        <time>2019-09-12T09:29:03+02:00</time>
      </trkpt>
      <trkpt lat="44.70931" lon="5.83381">
        <ele>1776</ele>
        <time>2019-09-12T09:29:19+02:00</time>
      </trkpt>
      <trkpt lat="44.70937" lon="5.83363">
        <ele>1777</ele>
        <time>2019-09-12T09:29:35+02:00</time>
      </trkpt>
      <trkpt lat="44.70941" lon="5.83355">
        <ele>1777</ele>
        <time>2019-09-12T09:29:42+02:00</time>
      </trkpt>
      <trkpt lat="44.70943" lon="5.83349">
        <ele>1777</ele>
        <time>2019-09-12T09:29:47+02:00</time>
      </trkpt>
      <trkpt lat="44.70943" lon="5.83315">
        <ele>1779</ele>
        <time>2019-09-12T09:30:10+02:00</time>
      </trkpt>
      <trkpt lat="44.70946" lon="5.83286">
        <ele>1780</ele>
        <time>2019-09-12T09:30:31+02:00</time>
      </trkpt>
      <trkpt lat="44.70951" lon="5.83256">
        <ele>1783</ele>
        <time>2019-09-12T09:30:51+02:00</time>
      </trkpt>
      <trkpt lat="44.70951" lon="5.83229">
        <ele>1784</ele>
        <time>2019-09-12T09:31:11+02:00</time>
      </trkpt>
      <trkpt lat="44.70948" lon="5.83221">
        <ele>1785</ele>
        <time>2019-09-12T09:31:17+02:00</time>
      </trkpt>
      <trkpt lat="44.70947" lon="5.83214">
        <ele>1785</ele>
        <time>2019-09-12T09:31:22+02:00</time>
      </trkpt>
      <trkpt lat="44.70952" lon="5.8319">
        <ele>1786</ele>
        <time>2019-09-12T09:31:40+02:00</time>
      </trkpt>
      <trkpt lat="44.70956" lon="5.83164">
        <ele>1788</ele>
        <time>2019-09-12T09:31:58+02:00</time>
      </trkpt>
      <trkpt lat="44.70956" lon="5.83162">
        <ele>1788</ele>
        <time>2019-09-12T09:32:00+02:00</time>
      </trkpt>
      <trkpt lat="44.70955" lon="5.83141">
        <ele>1787</ele>
        <time>2019-09-12T09:32:14+02:00</time>
      </trkpt>
      <trkpt lat="44.70954" lon="5.83135">
        <ele>1787</ele>
        <time>2019-09-12T09:32:18+02:00</time>
      </trkpt>
      <trkpt lat="44.70956" lon="5.83112">
        <ele>1789</ele>
        <time>2019-09-12T09:32:34+02:00</time>
      </trkpt>
      <trkpt lat="44.70957" lon="5.83086">
        <ele>1790</ele>
        <time>2019-09-12T09:32:52+02:00</time>
      </trkpt>
      <trkpt lat="44.70956" lon="5.83077">
        <ele>1790</ele>
        <time>2019-09-12T09:33:08+02:00</time>
      </trkpt>
      <trkpt lat="44.70959" lon="5.8307">
        <ele>1791</ele>
        <time>2019-09-12T09:33:33+02:00</time>
      </trkpt>
      <trkpt lat="44.70958" lon="5.83068">
        <ele>1791</ele>
        <time>2019-09-12T09:33:51+02:00</time>
      </trkpt>
      <trkpt lat="44.70961" lon="5.83052">
        <ele>1792</ele>
        <time>2019-09-12T09:34:12+02:00</time>
      </trkpt>
      <trkpt lat="44.70962" lon="5.83022">
        <ele>1793</ele>
        <time>2019-09-12T09:34:32+02:00</time>
      </trkpt>
      <trkpt lat="44.70959" lon="5.82996">
        <ele>1795</ele>
        <time>2019-09-12T09:34:51+02:00</time>
      </trkpt>
      <trkpt lat="44.70958" lon="5.82994">
        <ele>1795</ele>
        <time>2019-09-12T09:34:56+02:00</time>
      </trkpt>
      <trkpt lat="44.70958" lon="5.82989">
        <ele>1795</ele>
        <time>2019-09-12T09:34:58+02:00</time>
      </trkpt>
      <trkpt lat="44.70958" lon="5.82985">
        <ele>1796</ele>
        <time>2019-09-12T09:34:59+02:00</time>
      </trkpt>
      <trkpt lat="44.70957" lon="5.82975">
        <ele>1796</ele>
        <time>2019-09-12T09:35:09+02:00</time>
      </trkpt>
      <trkpt lat="44.70956" lon="5.82948">
        <ele>1798</ele>
        <time>2019-09-12T09:35:26+02:00</time>
      </trkpt>
      <trkpt lat="44.70957" lon="5.82928">
        <ele>1800</ele>
        <time>2019-09-12T09:35:42+02:00</time>
      </trkpt>
      <trkpt lat="44.70953" lon="5.82908">
        <ele>1802</ele>
        <time>2019-09-12T09:35:57+02:00</time>
      </trkpt>
      <trkpt lat="44.70955" lon="5.82893">
        <ele>1804</ele>
        <time>2019-09-12T09:36:12+02:00</time>
      </trkpt>
      <trkpt lat="44.7096" lon="5.82876">
        <ele>1806</ele>
        <time>2019-09-12T09:36:28+02:00</time>
      </trkpt>
      <trkpt lat="44.70968" lon="5.82856">
        <ele>1811</ele>
        <time>2019-09-12T09:36:43+02:00</time>
      </trkpt>
      <trkpt lat="44.70968" lon="5.82836">
        <ele>1813</ele>
        <time>2019-09-12T09:36:59+02:00</time>
      </trkpt>
      <trkpt lat="44.70965" lon="5.82825">
        <ele>1814</ele>
        <time>2019-09-12T09:37:12+02:00</time>
      </trkpt>
      <trkpt lat="44.70965" lon="5.82821">
        <ele>1814</ele>
        <time>2019-09-12T09:37:15+02:00</time>
      </trkpt>
      <trkpt lat="44.7096" lon="5.82805">
        <ele>1816</ele>
        <time>2019-09-12T09:37:29+02:00</time>
      </trkpt>
      <trkpt lat="44.70957" lon="5.82804">
        <ele>1816</ele>
        <time>2019-09-12T09:37:32+02:00</time>
      </trkpt>
      <trkpt lat="44.70956" lon="5.82803">
        <ele>1816</ele>
        <time>2019-09-12T09:37:33+02:00</time>
      </trkpt>
      <trkpt lat="44.70961" lon="5.82798">
        <ele>1817</ele>
        <time>2019-09-12T09:37:47+02:00</time>
      </trkpt>
      <trkpt lat="44.70952" lon="5.82788">
        <ele>1818</ele>
        <time>2019-09-12T09:38:03+02:00</time>
      </trkpt>
      <trkpt lat="44.70955" lon="5.82778">
        <ele>1821</ele>
        <time>2019-09-12T09:38:14+02:00</time>
      </trkpt>
      <trkpt lat="44.70961" lon="5.82757">
        <ele>1825</ele>
        <time>2019-09-12T09:38:32+02:00</time>
      </trkpt>
      <trkpt lat="44.70963" lon="5.82737">
        <ele>1829</ele>
        <time>2019-09-12T09:38:50+02:00</time>
      </trkpt>
      <trkpt lat="44.7096" lon="5.82729">
        <ele>1831</ele>
        <time>2019-09-12T09:39:00+02:00</time>
      </trkpt>
      <trkpt lat="44.70948" lon="5.8272">
        <ele>1835</ele>
        <time>2019-09-12T09:39:12+02:00</time>
      </trkpt>
      <trkpt lat="44.70936" lon="5.82715">
        <ele>1839</ele>
        <time>2019-09-12T09:39:27+02:00</time>
      </trkpt>
      <trkpt lat="44.70927" lon="5.82713">
        <ele>1841</ele>
        <time>2019-09-12T09:39:41+02:00</time>
      </trkpt>
      <trkpt lat="44.7092" lon="5.82712">
        <ele>1843</ele>
        <time>2019-09-12T09:39:56+02:00</time>
      </trkpt>
      <trkpt lat="44.70913" lon="5.82715">
        <ele>1843</ele>
        <time>2019-09-12T09:40:18+02:00</time>
      </trkpt>
      <trkpt lat="44.70915" lon="5.82706">
        <ele>1846</ele>
        <time>2019-09-12T09:40:41+02:00</time>
      </trkpt>
      <trkpt lat="44.70912" lon="5.827">
        <ele>1848</ele>
        <time>2019-09-12T09:40:54+02:00</time>
      </trkpt>
      <trkpt lat="44.70906" lon="5.82697">
        <ele>1849</ele>
        <time>2019-09-12T09:41:09+02:00</time>
      </trkpt>
      <trkpt lat="44.70898" lon="5.82687">
        <ele>1852</ele>
        <time>2019-09-12T09:41:25+02:00</time>
      </trkpt>
      <trkpt lat="44.70892" lon="5.8268">
        <ele>1854</ele>
        <time>2019-09-12T09:41:40+02:00</time>
      </trkpt>
      <trkpt lat="44.70882" lon="5.82676">
        <ele>1855</ele>
        <time>2019-09-12T09:41:52+02:00</time>
      </trkpt>
      <trkpt lat="44.70881" lon="5.82671">
        <ele>1856</ele>
        <time>2019-09-12T09:42:07+02:00</time>
      </trkpt>
      <trkpt lat="44.7088" lon="5.8266">
        <ele>1858</ele>
        <time>2019-09-12T09:42:17+02:00</time>
      </trkpt>
      <trkpt lat="44.70879" lon="5.82641">
        <ele>1860</ele>
        <time>2019-09-12T09:42:33+02:00</time>
      </trkpt>
      <trkpt lat="44.70872" lon="5.82628">
        <ele>1862</ele>
        <time>2019-09-12T09:42:47+02:00</time>
      </trkpt>
      <trkpt lat="44.7087" lon="5.82612">
        <ele>1865</ele>
        <time>2019-09-12T09:43:01+02:00</time>
      </trkpt>
      <trkpt lat="44.70863" lon="5.82597">
        <ele>1868</ele>
        <time>2019-09-12T09:43:17+02:00</time>
      </trkpt>
      <trkpt lat="44.70862" lon="5.8259">
        <ele>1869</ele>
        <time>2019-09-12T09:43:31+02:00</time>
      </trkpt>
      <trkpt lat="44.70861" lon="5.82585">
        <ele>1871</ele>
        <time>2019-09-12T09:43:46+02:00</time>
      </trkpt>
      <trkpt lat="44.70859" lon="5.82572">
        <ele>1873</ele>
        <time>2019-09-12T09:44:00+02:00</time>
      </trkpt>
      <trkpt lat="44.7085" lon="5.82575">
        <ele>1872</ele>
        <time>2019-09-12T09:44:13+02:00</time>
      </trkpt>
      <trkpt lat="44.70847" lon="5.8259">
        <ele>1869</ele>
        <time>2019-09-12T09:44:38+02:00</time>
      </trkpt>
      <trkpt lat="44.70854" lon="5.82585">
        <ele>1870</ele>
        <time>2019-09-12T09:45:06+02:00</time>
      </trkpt>
      <trkpt lat="44.70853" lon="5.82574">
        <ele>1872</ele>
        <time>2019-09-12T09:45:23+02:00</time>
      </trkpt>
      <trkpt lat="44.70852" lon="5.82575">
        <ele>1872</ele>
        <time>2019-09-12T09:45:43+02:00</time>
      </trkpt>
      <trkpt lat="44.70853" lon="5.82571">
        <ele>1873</ele>
        <time>2019-09-12T09:46:03+02:00</time>
      </trkpt>
      <trkpt lat="44.7085" lon="5.82572">
        <ele>1873</ele>
        <time>2019-09-12T09:46:30+02:00</time>
      </trkpt>
      <trkpt lat="44.70849" lon="5.82576">
        <ele>1872</ele>
        <time>2019-09-12T09:46:54+02:00</time>
      </trkpt>
      <trkpt lat="44.70855" lon="5.82586">
        <ele>1870</ele>
        <time>2019-09-12T09:47:16+02:00</time>
      </trkpt>
      <trkpt lat="44.70855" lon="5.82588">
        <ele>1870</ele>
        <time>2019-09-12T09:47:37+02:00</time>
      </trkpt>
      <trkpt lat="44.70859" lon="5.82578">
        <ele>1872</ele>
        <time>2019-09-12T09:48:04+02:00</time>
      </trkpt>
      <trkpt lat="44.70856" lon="5.8257">
        <ele>1873</ele>
        <time>2019-09-12T09:48:31+02:00</time>
      </trkpt>
      <trkpt lat="44.7085" lon="5.82551">
        <ele>1876</ele>
        <time>2019-09-12T09:48:48+02:00</time>
      </trkpt>
      <trkpt lat="44.70844" lon="5.82527">
        <ele>1879</ele>
        <time>2019-09-12T09:49:09+02:00</time>
      </trkpt>
      <trkpt lat="44.7084" lon="5.82507">
        <ele>1882</ele>
        <time>2019-09-12T09:49:26+02:00</time>
      </trkpt>
      <trkpt lat="44.70832" lon="5.82493">
        <ele>1882</ele>
        <time>2019-09-12T09:49:42+02:00</time>
      </trkpt>
      <trkpt lat="44.70825" lon="5.82478">
        <ele>1884</ele>
        <time>2019-09-12T09:49:59+02:00</time>
      </trkpt>
      <trkpt lat="44.70813" lon="5.82453">
        <ele>1886</ele>
        <time>2019-09-12T09:50:20+02:00</time>
      </trkpt>
      <trkpt lat="44.70806" lon="5.82432">
        <ele>1887</ele>
        <time>2019-09-12T09:50:41+02:00</time>
      </trkpt>
      <trkpt lat="44.70808" lon="5.82428">
        <ele>1888</ele>
        <time>2019-09-12T09:51:08+02:00</time>
      </trkpt>
      <trkpt lat="44.70796" lon="5.82411">
        <ele>1889</ele>
        <time>2019-09-12T09:51:27+02:00</time>
      </trkpt>
      <trkpt lat="44.70786" lon="5.82396">
        <ele>1890</ele>
        <time>2019-09-12T09:51:45+02:00</time>
      </trkpt>
      <trkpt lat="44.70785" lon="5.82394">
        <ele>1890</ele>
        <time>2019-09-12T09:51:46+02:00</time>
      </trkpt>
      <trkpt lat="44.70776" lon="5.82374">
        <ele>1892</ele>
        <time>2019-09-12T09:52:03+02:00</time>
      </trkpt>
      <trkpt lat="44.70766" lon="5.82352">
        <ele>1896</ele>
        <time>2019-09-12T09:52:22+02:00</time>
      </trkpt>
      <trkpt lat="44.70761" lon="5.82337">
        <ele>1898</ele>
        <time>2019-09-12T09:52:33+02:00</time>
      </trkpt>
      <trkpt lat="44.7076" lon="5.82324">
        <ele>1900</ele>
        <time>2019-09-12T09:52:45+02:00</time>
      </trkpt>
      <trkpt lat="44.70756" lon="5.82305">
        <ele>1901</ele>
        <time>2019-09-12T09:53:02+02:00</time>
      </trkpt>
      <trkpt lat="44.70751" lon="5.82288">
        <ele>1903</ele>
        <time>2019-09-12T09:53:18+02:00</time>
      </trkpt>
      <trkpt lat="44.7075" lon="5.82276">
        <ele>1905</ele>
        <time>2019-09-12T09:53:31+02:00</time>
      </trkpt>
      <trkpt lat="44.70753" lon="5.8227">
        <ele>1909</ele>
        <time>2019-09-12T09:53:46+02:00</time>
      </trkpt>
      <trkpt lat="44.70749" lon="5.82259">
        <ele>1911</ele>
        <time>2019-09-12T09:54:05+02:00</time>
      </trkpt>
      <trkpt lat="44.70749" lon="5.82252">
        <ele>1913</ele>
        <time>2019-09-12T09:54:28+02:00</time>
      </trkpt>
      <trkpt lat="44.70746" lon="5.8224">
        <ele>1917</ele>
        <time>2019-09-12T09:54:45+02:00</time>
      </trkpt>
      <trkpt lat="44.70741" lon="5.82228">
        <ele>1921</ele>
        <time>2019-09-12T09:54:59+02:00</time>
      </trkpt>
      <trkpt lat="44.70734" lon="5.82216">
        <ele>1924</ele>
        <time>2019-09-12T09:55:15+02:00</time>
      </trkpt>
      <trkpt lat="44.70725" lon="5.82206">
        <ele>1926</ele>
        <time>2019-09-12T09:55:30+02:00</time>
      </trkpt>
      <trkpt lat="44.70724" lon="5.82202">
        <ele>1928</ele>
        <time>2019-09-12T09:55:50+02:00</time>
      </trkpt>
      <trkpt lat="44.70721" lon="5.82192">
        <ele>1931</ele>
        <time>2019-09-12T09:56:03+02:00</time>
      </trkpt>
      <trkpt lat="44.70717" lon="5.82178">
        <ele>1935</ele>
        <time>2019-09-12T09:56:20+02:00</time>
      </trkpt>
      <trkpt lat="44.70707" lon="5.8217">
        <ele>1935</ele>
        <time>2019-09-12T09:56:34+02:00</time>
      </trkpt>
      <trkpt lat="44.70696" lon="5.82158">
        <ele>1934</ele>
        <time>2019-09-12T09:56:51+02:00</time>
      </trkpt>
      <trkpt lat="44.70692" lon="5.82155">
        <ele>1934</ele>
        <time>2019-09-12T09:57:08+02:00</time>
      </trkpt>
      <trkpt lat="44.70691" lon="5.82152">
        <ele>1934</ele>
        <time>2019-09-12T09:57:17+02:00</time>
      </trkpt>
      <trkpt lat="44.7069" lon="5.8215">
        <ele>1935</ele>
        <time>2019-09-12T09:57:19+02:00</time>
      </trkpt>
      <trkpt lat="44.70689" lon="5.82148">
        <ele>1935</ele>
        <time>2019-09-12T09:57:20+02:00</time>
      </trkpt>
      <trkpt lat="44.70688" lon="5.82146">
        <ele>1935</ele>
        <time>2019-09-12T09:57:31+02:00</time>
      </trkpt>
      <trkpt lat="44.7069" lon="5.82143">
        <ele>1935</ele>
        <time>2019-09-12T09:57:54+02:00</time>
      </trkpt>
      <trkpt lat="44.70696" lon="5.82141">
        <ele>1936</ele>
        <time>2019-09-12T09:58:10+02:00</time>
      </trkpt>
      <trkpt lat="44.70693" lon="5.82137">
        <ele>1936</ele>
        <time>2019-09-12T09:58:34+02:00</time>
      </trkpt>
      <trkpt lat="44.70696" lon="5.8213">
        <ele>1937</ele>
        <time>2019-09-12T09:58:51+02:00</time>
      </trkpt>
      <trkpt lat="44.70691" lon="5.82113">
        <ele>1939</ele>
        <time>2019-09-12T09:59:08+02:00</time>
      </trkpt>
      <trkpt lat="44.70688" lon="5.82107">
        <ele>1939</ele>
        <time>2019-09-12T09:59:20+02:00</time>
      </trkpt>
      <trkpt lat="44.70683" lon="5.82093">
        <ele>1941</ele>
        <time>2019-09-12T09:59:34+02:00</time>
      </trkpt>
      <trkpt lat="44.7068" lon="5.82075">
        <ele>1943</ele>
        <time>2019-09-12T09:59:49+02:00</time>
      </trkpt>
      <trkpt lat="44.70676" lon="5.82057">
        <ele>1945</ele>
        <time>2019-09-12T10:00:05+02:00</time>
      </trkpt>
      <trkpt lat="44.70674" lon="5.82038">
        <ele>1947</ele>
        <time>2019-09-12T10:00:20+02:00</time>
      </trkpt>
      <trkpt lat="44.70671" lon="5.82015">
        <ele>1949</ele>
        <time>2019-09-12T10:00:38+02:00</time>
      </trkpt>
      <trkpt lat="44.70669" lon="5.81997">
        <ele>1951</ele>
        <time>2019-09-12T10:00:56+02:00</time>
      </trkpt>
      <trkpt lat="44.70668" lon="5.81977">
        <ele>1955</ele>
        <time>2019-09-12T10:01:16+02:00</time>
      </trkpt>
      <trkpt lat="44.70672" lon="5.81977">
        <ele>1956</ele>
        <time>2019-09-12T10:01:21+02:00</time>
      </trkpt>
      <trkpt lat="44.70684" lon="5.81983">
        <ele>1957</ele>
        <time>2019-09-12T10:01:37+02:00</time>
      </trkpt>
      <trkpt lat="44.70681" lon="5.81967">
        <ele>1960</ele>
        <time>2019-09-12T10:01:50+02:00</time>
      </trkpt>
      <trkpt lat="44.70676" lon="5.81948">
        <ele>1964</ele>
        <time>2019-09-12T10:02:07+02:00</time>
      </trkpt>
      <trkpt lat="44.70671" lon="5.81933">
        <ele>1967</ele>
        <time>2019-09-12T10:02:21+02:00</time>
      </trkpt>
      <trkpt lat="44.70667" lon="5.81921">
        <ele>1969</ele>
        <time>2019-09-12T10:02:37+02:00</time>
      </trkpt>
      <trkpt lat="44.70661" lon="5.81912">
        <ele>1971</ele>
        <time>2019-09-12T10:02:51+02:00</time>
      </trkpt>
      <trkpt lat="44.70654" lon="5.81898">
        <ele>1974</ele>
        <time>2019-09-12T10:03:06+02:00</time>
      </trkpt>
      <trkpt lat="44.7065" lon="5.81892">
        <ele>1975</ele>
        <time>2019-09-12T10:03:20+02:00</time>
      </trkpt>
      <trkpt lat="44.70645" lon="5.81884">
        <ele>1976</ele>
        <time>2019-09-12T10:03:33+02:00</time>
      </trkpt>
      <trkpt lat="44.70643" lon="5.81874">
        <ele>1979</ele>
        <time>2019-09-12T10:03:49+02:00</time>
      </trkpt>
      <trkpt lat="44.70642" lon="5.81871">
        <ele>1980</ele>
        <time>2019-09-12T10:04:03+02:00</time>
      </trkpt>
      <trkpt lat="44.70648" lon="5.81868">
        <ele>1983</ele>
        <time>2019-09-12T10:04:19+02:00</time>
      </trkpt>
      <trkpt lat="44.70647" lon="5.81855">
        <ele>1987</ele>
        <time>2019-09-12T10:04:34+02:00</time>
      </trkpt>
      <trkpt lat="44.70643" lon="5.81842">
        <ele>1989</ele>
        <time>2019-09-12T10:04:51+02:00</time>
      </trkpt>
      <trkpt lat="44.70637" lon="5.81833">
        <ele>1990</ele>
        <time>2019-09-12T10:05:06+02:00</time>
      </trkpt>
      <trkpt lat="44.70634" lon="5.81825">
        <ele>1992</ele>
        <time>2019-09-12T10:05:22+02:00</time>
      </trkpt>
      <trkpt lat="44.70632" lon="5.81815">
        <ele>1995</ele>
        <time>2019-09-12T10:05:38+02:00</time>
      </trkpt>
      <trkpt lat="44.70631" lon="5.81801">
        <ele>1998</ele>
        <time>2019-09-12T10:05:55+02:00</time>
      </trkpt>
      <trkpt lat="44.7063" lon="5.81792">
        <ele>2001</ele>
        <time>2019-09-12T10:06:11+02:00</time>
      </trkpt>
      <trkpt lat="44.70627" lon="5.81781">
        <ele>2003</ele>
        <time>2019-09-12T10:06:27+02:00</time>
      </trkpt>
      <trkpt lat="44.70624" lon="5.81769">
        <ele>2006</ele>
        <time>2019-09-12T10:06:44+02:00</time>
      </trkpt>
      <trkpt lat="44.70623" lon="5.81757">
        <ele>2009</ele>
        <time>2019-09-12T10:06:59+02:00</time>
      </trkpt>
      <trkpt lat="44.70621" lon="5.81751">
        <ele>2010</ele>
        <time>2019-09-12T10:07:16+02:00</time>
      </trkpt>
      <trkpt lat="44.70618" lon="5.81739">
        <ele>2011</ele>
        <time>2019-09-12T10:07:29+02:00</time>
      </trkpt>
      <trkpt lat="44.70614" lon="5.81726">
        <ele>2012</ele>
        <time>2019-09-12T10:07:46+02:00</time>
      </trkpt>
      <trkpt lat="44.70612" lon="5.81712">
        <ele>2014</ele>
        <time>2019-09-12T10:08:01+02:00</time>
      </trkpt>
      <trkpt lat="44.70612" lon="5.81697">
        <ele>2016</ele>
        <time>2019-09-12T10:08:15+02:00</time>
      </trkpt>
      <trkpt lat="44.70613" lon="5.81684">
        <ele>2019</ele>
        <time>2019-09-12T10:08:33+02:00</time>
      </trkpt>
      <trkpt lat="44.70608" lon="5.8167">
        <ele>2022</ele>
        <time>2019-09-12T10:08:50+02:00</time>
      </trkpt>
      <trkpt lat="44.70604" lon="5.81656">
        <ele>2025</ele>
        <time>2019-09-12T10:09:09+02:00</time>
      </trkpt>
      <trkpt lat="44.70602" lon="5.81645">
        <ele>2027</ele>
        <time>2019-09-12T10:09:26+02:00</time>
      </trkpt>
      <trkpt lat="44.70601" lon="5.81633">
        <ele>2029</ele>
        <time>2019-09-12T10:09:42+02:00</time>
      </trkpt>
      <trkpt lat="44.70602" lon="5.81621">
        <ele>2031</ele>
        <time>2019-09-12T10:09:58+02:00</time>
      </trkpt>
      <trkpt lat="44.70602" lon="5.81615">
        <ele>2032</ele>
        <time>2019-09-12T10:10:13+02:00</time>
      </trkpt>
      <trkpt lat="44.706" lon="5.81616">
        <ele>2031</ele>
        <time>2019-09-12T10:10:29+02:00</time>
      </trkpt>
      <trkpt lat="44.70602" lon="5.81604">
        <ele>2034</ele>
        <time>2019-09-12T10:10:45+02:00</time>
      </trkpt>
      <trkpt lat="44.70601" lon="5.81607">
        <ele>2033</ele>
        <time>2019-09-12T10:10:59+02:00</time>
      </trkpt>
      <trkpt lat="44.70602" lon="5.81594">
        <ele>2036</ele>
        <time>2019-09-12T10:11:13+02:00</time>
      </trkpt>
      <trkpt lat="44.70605" lon="5.81581">
        <ele>2039</ele>
        <time>2019-09-12T10:11:27+02:00</time>
      </trkpt>
      <trkpt lat="44.70604" lon="5.81568">
        <ele>2043</ele>
        <time>2019-09-12T10:11:45+02:00</time>
      </trkpt>
      <trkpt lat="44.70604" lon="5.81557">
        <ele>2047</ele>
        <time>2019-09-12T10:12:01+02:00</time>
      </trkpt>
      <trkpt lat="44.70604" lon="5.81547">
        <ele>2050</ele>
        <time>2019-09-12T10:12:16+02:00</time>
      </trkpt>
      <trkpt lat="44.70601" lon="5.81536">
        <ele>2053</ele>
        <time>2019-09-12T10:12:33+02:00</time>
      </trkpt>
      <trkpt lat="44.70598" lon="5.8153">
        <ele>2053</ele>
        <time>2019-09-12T10:12:47+02:00</time>
      </trkpt>
      <trkpt lat="44.70596" lon="5.81528">
        <ele>2053</ele>
        <time>2019-09-12T10:13:04+02:00</time>
      </trkpt>
      <trkpt lat="44.7059" lon="5.81516">
        <ele>2055</ele>
        <time>2019-09-12T10:13:18+02:00</time>
      </trkpt>
      <trkpt lat="44.70595" lon="5.8151">
        <ele>2058</ele>
        <time>2019-09-12T10:13:33+02:00</time>
      </trkpt>
      <trkpt lat="44.70596" lon="5.81501">
        <ele>2060</ele>
        <time>2019-09-12T10:13:49+02:00</time>
      </trkpt>
      <trkpt lat="44.70594" lon="5.81485">
        <ele>2063</ele>
        <time>2019-09-12T10:14:04+02:00</time>
      </trkpt>
      <trkpt lat="44.70593" lon="5.81482">
        <ele>2064</ele>
        <time>2019-09-12T10:14:06+02:00</time>
      </trkpt>
      <trkpt lat="44.70592" lon="5.8147">
        <ele>2066</ele>
        <time>2019-09-12T10:14:22+02:00</time>
      </trkpt>
      <trkpt lat="44.70591" lon="5.81465">
        <ele>2067</ele>
        <time>2019-09-12T10:14:38+02:00</time>
      </trkpt>
      <trkpt lat="44.70591" lon="5.81459">
        <ele>2069</ele>
        <time>2019-09-12T10:14:53+02:00</time>
      </trkpt>
      <trkpt lat="44.70587" lon="5.8145">
        <ele>2070</ele>
        <time>2019-09-12T10:15:08+02:00</time>
      </trkpt>
      <trkpt lat="44.70583" lon="5.8144">
        <ele>2071</ele>
        <time>2019-09-12T10:15:25+02:00</time>
      </trkpt>
      <trkpt lat="44.70578" lon="5.8143">
        <ele>2074</ele>
        <time>2019-09-12T10:15:40+02:00</time>
      </trkpt>
      <trkpt lat="44.70576" lon="5.81423">
        <ele>2076</ele>
        <time>2019-09-12T10:15:54+02:00</time>
      </trkpt>
      <trkpt lat="44.70573" lon="5.81413">
        <ele>2078</ele>
        <time>2019-09-12T10:16:08+02:00</time>
      </trkpt>
      <trkpt lat="44.70573" lon="5.81412">
        <ele>2078</ele>
        <time>2019-09-12T10:16:22+02:00</time>
      </trkpt>
      <trkpt lat="44.70574" lon="5.8141">
        <ele>2079</ele>
        <time>2019-09-12T10:16:24+02:00</time>
      </trkpt>
      <trkpt lat="44.70573" lon="5.81395">
        <ele>2082</ele>
        <time>2019-09-12T10:16:37+02:00</time>
      </trkpt>
      <trkpt lat="44.7057" lon="5.81382">
        <ele>2085</ele>
        <time>2019-09-12T10:16:55+02:00</time>
      </trkpt>
      <trkpt lat="44.70563" lon="5.81371">
        <ele>2086</ele>
        <time>2019-09-12T10:17:13+02:00</time>
      </trkpt>
      <trkpt lat="44.70561" lon="5.81363">
        <ele>2087</ele>
        <time>2019-09-12T10:17:28+02:00</time>
      </trkpt>
      <trkpt lat="44.70569" lon="5.81358">
        <ele>2090</ele>
        <time>2019-09-12T10:17:44+02:00</time>
      </trkpt>
      <trkpt lat="44.70565" lon="5.81345">
        <ele>2091</ele>
        <time>2019-09-12T10:17:59+02:00</time>
      </trkpt>
      <trkpt lat="44.7056" lon="5.81332">
        <ele>2092</ele>
        <time>2019-09-12T10:18:15+02:00</time>
      </trkpt>
      <trkpt lat="44.70558" lon="5.81316">
        <ele>2094</ele>
        <time>2019-09-12T10:18:34+02:00</time>
      </trkpt>
      <trkpt lat="44.7056" lon="5.813">
        <ele>2096</ele>
        <time>2019-09-12T10:18:49+02:00</time>
      </trkpt>
      <trkpt lat="44.70563" lon="5.81286">
        <ele>2099</ele>
        <time>2019-09-12T10:19:06+02:00</time>
      </trkpt>
      <trkpt lat="44.7056" lon="5.8127">
        <ele>2100</ele>
        <time>2019-09-12T10:19:23+02:00</time>
      </trkpt>
      <trkpt lat="44.70554" lon="5.81251">
        <ele>2102</ele>
        <time>2019-09-12T10:19:41+02:00</time>
      </trkpt>
      <trkpt lat="44.70552" lon="5.81247">
        <ele>2102</ele>
        <time>2019-09-12T10:19:56+02:00</time>
      </trkpt>
      <trkpt lat="44.70552" lon="5.81248">
        <ele>2102</ele>
        <time>2019-09-12T10:20:13+02:00</time>
      </trkpt>
      <trkpt lat="44.70553" lon="5.81247">
        <ele>2102</ele>
        <time>2019-09-12T10:20:20+02:00</time>
      </trkpt>
      <trkpt lat="44.70544" lon="5.81256">
        <ele>2101</ele>
        <time>2019-09-12T10:41:32+02:00</time>
      </trkpt>
      <trkpt lat="44.70544" lon="5.81256">
        <ele>2101</ele>
        <time>2019-09-12T10:41:33+02:00</time>
      </trkpt>
      <trkpt lat="44.7055" lon="5.81247">
        <ele>2102</ele>
        <time>2019-09-12T10:41:44+02:00</time>
      </trkpt>
      <trkpt lat="44.70549" lon="5.81247">
        <ele>2102</ele>
        <time>2019-09-12T10:41:51+02:00</time>
      </trkpt>
      <trkpt lat="44.70551" lon="5.81247">
        <ele>2102</ele>
        <time>2019-09-12T10:42:00+02:00</time>
      </trkpt>
      <trkpt lat="44.70551" lon="5.81248">
        <ele>2102</ele>
        <time>2019-09-12T10:42:13+02:00</time>
      </trkpt>
      <trkpt lat="44.70552" lon="5.81248">
        <ele>2102</ele>
        <time>2019-09-12T10:42:36+02:00</time>
      </trkpt>
      <trkpt lat="44.7055" lon="5.81249">
        <ele>2102</ele>
        <time>2019-09-12T10:42:57+02:00</time>
      </trkpt>
      <trkpt lat="44.7055" lon="5.81248">
        <ele>2102</ele>
        <time>2019-09-12T10:43:02+02:00</time>
      </trkpt>
      <trkpt lat="44.70551" lon="5.81248">
        <ele>2102</ele>
        <time>2019-09-12T10:43:20+02:00</time>
      </trkpt>
      <trkpt lat="44.70551" lon="5.81247">
        <ele>2102</ele>
        <time>2019-09-12T10:43:38+02:00</time>
      </trkpt>
      <trkpt lat="44.70551" lon="5.81247">
        <ele>2102</ele>
        <time>2019-09-12T10:43:49+02:00</time>
      </trkpt>
      <trkpt lat="44.70551" lon="5.81247">
        <ele>2102</ele>
        <time>2019-09-12T10:44:04+02:00</time>
      </trkpt>
      <trkpt lat="44.7055" lon="5.81249">
        <ele>2102</ele>
        <time>2019-09-12T10:44:20+02:00</time>
      </trkpt>
      <trkpt lat="44.70549" lon="5.81248">
        <ele>2102</ele>
        <time>2019-09-12T10:44:43+02:00</time>
      </trkpt>
      <trkpt lat="44.7055" lon="5.81245">
        <ele>2101</ele>
        <time>2019-09-12T10:44:58+02:00</time>
      </trkpt>
      <trkpt lat="44.70552" lon="5.81246">
        <ele>2102</ele>
        <time>2019-09-12T10:45:13+02:00</time>
      </trkpt>
      <trkpt lat="44.70553" lon="5.81244">
        <ele>2102</ele>
        <time>2019-09-12T10:45:31+02:00</time>
      </trkpt>
      <trkpt lat="44.70555" lon="5.81245">
        <ele>2102</ele>
        <time>2019-09-12T10:45:49+02:00</time>
      </trkpt>
      <trkpt lat="44.70561" lon="5.81244">
        <ele>2103</ele>
        <time>2019-09-12T10:46:01+02:00</time>
      </trkpt>
      <trkpt lat="44.70571" lon="5.81245">
        <ele>2104</ele>
        <time>2019-09-12T10:46:15+02:00</time>
      </trkpt>
      <trkpt lat="44.7058" lon="5.81249">
        <ele>2106</ele>
        <time>2019-09-12T10:46:27+02:00</time>
      </trkpt>
      <trkpt lat="44.70583" lon="5.81254">
        <ele>2105</ele>
        <time>2019-09-12T10:46:37+02:00</time>
      </trkpt>
      <trkpt lat="44.70583" lon="5.81258">
        <ele>2105</ele>
        <time>2019-09-12T10:46:42+02:00</time>
      </trkpt>
      <trkpt lat="44.70585" lon="5.81262">
        <ele>2105</ele>
        <time>2019-09-12T10:46:46+02:00</time>
      </trkpt>
      <trkpt lat="44.70587" lon="5.81266">
        <ele>2105</ele>
        <time>2019-09-12T10:46:50+02:00</time>
      </trkpt>
      <trkpt lat="44.706" lon="5.81283">
        <ele>2105</ele>
        <time>2019-09-12T10:47:06+02:00</time>
      </trkpt>
      <trkpt lat="44.70611" lon="5.81298">
        <ele>2106</ele>
        <time>2019-09-12T10:47:22+02:00</time>
      </trkpt>
      <trkpt lat="44.70615" lon="5.81314">
        <ele>2106</ele>
        <time>2019-09-12T10:47:37+02:00</time>
      </trkpt>
      <trkpt lat="44.70617" lon="5.81325">
        <ele>2105</ele>
        <time>2019-09-12T10:47:52+02:00</time>
      </trkpt>
      <trkpt lat="44.70621" lon="5.81342">
        <ele>2104</ele>
        <time>2019-09-12T10:48:07+02:00</time>
      </trkpt>
      <trkpt lat="44.70631" lon="5.81363">
        <ele>2105</ele>
        <time>2019-09-12T10:48:25+02:00</time>
      </trkpt>
      <trkpt lat="44.70637" lon="5.81376">
        <ele>2105</ele>
        <time>2019-09-12T10:48:39+02:00</time>
      </trkpt>
      <trkpt lat="44.70641" lon="5.81382">
        <ele>2106</ele>
        <time>2019-09-12T10:48:54+02:00</time>
      </trkpt>
      <trkpt lat="44.70643" lon="5.81387">
        <ele>2106</ele>
        <time>2019-09-12T10:49:07+02:00</time>
      </trkpt>
      <trkpt lat="44.7065" lon="5.81395">
        <ele>2107</ele>
        <time>2019-09-12T10:49:18+02:00</time>
      </trkpt>
      <trkpt lat="44.70651" lon="5.81398">
        <ele>2107</ele>
        <time>2019-09-12T10:49:21+02:00</time>
      </trkpt>
      <trkpt lat="44.70665" lon="5.81414">
        <ele>2109</ele>
        <time>2019-09-12T10:49:39+02:00</time>
      </trkpt>
      <trkpt lat="44.70673" lon="5.81429">
        <ele>2109</ele>
        <time>2019-09-12T10:49:52+02:00</time>
      </trkpt>
      <trkpt lat="44.7068" lon="5.81438">
        <ele>2110</ele>
        <time>2019-09-12T10:50:02+02:00</time>
      </trkpt>
      <trkpt lat="44.70692" lon="5.81448">
        <ele>2112</ele>
        <time>2019-09-12T10:50:18+02:00</time>
      </trkpt>
      <trkpt lat="44.70703" lon="5.81454">
        <ele>2114</ele>
        <time>2019-09-12T10:50:35+02:00</time>
      </trkpt>
      <trkpt lat="44.70704" lon="5.81457">
        <ele>2115</ele>
        <time>2019-09-12T10:50:40+02:00</time>
      </trkpt>
      <trkpt lat="44.70716" lon="5.81467">
        <ele>2116</ele>
        <time>2019-09-12T10:50:58+02:00</time>
      </trkpt>
      <trkpt lat="44.70729" lon="5.81476">
        <ele>2119</ele>
        <time>2019-09-12T10:51:16+02:00</time>
      </trkpt>
      <trkpt lat="44.70731" lon="5.8148">
        <ele>2119</ele>
        <time>2019-09-12T10:51:38+02:00</time>
      </trkpt>
      <trkpt lat="44.70739" lon="5.8149">
        <ele>2119</ele>
        <time>2019-09-12T10:51:53+02:00</time>
      </trkpt>
      <trkpt lat="44.70742" lon="5.81502">
        <ele>2118</ele>
        <time>2019-09-12T10:52:04+02:00</time>
      </trkpt>
      <trkpt lat="44.70753" lon="5.81529">
        <ele>2118</ele>
        <time>2019-09-12T10:52:25+02:00</time>
      </trkpt>
      <trkpt lat="44.70761" lon="5.81546">
        <ele>2118</ele>
        <time>2019-09-12T10:52:42+02:00</time>
      </trkpt>
      <trkpt lat="44.70771" lon="5.8156">
        <ele>2119</ele>
        <time>2019-09-12T10:52:56+02:00</time>
      </trkpt>
      <trkpt lat="44.70773" lon="5.81562">
        <ele>2120</ele>
        <time>2019-09-12T10:52:58+02:00</time>
      </trkpt>
      <trkpt lat="44.70783" lon="5.81582">
        <ele>2120</ele>
        <time>2019-09-12T10:53:15+02:00</time>
      </trkpt>
      <trkpt lat="44.70797" lon="5.81597">
        <ele>2121</ele>
        <time>2019-09-12T10:53:32+02:00</time>
      </trkpt>
      <trkpt lat="44.70809" lon="5.81611">
        <ele>2122</ele>
        <time>2019-09-12T10:53:47+02:00</time>
      </trkpt>
      <trkpt lat="44.70815" lon="5.81618">
        <ele>2122</ele>
        <time>2019-09-12T10:54:01+02:00</time>
      </trkpt>
      <trkpt lat="44.70829" lon="5.81632">
        <ele>2122</ele>
        <time>2019-09-12T10:54:17+02:00</time>
      </trkpt>
      <trkpt lat="44.70838" lon="5.81647">
        <ele>2122</ele>
        <time>2019-09-12T10:54:29+02:00</time>
      </trkpt>
      <trkpt lat="44.7084" lon="5.81649">
        <ele>2122</ele>
        <time>2019-09-12T10:54:31+02:00</time>
      </trkpt>
      <trkpt lat="44.70845" lon="5.81656">
        <ele>2122</ele>
        <time>2019-09-12T10:54:37+02:00</time>
      </trkpt>
      <trkpt lat="44.70851" lon="5.81665">
        <ele>2121</ele>
        <time>2019-09-12T10:54:45+02:00</time>
      </trkpt>
      <trkpt lat="44.70863" lon="5.81682">
        <ele>2120</ele>
        <time>2019-09-12T10:55:03+02:00</time>
      </trkpt>
      <trkpt lat="44.70868" lon="5.81686">
        <ele>2120</ele>
        <time>2019-09-12T10:55:08+02:00</time>
      </trkpt>
      <trkpt lat="44.70885" lon="5.817">
        <ele>2122</ele>
        <time>2019-09-12T10:55:27+02:00</time>
      </trkpt>
      <trkpt lat="44.70892" lon="5.8171">
        <ele>2121</ele>
        <time>2019-09-12T10:55:43+02:00</time>
      </trkpt>
      <trkpt lat="44.709" lon="5.81722">
        <ele>2120</ele>
        <time>2019-09-12T10:55:57+02:00</time>
      </trkpt>
      <trkpt lat="44.70915" lon="5.81738">
        <ele>2119</ele>
        <time>2019-09-12T10:56:14+02:00</time>
      </trkpt>
      <trkpt lat="44.70931" lon="5.81753">
        <ele>2119</ele>
        <time>2019-09-12T10:56:33+02:00</time>
      </trkpt>
      <trkpt lat="44.70945" lon="5.81753">
        <ele>2121</ele>
        <time>2019-09-12T10:56:50+02:00</time>
      </trkpt>
      <trkpt lat="44.70954" lon="5.81757">
        <ele>2121</ele>
        <time>2019-09-12T10:57:04+02:00</time>
      </trkpt>
      <trkpt lat="44.70954" lon="5.81756">
        <ele>2121</ele>
        <time>2019-09-12T10:57:32+02:00</time>
      </trkpt>
      <trkpt lat="44.70957" lon="5.81755">
        <ele>2122</ele>
        <time>2019-09-12T10:57:52+02:00</time>
      </trkpt>
      <trkpt lat="44.70967" lon="5.81759">
        <ele>2122</ele>
        <time>2019-09-12T10:58:07+02:00</time>
      </trkpt>
      <trkpt lat="44.70979" lon="5.81759">
        <ele>2123</ele>
        <time>2019-09-12T10:58:21+02:00</time>
      </trkpt>
      <trkpt lat="44.7098" lon="5.8176">
        <ele>2123</ele>
        <time>2019-09-12T10:58:22+02:00</time>
      </trkpt>
      <trkpt lat="44.70995" lon="5.8177">
        <ele>2122</ele>
        <time>2019-09-12T10:58:39+02:00</time>
      </trkpt>
      <trkpt lat="44.71002" lon="5.81775">
        <ele>2122</ele>
        <time>2019-09-12T10:58:47+02:00</time>
      </trkpt>
      <trkpt lat="44.71006" lon="5.81783">
        <ele>2122</ele>
        <time>2019-09-12T10:58:54+02:00</time>
      </trkpt>
      <trkpt lat="44.71008" lon="5.81785">
        <ele>2122</ele>
        <time>2019-09-12T10:58:57+02:00</time>
      </trkpt>
      <trkpt lat="44.71023" lon="5.81798">
        <ele>2125</ele>
        <time>2019-09-12T10:59:15+02:00</time>
      </trkpt>
      <trkpt lat="44.71025" lon="5.81802">
        <ele>2125</ele>
        <time>2019-09-12T10:59:19+02:00</time>
      </trkpt>
      <trkpt lat="44.71033" lon="5.81815">
        <ele>2125</ele>
        <time>2019-09-12T10:59:35+02:00</time>
      </trkpt>
      <trkpt lat="44.7104" lon="5.81814">
        <ele>2127</ele>
        <time>2019-09-12T10:59:51+02:00</time>
      </trkpt>
      <trkpt lat="44.71053" lon="5.81813">
        <ele>2131</ele>
        <time>2019-09-12T11:00:07+02:00</time>
      </trkpt>
      <trkpt lat="44.71059" lon="5.81814">
        <ele>2133</ele>
        <time>2019-09-12T11:00:19+02:00</time>
      </trkpt>
      <trkpt lat="44.71064" lon="5.81822">
        <ele>2134</ele>
        <time>2019-09-12T11:00:33+02:00</time>
      </trkpt>
      <trkpt lat="44.71074" lon="5.81829">
        <ele>2137</ele>
        <time>2019-09-12T11:00:50+02:00</time>
      </trkpt>
      <trkpt lat="44.71083" lon="5.8184">
        <ele>2140</ele>
        <time>2019-09-12T11:01:08+02:00</time>
      </trkpt>
      <trkpt lat="44.71098" lon="5.81843">
        <ele>2142</ele>
        <time>2019-09-12T11:01:27+02:00</time>
      </trkpt>
      <trkpt lat="44.71101" lon="5.81846">
        <ele>2142</ele>
        <time>2019-09-12T11:01:40+02:00</time>
      </trkpt>
      <trkpt lat="44.71107" lon="5.81845">
        <ele>2143</ele>
        <time>2019-09-12T11:01:45+02:00</time>
      </trkpt>
      <trkpt lat="44.71121" lon="5.81845">
        <ele>2146</ele>
        <time>2019-09-12T11:02:02+02:00</time>
      </trkpt>
      <trkpt lat="44.71137" lon="5.81845">
        <ele>2148</ele>
        <time>2019-09-12T11:02:21+02:00</time>
      </trkpt>
      <trkpt lat="44.71152" lon="5.81846">
        <ele>2149</ele>
        <time>2019-09-12T11:02:36+02:00</time>
      </trkpt>
      <trkpt lat="44.71168" lon="5.81847">
        <ele>2151</ele>
        <time>2019-09-12T11:02:53+02:00</time>
      </trkpt>
      <trkpt lat="44.71184" lon="5.81849">
        <ele>2152</ele>
        <time>2019-09-12T11:03:11+02:00</time>
      </trkpt>
      <trkpt lat="44.712" lon="5.81847">
        <ele>2155</ele>
        <time>2019-09-12T11:03:28+02:00</time>
      </trkpt>
      <trkpt lat="44.71211" lon="5.8185">
        <ele>2155</ele>
        <time>2019-09-12T11:03:42+02:00</time>
      </trkpt>
      <trkpt lat="44.71226" lon="5.81851">
        <ele>2157</ele>
        <time>2019-09-12T11:03:59+02:00</time>
      </trkpt>
      <trkpt lat="44.71237" lon="5.81849">
        <ele>2159</ele>
        <time>2019-09-12T11:04:15+02:00</time>
      </trkpt>
      <trkpt lat="44.71248" lon="5.81848">
        <ele>2162</ele>
        <time>2019-09-12T11:04:31+02:00</time>
      </trkpt>
      <trkpt lat="44.71258" lon="5.81838">
        <ele>2165</ele>
        <time>2019-09-12T11:04:46+02:00</time>
      </trkpt>
      <trkpt lat="44.71267" lon="5.81833">
        <ele>2168</ele>
        <time>2019-09-12T11:05:01+02:00</time>
      </trkpt>
      <trkpt lat="44.71278" lon="5.81834">
        <ele>2171</ele>
        <time>2019-09-12T11:05:18+02:00</time>
      </trkpt>
      <trkpt lat="44.71288" lon="5.81835">
        <ele>2174</ele>
        <time>2019-09-12T11:05:34+02:00</time>
      </trkpt>
      <trkpt lat="44.71298" lon="5.81837">
        <ele>2177</ele>
        <time>2019-09-12T11:05:48+02:00</time>
      </trkpt>
      <trkpt lat="44.71308" lon="5.81837">
        <ele>2181</ele>
        <time>2019-09-12T11:06:03+02:00</time>
      </trkpt>
      <trkpt lat="44.71314" lon="5.81835">
        <ele>2184</ele>
        <time>2019-09-12T11:06:22+02:00</time>
      </trkpt>
      <trkpt lat="44.71322" lon="5.81837">
        <ele>2185</ele>
        <time>2019-09-12T11:06:39+02:00</time>
      </trkpt>
      <trkpt lat="44.71331" lon="5.81839">
        <ele>2188</ele>
        <time>2019-09-12T11:06:57+02:00</time>
      </trkpt>
      <trkpt lat="44.71332" lon="5.81837">
        <ele>2189</ele>
        <time>2019-09-12T11:07:14+02:00</time>
      </trkpt>
      <trkpt lat="44.71336" lon="5.81838">
        <ele>2189</ele>
        <time>2019-09-12T11:07:27+02:00</time>
      </trkpt>
      <trkpt lat="44.71345" lon="5.8184">
        <ele>2192</ele>
        <time>2019-09-12T11:07:44+02:00</time>
      </trkpt>
      <trkpt lat="44.71354" lon="5.81844">
        <ele>2193</ele>
        <time>2019-09-12T11:07:58+02:00</time>
      </trkpt>
      <trkpt lat="44.71355" lon="5.81844">
        <ele>2194</ele>
        <time>2019-09-12T11:08:15+02:00</time>
      </trkpt>
      <trkpt lat="44.71354" lon="5.81845">
        <ele>2193</ele>
        <time>2019-09-12T11:08:27+02:00</time>
      </trkpt>
      <trkpt lat="44.71355" lon="5.81844">
        <ele>2193</ele>
        <time>2019-09-12T11:08:45+02:00</time>
      </trkpt>
      <trkpt lat="44.71357" lon="5.81842">
        <ele>2194</ele>
        <time>2019-09-12T11:09:12+02:00</time>
      </trkpt>
      <trkpt lat="44.71356" lon="5.81842">
        <ele>2194</ele>
        <time>2019-09-12T11:09:41+02:00</time>
      </trkpt>
      <trkpt lat="44.71355" lon="5.81844">
        <ele>2194</ele>
        <time>2019-09-12T11:10:06+02:00</time>
      </trkpt>
      <trkpt lat="44.7136" lon="5.81845">
        <ele>2195</ele>
        <time>2019-09-12T11:10:25+02:00</time>
      </trkpt>
      <trkpt lat="44.71367" lon="5.81838">
        <ele>2199</ele>
        <time>2019-09-12T11:10:41+02:00</time>
      </trkpt>
      <trkpt lat="44.71375" lon="5.8183">
        <ele>2203</ele>
        <time>2019-09-12T11:10:57+02:00</time>
      </trkpt>
      <trkpt lat="44.71379" lon="5.81822">
        <ele>2206</ele>
        <time>2019-09-12T11:11:13+02:00</time>
      </trkpt>
      <trkpt lat="44.71384" lon="5.81816">
        <ele>2209</ele>
        <time>2019-09-12T11:11:26+02:00</time>
      </trkpt>
      <trkpt lat="44.7139" lon="5.81812">
        <ele>2212</ele>
        <time>2019-09-12T11:11:39+02:00</time>
      </trkpt>
      <trkpt lat="44.71396" lon="5.81807">
        <ele>2214</ele>
        <time>2019-09-12T11:11:52+02:00</time>
      </trkpt>
      <trkpt lat="44.71399" lon="5.81798">
        <ele>2218</ele>
        <time>2019-09-12T11:12:07+02:00</time>
      </trkpt>
      <trkpt lat="44.71401" lon="5.81793">
        <ele>2221</ele>
        <time>2019-09-12T11:12:24+02:00</time>
      </trkpt>
      <trkpt lat="44.71402" lon="5.81782">
        <ele>2224</ele>
        <time>2019-09-12T11:12:39+02:00</time>
      </trkpt>
      <trkpt lat="44.71404" lon="5.81777">
        <ele>2226</ele>
        <time>2019-09-12T11:12:50+02:00</time>
      </trkpt>
      <trkpt lat="44.71409" lon="5.81772">
        <ele>2228</ele>
        <time>2019-09-12T11:13:06+02:00</time>
      </trkpt>
      <trkpt lat="44.71412" lon="5.81764">
        <ele>2230</ele>
        <time>2019-09-12T11:13:20+02:00</time>
      </trkpt>
      <trkpt lat="44.71415" lon="5.81762">
        <ele>2231</ele>
        <time>2019-09-12T11:13:32+02:00</time>
      </trkpt>
      <trkpt lat="44.7142" lon="5.81754">
        <ele>2234</ele>
        <time>2019-09-12T11:13:45+02:00</time>
      </trkpt>
      <trkpt lat="44.71424" lon="5.81747">
        <ele>2236</ele>
        <time>2019-09-12T11:13:59+02:00</time>
      </trkpt>
      <trkpt lat="44.71426" lon="5.81749">
        <ele>2236</ele>
        <time>2019-09-12T11:14:14+02:00</time>
      </trkpt>
      <trkpt lat="44.71426" lon="5.81748">
        <ele>2236</ele>
        <time>2019-09-12T11:14:29+02:00</time>
      </trkpt>
      <trkpt lat="44.71428" lon="5.8175">
        <ele>2236</ele>
        <time>2019-09-12T11:14:51+02:00</time>
      </trkpt>
      <trkpt lat="44.71428" lon="5.81746">
        <ele>2236</ele>
        <time>2019-09-12T11:15:15+02:00</time>
      </trkpt>
      <trkpt lat="44.7143" lon="5.81744">
        <ele>2237</ele>
        <time>2019-09-12T11:15:32+02:00</time>
      </trkpt>
      <trkpt lat="44.71439" lon="5.81741">
        <ele>2238</ele>
        <time>2019-09-12T11:15:49+02:00</time>
      </trkpt>
      <trkpt lat="44.71442" lon="5.81758">
        <ele>2238</ele>
        <time>2019-09-12T11:16:06+02:00</time>
      </trkpt>
      <trkpt lat="44.71448" lon="5.81762">
        <ele>2241</ele>
        <time>2019-09-12T11:16:23+02:00</time>
      </trkpt>
      <trkpt lat="44.71454" lon="5.81763">
        <ele>2245</ele>
        <time>2019-09-12T11:16:41+02:00</time>
      </trkpt>
      <trkpt lat="44.71459" lon="5.81764">
        <ele>2248</ele>
        <time>2019-09-12T11:16:56+02:00</time>
      </trkpt>
      <trkpt lat="44.71465" lon="5.81756">
        <ele>2251</ele>
        <time>2019-09-12T11:17:15+02:00</time>
      </trkpt>
      <trkpt lat="44.71469" lon="5.81755">
        <ele>2253</ele>
        <time>2019-09-12T11:17:33+02:00</time>
      </trkpt>
      <trkpt lat="44.71471" lon="5.81762">
        <ele>2255</ele>
        <time>2019-09-12T11:17:47+02:00</time>
      </trkpt>
      <trkpt lat="44.71472" lon="5.81767">
        <ele>2256</ele>
        <time>2019-09-12T11:18:02+02:00</time>
      </trkpt>
      <trkpt lat="44.71472" lon="5.81767">
        <ele>2256</ele>
        <time>2019-09-12T11:18:19+02:00</time>
      </trkpt>
      <trkpt lat="44.71477" lon="5.8178">
        <ele>2260</ele>
        <time>2019-09-12T11:18:35+02:00</time>
      </trkpt>
      <trkpt lat="44.71477" lon="5.81786">
        <ele>2260</ele>
        <time>2019-09-12T11:18:49+02:00</time>
      </trkpt>
      <trkpt lat="44.71478" lon="5.81791">
        <ele>2260</ele>
        <time>2019-09-12T11:19:04+02:00</time>
      </trkpt>
      <trkpt lat="44.7148" lon="5.81785">
        <ele>2262</ele>
        <time>2019-09-12T11:19:19+02:00</time>
      </trkpt>
      <trkpt lat="44.71486" lon="5.81792">
        <ele>2264</ele>
        <time>2019-09-12T11:19:34+02:00</time>
      </trkpt>
      <trkpt lat="44.71488" lon="5.81795">
        <ele>2265</ele>
        <time>2019-09-12T11:19:52+02:00</time>
      </trkpt>
      <trkpt lat="44.71496" lon="5.81796">
        <ele>2269</ele>
        <time>2019-09-12T11:20:09+02:00</time>
      </trkpt>
      <trkpt lat="44.715" lon="5.81792">
        <ele>2271</ele>
        <time>2019-09-12T11:20:22+02:00</time>
      </trkpt>
      <trkpt lat="44.71502" lon="5.8179">
        <ele>2272</ele>
        <time>2019-09-12T11:20:27+02:00</time>
      </trkpt>
      <trkpt lat="44.71508" lon="5.81783">
        <ele>2274</ele>
        <time>2019-09-12T11:20:44+02:00</time>
      </trkpt>
      <trkpt lat="44.71516" lon="5.81778">
        <ele>2277</ele>
        <time>2019-09-12T11:21:02+02:00</time>
      </trkpt>
      <trkpt lat="44.71515" lon="5.81778">
        <ele>2277</ele>
        <time>2019-09-12T11:21:03+02:00</time>
      </trkpt>
      <trkpt lat="44.71519" lon="5.81775">
        <ele>2278</ele>
        <time>2019-09-12T11:21:15+02:00</time>
      </trkpt>
      <trkpt lat="44.71523" lon="5.8176">
        <ele>2279</ele>
        <time>2019-09-12T11:21:30+02:00</time>
      </trkpt>
      <trkpt lat="44.71527" lon="5.81751">
        <ele>2280</ele>
        <time>2019-09-12T11:21:45+02:00</time>
      </trkpt>
      <trkpt lat="44.71532" lon="5.81737">
        <ele>2281</ele>
        <time>2019-09-12T11:22:00+02:00</time>
      </trkpt>
      <trkpt lat="44.71533" lon="5.81736">
        <ele>2282</ele>
        <time>2019-09-12T11:22:21+02:00</time>
      </trkpt>
      <trkpt lat="44.71535" lon="5.81734">
        <ele>2282</ele>
        <time>2019-09-12T11:22:45+02:00</time>
      </trkpt>
      <trkpt lat="44.71541" lon="5.81717">
        <ele>2284</ele>
        <time>2019-09-12T11:23:03+02:00</time>
      </trkpt>
      <trkpt lat="44.71549" lon="5.81708">
        <ele>2286</ele>
        <time>2019-09-12T11:23:20+02:00</time>
      </trkpt>
      <trkpt lat="44.71558" lon="5.81699">
        <ele>2290</ele>
        <time>2019-09-12T11:23:40+02:00</time>
      </trkpt>
      <trkpt lat="44.71563" lon="5.81693">
        <ele>2293</ele>
        <time>2019-09-12T11:23:56+02:00</time>
      </trkpt>
      <trkpt lat="44.71569" lon="5.81685">
        <ele>2297</ele>
        <time>2019-09-12T11:24:16+02:00</time>
      </trkpt>
      <trkpt lat="44.71574" lon="5.81677">
        <ele>2301</ele>
        <time>2019-09-12T11:24:37+02:00</time>
      </trkpt>
      <trkpt lat="44.71578" lon="5.81668">
        <ele>2305</ele>
        <time>2019-09-12T11:24:54+02:00</time>
      </trkpt>
      <trkpt lat="44.71582" lon="5.81658">
        <ele>2310</ele>
        <time>2019-09-12T11:25:11+02:00</time>
      </trkpt>
      <trkpt lat="44.71584" lon="5.81655">
        <ele>2312</ele>
        <time>2019-09-12T11:25:33+02:00</time>
      </trkpt>
      <trkpt lat="44.71582" lon="5.81641">
        <ele>2313</ele>
        <time>2019-09-12T11:25:48+02:00</time>
      </trkpt>
      <trkpt lat="44.71578" lon="5.8163">
        <ele>2314</ele>
        <time>2019-09-12T11:26:03+02:00</time>
      </trkpt>
      <trkpt lat="44.71575" lon="5.81626">
        <ele>2314</ele>
        <time>2019-09-12T11:26:20+02:00</time>
      </trkpt>
      <trkpt lat="44.71578" lon="5.81623">
        <ele>2317</ele>
        <time>2019-09-12T11:26:41+02:00</time>
      </trkpt>
      <trkpt lat="44.71578" lon="5.81615">
        <ele>2319</ele>
        <time>2019-09-12T11:26:56+02:00</time>
      </trkpt>
      <trkpt lat="44.71575" lon="5.81611">
        <ele>2318</ele>
        <time>2019-09-12T11:27:10+02:00</time>
      </trkpt>
      <trkpt lat="44.71572" lon="5.81598">
        <ele>2321</ele>
        <time>2019-09-12T11:27:27+02:00</time>
      </trkpt>
      <trkpt lat="44.7157" lon="5.8159">
        <ele>2323</ele>
        <time>2019-09-12T11:27:43+02:00</time>
      </trkpt>
      <trkpt lat="44.71565" lon="5.81577">
        <ele>2324</ele>
        <time>2019-09-12T11:27:58+02:00</time>
      </trkpt>
      <trkpt lat="44.71564" lon="5.81573">
        <ele>2324</ele>
        <time>2019-09-12T11:28:16+02:00</time>
      </trkpt>
      <trkpt lat="44.71562" lon="5.81555">
        <ele>2328</ele>
        <time>2019-09-12T11:28:34+02:00</time>
      </trkpt>
      <trkpt lat="44.71559" lon="5.81543">
        <ele>2328</ele>
        <time>2019-09-12T11:28:49+02:00</time>
      </trkpt>
      <trkpt lat="44.71559" lon="5.81537">
        <ele>2329</ele>
        <time>2019-09-12T11:29:01+02:00</time>
      </trkpt>
      <trkpt lat="44.71561" lon="5.81527">
        <ele>2332</ele>
        <time>2019-09-12T11:29:20+02:00</time>
      </trkpt>
      <trkpt lat="44.71561" lon="5.81519">
        <ele>2334</ele>
        <time>2019-09-12T11:29:36+02:00</time>
      </trkpt>
      <trkpt lat="44.71565" lon="5.81513">
        <ele>2337</ele>
        <time>2019-09-12T11:29:54+02:00</time>
      </trkpt>
      <trkpt lat="44.71568" lon="5.81512">
        <ele>2338</ele>
        <time>2019-09-12T11:30:13+02:00</time>
      </trkpt>
      <trkpt lat="44.71571" lon="5.81508">
        <ele>2339</ele>
        <time>2019-09-12T11:30:28+02:00</time>
      </trkpt>
      <trkpt lat="44.71578" lon="5.81501">
        <ele>2342</ele>
        <time>2019-09-12T11:30:43+02:00</time>
      </trkpt>
      <trkpt lat="44.71583" lon="5.81496">
        <ele>2343</ele>
        <time>2019-09-12T11:30:59+02:00</time>
      </trkpt>
      <trkpt lat="44.71589" lon="5.8149">
        <ele>2345</ele>
        <time>2019-09-12T11:31:18+02:00</time>
      </trkpt>
      <trkpt lat="44.71596" lon="5.81486">
        <ele>2347</ele>
        <time>2019-09-12T11:31:33+02:00</time>
      </trkpt>
      <trkpt lat="44.71604" lon="5.8148">
        <ele>2350</ele>
        <time>2019-09-12T11:31:52+02:00</time>
      </trkpt>
      <trkpt lat="44.71614" lon="5.81478">
        <ele>2353</ele>
        <time>2019-09-12T11:32:11+02:00</time>
      </trkpt>
      <trkpt lat="44.71621" lon="5.81476">
        <ele>2355</ele>
        <time>2019-09-12T11:32:28+02:00</time>
      </trkpt>
      <trkpt lat="44.71629" lon="5.81473">
        <ele>2357</ele>
        <time>2019-09-12T11:32:45+02:00</time>
      </trkpt>
      <trkpt lat="44.71637" lon="5.81476">
        <ele>2360</ele>
        <time>2019-09-12T11:33:04+02:00</time>
      </trkpt>
      <trkpt lat="44.71645" lon="5.81468">
        <ele>2361</ele>
        <time>2019-09-12T11:33:19+02:00</time>
      </trkpt>
      <trkpt lat="44.71646" lon="5.81467">
        <ele>2362</ele>
        <time>2019-09-12T11:33:33+02:00</time>
      </trkpt>
      <trkpt lat="44.7165" lon="5.81469">
        <ele>2362</ele>
        <time>2019-09-12T11:33:45+02:00</time>
      </trkpt>
      <trkpt lat="44.71654" lon="5.81479">
        <ele>2364</ele>
        <time>2019-09-12T11:33:59+02:00</time>
      </trkpt>
      <trkpt lat="44.71654" lon="5.81488">
        <ele>2365</ele>
        <time>2019-09-12T11:34:16+02:00</time>
      </trkpt>
      <trkpt lat="44.71654" lon="5.81488">
        <ele>2365</ele>
        <time>2019-09-12T11:34:39+02:00</time>
      </trkpt>
      <trkpt lat="44.71648" lon="5.81509">
        <ele>2368</ele>
        <time>2019-09-12T11:34:57+02:00</time>
      </trkpt>
      <trkpt lat="44.71646" lon="5.81522">
        <ele>2371</ele>
        <time>2019-09-12T11:35:11+02:00</time>
      </trkpt>
      <trkpt lat="44.71645" lon="5.81536">
        <ele>2374</ele>
        <time>2019-09-12T11:35:27+02:00</time>
      </trkpt>
      <trkpt lat="44.71641" lon="5.81546">
        <ele>2375</ele>
        <time>2019-09-12T11:35:44+02:00</time>
      </trkpt>
      <trkpt lat="44.71639" lon="5.81559">
        <ele>2376</ele>
        <time>2019-09-12T11:36:02+02:00</time>
      </trkpt>
      <trkpt lat="44.71636" lon="5.81562">
        <ele>2374</ele>
        <time>2019-09-12T11:36:17+02:00</time>
      </trkpt>
      <trkpt lat="44.71634" lon="5.8156">
        <ele>2373</ele>
        <time>2019-09-12T11:36:34+02:00</time>
      </trkpt>
      <trkpt lat="44.71633" lon="5.81561">
        <ele>2373</ele>
        <time>2019-09-12T11:36:55+02:00</time>
      </trkpt>
      <trkpt lat="44.71633" lon="5.8156">
        <ele>2373</ele>
        <time>2019-09-12T11:37:24+02:00</time>
      </trkpt>
      <trkpt lat="44.71633" lon="5.81559">
        <ele>2373</ele>
        <time>2019-09-12T11:37:48+02:00</time>
      </trkpt>
      <trkpt lat="44.71641" lon="5.81555">
        <ele>2378</ele>
        <time>2019-09-12T11:38:03+02:00</time>
      </trkpt>
      <trkpt lat="44.71649" lon="5.81551">
        <ele>2380</ele>
        <time>2019-09-12T11:38:18+02:00</time>
      </trkpt>
      <trkpt lat="44.71656" lon="5.81549">
        <ele>2383</ele>
        <time>2019-09-12T11:38:34+02:00</time>
      </trkpt>
      <trkpt lat="44.71662" lon="5.81546">
        <ele>2385</ele>
        <time>2019-09-12T11:38:48+02:00</time>
      </trkpt>
      <trkpt lat="44.71667" lon="5.81545">
        <ele>2386</ele>
        <time>2019-09-12T11:39:03+02:00</time>
      </trkpt>
      <trkpt lat="44.71672" lon="5.81543">
        <ele>2388</ele>
        <time>2019-09-12T11:39:18+02:00</time>
      </trkpt>
      <trkpt lat="44.71678" lon="5.81545">
        <ele>2391</ele>
        <time>2019-09-12T11:39:35+02:00</time>
      </trkpt>
      <trkpt lat="44.71683" lon="5.81543">
        <ele>2393</ele>
        <time>2019-09-12T11:39:54+02:00</time>
      </trkpt>
      <trkpt lat="44.7169" lon="5.81536">
        <ele>2394</ele>
        <time>2019-09-12T11:40:12+02:00</time>
      </trkpt>
      <trkpt lat="44.71696" lon="5.81532">
        <ele>2395</ele>
        <time>2019-09-12T11:40:27+02:00</time>
      </trkpt>
      <trkpt lat="44.71699" lon="5.81533">
        <ele>2396</ele>
        <time>2019-09-12T11:40:44+02:00</time>
      </trkpt>
      <trkpt lat="44.717" lon="5.81533">
        <ele>2396</ele>
        <time>2019-09-12T11:41:00+02:00</time>
      </trkpt>
      <trkpt lat="44.71703" lon="5.81538">
        <ele>2399</ele>
        <time>2019-09-12T11:41:19+02:00</time>
      </trkpt>
      <trkpt lat="44.71708" lon="5.81543">
        <ele>2402</ele>
        <time>2019-09-12T11:41:37+02:00</time>
      </trkpt>
      <trkpt lat="44.7171" lon="5.81546">
        <ele>2403</ele>
        <time>2019-09-12T11:42:02+02:00</time>
      </trkpt>
      <trkpt lat="44.71717" lon="5.81547">
        <ele>2405</ele>
        <time>2019-09-12T11:42:18+02:00</time>
      </trkpt>
      <trkpt lat="44.71723" lon="5.81548">
        <ele>2408</ele>
        <time>2019-09-12T11:42:32+02:00</time>
      </trkpt>
      <trkpt lat="44.71726" lon="5.81549">
        <ele>2409</ele>
        <time>2019-09-12T11:42:53+02:00</time>
      </trkpt>
      <trkpt lat="44.71726" lon="5.81547">
        <ele>2409</ele>
        <time>2019-09-12T11:43:15+02:00</time>
      </trkpt>
      <trkpt lat="44.7173" lon="5.81548">
        <ele>2411</ele>
        <time>2019-09-12T11:43:32+02:00</time>
      </trkpt>
      <trkpt lat="44.7174" lon="5.81549">
        <ele>2415</ele>
        <time>2019-09-12T11:43:51+02:00</time>
      </trkpt>
      <trkpt lat="44.71747" lon="5.81548">
        <ele>2418</ele>
        <time>2019-09-12T11:44:07+02:00</time>
      </trkpt>
      <trkpt lat="44.71752" lon="5.81549">
        <ele>2421</ele>
        <time>2019-09-12T11:44:23+02:00</time>
      </trkpt>
      <trkpt lat="44.71755" lon="5.81548">
        <ele>2423</ele>
        <time>2019-09-12T11:44:41+02:00</time>
      </trkpt>
      <trkpt lat="44.71762" lon="5.81547">
        <ele>2426</ele>
        <time>2019-09-12T11:44:57+02:00</time>
      </trkpt>
      <trkpt lat="44.71766" lon="5.81548">
        <ele>2429</ele>
        <time>2019-09-12T11:45:11+02:00</time>
      </trkpt>
      <trkpt lat="44.7177" lon="5.81548">
        <ele>2431</ele>
        <time>2019-09-12T11:45:29+02:00</time>
      </trkpt>
      <trkpt lat="44.71771" lon="5.81549">
        <ele>2433</ele>
        <time>2019-09-12T11:45:46+02:00</time>
      </trkpt>
      <trkpt lat="44.71777" lon="5.8155">
        <ele>2436</ele>
        <time>2019-09-12T11:46:03+02:00</time>
      </trkpt>
      <trkpt lat="44.71779" lon="5.81554">
        <ele>2439</ele>
        <time>2019-09-12T11:46:21+02:00</time>
      </trkpt>
      <trkpt lat="44.71783" lon="5.81553">
        <ele>2441</ele>
        <time>2019-09-12T11:46:37+02:00</time>
      </trkpt>
      <trkpt lat="44.71788" lon="5.81553">
        <ele>2443</ele>
        <time>2019-09-12T11:46:53+02:00</time>
      </trkpt>
      <trkpt lat="44.71789" lon="5.81556">
        <ele>2445</ele>
        <time>2019-09-12T11:47:09+02:00</time>
      </trkpt>
      <trkpt lat="44.71793" lon="5.81557">
        <ele>2447</ele>
        <time>2019-09-12T11:47:24+02:00</time>
      </trkpt>
      <trkpt lat="44.71792" lon="5.81562">
        <ele>2447</ele>
        <time>2019-09-12T11:47:37+02:00</time>
      </trkpt>
      <trkpt lat="44.71794" lon="5.81565">
        <ele>2448</ele>
        <time>2019-09-12T11:47:55+02:00</time>
      </trkpt>
      <trkpt lat="44.71797" lon="5.81565">
        <ele>2450</ele>
        <time>2019-09-12T11:48:17+02:00</time>
      </trkpt>
      <trkpt lat="44.71797" lon="5.81566">
        <ele>2450</ele>
        <time>2019-09-12T11:48:38+02:00</time>
      </trkpt>
      <trkpt lat="44.71801" lon="5.81568">
        <ele>2453</ele>
        <time>2019-09-12T11:48:55+02:00</time>
      </trkpt>
      <trkpt lat="44.71805" lon="5.81574">
        <ele>2457</ele>
        <time>2019-09-12T11:49:11+02:00</time>
      </trkpt>
      <trkpt lat="44.71806" lon="5.81574">
        <ele>2457</ele>
        <time>2019-09-12T11:49:29+02:00</time>
      </trkpt>
      <trkpt lat="44.71805" lon="5.81577">
        <ele>2457</ele>
        <time>2019-09-12T11:49:53+02:00</time>
      </trkpt>
      <trkpt lat="44.71812" lon="5.81578">
        <ele>2462</ele>
        <time>2019-09-12T11:50:10+02:00</time>
      </trkpt>
      <trkpt lat="44.71817" lon="5.81579">
        <ele>2465</ele>
        <time>2019-09-12T11:50:25+02:00</time>
      </trkpt>
      <trkpt lat="44.71821" lon="5.8158">
        <ele>2467</ele>
        <time>2019-09-12T11:50:39+02:00</time>
      </trkpt>
      <trkpt lat="44.71824" lon="5.81582">
        <ele>2469</ele>
        <time>2019-09-12T11:50:56+02:00</time>
      </trkpt>
      <trkpt lat="44.7183" lon="5.8158">
        <ele>2472</ele>
        <time>2019-09-12T11:51:12+02:00</time>
      </trkpt>
      <trkpt lat="44.71836" lon="5.8158">
        <ele>2476</ele>
        <time>2019-09-12T11:51:26+02:00</time>
      </trkpt>
      <trkpt lat="44.71839" lon="5.81582">
        <ele>2477</ele>
        <time>2019-09-12T11:51:43+02:00</time>
      </trkpt>
      <trkpt lat="44.71844" lon="5.8159">
        <ele>2478</ele>
        <time>2019-09-12T11:51:59+02:00</time>
      </trkpt>
      <trkpt lat="44.71844" lon="5.81592">
        <ele>2477</ele>
        <time>2019-09-12T11:52:15+02:00</time>
      </trkpt>
      <trkpt lat="44.71846" lon="5.81589">
        <ele>2479</ele>
        <time>2019-09-12T11:52:35+02:00</time>
      </trkpt>
      <trkpt lat="44.71845" lon="5.81589">
        <ele>2479</ele>
        <time>2019-09-12T11:52:38+02:00</time>
      </trkpt>
      <trkpt lat="44.71844" lon="5.8159">
        <ele>2478</ele>
        <time>2019-09-12T11:52:55+02:00</time>
      </trkpt>
      <trkpt lat="44.71844" lon="5.81588">
        <ele>2478</ele>
        <time>2019-09-12T11:53:00+02:00</time>
      </trkpt>
      <trkpt lat="44.71843" lon="5.8159">
        <ele>2477</ele>
        <time>2019-09-12T11:54:17+02:00</time>
      </trkpt>
      <trkpt lat="44.71841" lon="5.8159">
        <ele>2476</ele>
        <time>2019-09-12T11:54:18+02:00</time>
      </trkpt>
      <trkpt lat="44.71849" lon="5.81591">
        <ele>2480</ele>
        <time>2019-09-12T11:54:36+02:00</time>
      </trkpt>
      <trkpt lat="44.71856" lon="5.81593">
        <ele>2483</ele>
        <time>2019-09-12T11:54:48+02:00</time>
      </trkpt>
      <trkpt lat="44.71867" lon="5.81594">
        <ele>2488</ele>
        <time>2019-09-12T11:55:06+02:00</time>
      </trkpt>
      <trkpt lat="44.7187" lon="5.81596">
        <ele>2489</ele>
        <time>2019-09-12T11:55:19+02:00</time>
      </trkpt>
      <trkpt lat="44.71872" lon="5.81596">
        <ele>2490</ele>
        <time>2019-09-12T11:55:52+02:00</time>
      </trkpt>
      <trkpt lat="44.71871" lon="5.81597">
        <ele>2489</ele>
        <time>2019-09-12T11:56:27+02:00</time>
      </trkpt>
      <trkpt lat="44.71871" lon="5.81597">
        <ele>2489</ele>
        <time>2019-09-12T11:57:12+02:00</time>
      </trkpt>
      <trkpt lat="44.71871" lon="5.81594">
        <ele>2490</ele>
        <time>2019-09-12T11:57:57+02:00</time>
      </trkpt>
      <trkpt lat="44.71872" lon="5.81594">
        <ele>2490</ele>
        <time>2019-09-12T11:58:29+02:00</time>
      </trkpt>
      <trkpt lat="44.71872" lon="5.81596">
        <ele>2490</ele>
        <time>2019-09-12T11:59:06+02:00</time>
      </trkpt>
      <trkpt lat="44.71871" lon="5.81594">
        <ele>2490</ele>
        <time>2019-09-12T11:59:50+02:00</time>
      </trkpt>
      <trkpt lat="44.71872" lon="5.81593">
        <ele>2490</ele>
        <time>2019-09-12T12:00:22+02:00</time>
      </trkpt>
      <trkpt lat="44.71872" lon="5.81593">
        <ele>2490</ele>
        <time>2019-09-12T12:00:48+02:00</time>
      </trkpt>
      <trkpt lat="44.71872" lon="5.81594">
        <ele>2490</ele>
        <time>2019-09-12T12:01:12+02:00</time>
      </trkpt>
      <trkpt lat="44.71872" lon="5.81594">
        <ele>2490</ele>
        <time>2019-09-12T12:01:30+02:00</time>
      </trkpt>
      <trkpt lat="44.71873" lon="5.81591">
        <ele>2491</ele>
        <time>2019-09-12T12:01:48+02:00</time>
      </trkpt>
      <trkpt lat="44.71875" lon="5.81589">
        <ele>2492</ele>
        <time>2019-09-12T12:02:12+02:00</time>
      </trkpt>
      <trkpt lat="44.71872" lon="5.81591">
        <ele>2491</ele>
        <time>2019-09-12T12:02:28+02:00</time>
      </trkpt>
      <trkpt lat="44.71872" lon="5.81594">
        <ele>2490</ele>
        <time>2019-09-12T12:02:48+02:00</time>
      </trkpt>
      <trkpt lat="44.71874" lon="5.81585">
        <ele>2492</ele>
        <time>2019-09-12T12:03:08+02:00</time>
      </trkpt>
      <trkpt lat="44.71879" lon="5.81572">
        <ele>2495</ele>
        <time>2019-09-12T12:03:24+02:00</time>
      </trkpt>
      <trkpt lat="44.71884" lon="5.81564">
        <ele>2497</ele>
        <time>2019-09-12T12:03:40+02:00</time>
      </trkpt>
      <trkpt lat="44.71887" lon="5.81557">
        <ele>2498</ele>
        <time>2019-09-12T12:03:57+02:00</time>
      </trkpt>
      <trkpt lat="44.71889" lon="5.81552">
        <ele>2499</ele>
        <time>2019-09-12T12:04:12+02:00</time>
      </trkpt>
      <trkpt lat="44.71891" lon="5.81549">
        <ele>2500</ele>
        <time>2019-09-12T12:04:29+02:00</time>
      </trkpt>
      <trkpt lat="44.71894" lon="5.81547">
        <ele>2502</ele>
        <time>2019-09-12T12:04:46+02:00</time>
      </trkpt>
      <trkpt lat="44.71898" lon="5.81548">
        <ele>2504</ele>
        <time>2019-09-12T12:05:02+02:00</time>
      </trkpt>
      <trkpt lat="44.71901" lon="5.8155">
        <ele>2506</ele>
        <time>2019-09-12T12:05:18+02:00</time>
      </trkpt>
      <trkpt lat="44.71903" lon="5.81552">
        <ele>2508</ele>
        <time>2019-09-12T12:05:34+02:00</time>
      </trkpt>
      <trkpt lat="44.71907" lon="5.81554">
        <ele>2510</ele>
        <time>2019-09-12T12:05:51+02:00</time>
      </trkpt>
      <trkpt lat="44.71912" lon="5.81554">
        <ele>2513</ele>
        <time>2019-09-12T12:06:10+02:00</time>
      </trkpt>
      <trkpt lat="44.71915" lon="5.81554">
        <ele>2515</ele>
        <time>2019-09-12T12:06:26+02:00</time>
      </trkpt>
      <trkpt lat="44.71918" lon="5.81554">
        <ele>2517</ele>
        <time>2019-09-12T12:06:42+02:00</time>
      </trkpt>
      <trkpt lat="44.71922" lon="5.81555">
        <ele>2520</ele>
        <time>2019-09-12T12:06:58+02:00</time>
      </trkpt>
      <trkpt lat="44.71925" lon="5.81557">
        <ele>2522</ele>
        <time>2019-09-12T12:07:15+02:00</time>
      </trkpt>
      <trkpt lat="44.71928" lon="5.81556">
        <ele>2524</ele>
        <time>2019-09-12T12:07:29+02:00</time>
      </trkpt>
      <trkpt lat="44.7193" lon="5.81557">
        <ele>2525</ele>
        <time>2019-09-12T12:07:45+02:00</time>
      </trkpt>
      <trkpt lat="44.71933" lon="5.81557">
        <ele>2527</ele>
        <time>2019-09-12T12:08:00+02:00</time>
      </trkpt>
      <trkpt lat="44.71936" lon="5.81557">
        <ele>2530</ele>
        <time>2019-09-12T12:08:17+02:00</time>
      </trkpt>
      <trkpt lat="44.71939" lon="5.81559">
        <ele>2532</ele>
        <time>2019-09-12T12:08:34+02:00</time>
      </trkpt>
      <trkpt lat="44.71942" lon="5.81562">
        <ele>2533</ele>
        <time>2019-09-12T12:08:49+02:00</time>
      </trkpt>
      <trkpt lat="44.71942" lon="5.81565">
        <ele>2533</ele>
        <time>2019-09-12T12:09:09+02:00</time>
      </trkpt>
      <trkpt lat="44.71947" lon="5.81564">
        <ele>2536</ele>
        <time>2019-09-12T12:09:26+02:00</time>
      </trkpt>
      <trkpt lat="44.7195" lon="5.81565">
        <ele>2538</ele>
        <time>2019-09-12T12:09:39+02:00</time>
      </trkpt>
      <trkpt lat="44.71953" lon="5.81567">
        <ele>2540</ele>
        <time>2019-09-12T12:09:54+02:00</time>
      </trkpt>
      <trkpt lat="44.71952" lon="5.81565">
        <ele>2540</ele>
        <time>2019-09-12T12:10:16+02:00</time>
      </trkpt>
      <trkpt lat="44.71955" lon="5.81568">
        <ele>2542</ele>
        <time>2019-09-12T12:10:38+02:00</time>
      </trkpt>
      <trkpt lat="44.7196" lon="5.81573">
        <ele>2545</ele>
        <time>2019-09-12T12:10:50+02:00</time>
      </trkpt>
      <trkpt lat="44.71965" lon="5.81579">
        <ele>2548</ele>
        <time>2019-09-12T12:11:05+02:00</time>
      </trkpt>
      <trkpt lat="44.71966" lon="5.81578">
        <ele>2549</ele>
        <time>2019-09-12T12:11:29+02:00</time>
      </trkpt>
      <trkpt lat="44.7197" lon="5.81583">
        <ele>2551</ele>
        <time>2019-09-12T12:11:42+02:00</time>
      </trkpt>
      <trkpt lat="44.71976" lon="5.81585">
        <ele>2556</ele>
        <time>2019-09-12T12:11:58+02:00</time>
      </trkpt>
      <trkpt lat="44.71977" lon="5.81588">
        <ele>2556</ele>
        <time>2019-09-12T12:12:16+02:00</time>
      </trkpt>
      <trkpt lat="44.71981" lon="5.81592">
        <ele>2559</ele>
        <time>2019-09-12T12:12:32+02:00</time>
      </trkpt>
      <trkpt lat="44.71985" lon="5.81595">
        <ele>2561</ele>
        <time>2019-09-12T12:12:47+02:00</time>
      </trkpt>
      <trkpt lat="44.71987" lon="5.81593">
        <ele>2564</ele>
        <time>2019-09-12T12:13:04+02:00</time>
      </trkpt>
      <trkpt lat="44.71989" lon="5.81592">
        <ele>2566</ele>
        <time>2019-09-12T12:13:20+02:00</time>
      </trkpt>
      <trkpt lat="44.71993" lon="5.81593">
        <ele>2568</ele>
        <time>2019-09-12T12:13:37+02:00</time>
      </trkpt>
      <trkpt lat="44.71992" lon="5.81595">
        <ele>2567</ele>
        <time>2019-09-12T12:13:54+02:00</time>
      </trkpt>
      <trkpt lat="44.71991" lon="5.81595">
        <ele>2566</ele>
        <time>2019-09-12T12:14:14+02:00</time>
      </trkpt>
      <trkpt lat="44.71992" lon="5.81597">
        <ele>2567</ele>
        <time>2019-09-12T12:14:20+02:00</time>
      </trkpt>
      <trkpt lat="44.71993" lon="5.81596">
        <ele>2568</ele>
        <time>2019-09-12T12:14:26+02:00</time>
      </trkpt>
      <trkpt lat="44.71996" lon="5.81597">
        <ele>2570</ele>
        <time>2019-09-12T12:14:53+02:00</time>
      </trkpt>
      <trkpt lat="44.71995" lon="5.81598">
        <ele>2569</ele>
        <time>2019-09-12T12:15:18+02:00</time>
      </trkpt>
      <trkpt lat="44.71995" lon="5.81598">
        <ele>2569</ele>
        <time>2019-09-12T12:15:23+02:00</time>
      </trkpt>
      <trkpt lat="44.71995" lon="5.81597">
        <ele>2569</ele>
        <time>2019-09-12T12:15:26+02:00</time>
      </trkpt>
      <trkpt lat="44.71995" lon="5.81594">
        <ele>2570</ele>
        <time>2019-09-12T12:16:05+02:00</time>
      </trkpt>
      <trkpt lat="44.71994" lon="5.81595">
        <ele>2569</ele>
        <time>2019-09-12T12:16:23+02:00</time>
      </trkpt>
      <trkpt lat="44.71993" lon="5.81596">
        <ele>2568</ele>
        <time>2019-09-12T12:16:44+02:00</time>
      </trkpt>
      <trkpt lat="44.71994" lon="5.81595">
        <ele>2569</ele>
        <time>2019-09-12T12:17:06+02:00</time>
      </trkpt>
      <trkpt lat="44.71995" lon="5.81597">
        <ele>2569</ele>
        <time>2019-09-12T12:17:24+02:00</time>
      </trkpt>
      <trkpt lat="44.71997" lon="5.81598">
        <ele>2571</ele>
        <time>2019-09-12T12:17:40+02:00</time>
      </trkpt>
      <trkpt lat="44.71997" lon="5.81596">
        <ele>2571</ele>
        <time>2019-09-12T12:18:02+02:00</time>
      </trkpt>
      <trkpt lat="44.71999" lon="5.81595">
        <ele>2573</ele>
        <time>2019-09-12T12:18:16+02:00</time>
      </trkpt>
      <trkpt lat="44.72001" lon="5.81596">
        <ele>2575</ele>
        <time>2019-09-12T12:18:32+02:00</time>
      </trkpt>
      <trkpt lat="44.72003" lon="5.81597">
        <ele>2577</ele>
        <time>2019-09-12T12:18:44+02:00</time>
      </trkpt>
      <trkpt lat="44.72002" lon="5.81597">
        <ele>2576</ele>
        <time>2019-09-12T12:18:57+02:00</time>
      </trkpt>
      <trkpt lat="44.72003" lon="5.81599">
        <ele>2576</ele>
        <time>2019-09-12T12:19:10+02:00</time>
      </trkpt>
      <trkpt lat="44.72003" lon="5.81599">
        <ele>2576</ele>
        <time>2019-09-12T12:19:12+02:00</time>
      </trkpt>
      <trkpt lat="44.72003" lon="5.816">
        <ele>2576</ele>
        <time>2019-09-12T12:19:30+02:00</time>
      </trkpt>
      <trkpt lat="44.72005" lon="5.816">
        <ele>2578</ele>
        <time>2019-09-12T12:19:45+02:00</time>
      </trkpt>
      <trkpt lat="44.72005" lon="5.81601">
        <ele>2578</ele>
        <time>2019-09-12T12:20:01+02:00</time>
      </trkpt>
      <trkpt lat="44.72006" lon="5.81605">
        <ele>2578</ele>
        <time>2019-09-12T12:20:17+02:00</time>
      </trkpt>
      <trkpt lat="44.72009" lon="5.81607">
        <ele>2581</ele>
        <time>2019-09-12T12:20:33+02:00</time>
      </trkpt>
      <trkpt lat="44.72013" lon="5.81609">
        <ele>2585</ele>
        <time>2019-09-12T12:20:52+02:00</time>
      </trkpt>
      <trkpt lat="44.72012" lon="5.81608">
        <ele>2583</ele>
        <time>2019-09-12T12:21:16+02:00</time>
      </trkpt>
      <trkpt lat="44.72013" lon="5.81608">
        <ele>2585</ele>
        <time>2019-09-12T12:21:31+02:00</time>
      </trkpt>
      <trkpt lat="44.72014" lon="5.81607">
        <ele>2586</ele>
        <time>2019-09-12T12:21:51+02:00</time>
      </trkpt>
      <trkpt lat="44.72015" lon="5.81606">
        <ele>2587</ele>
        <time>2019-09-12T12:22:15+02:00</time>
      </trkpt>
      <trkpt lat="44.72015" lon="5.81606">
        <ele>2587</ele>
        <time>2019-09-12T12:22:33+02:00</time>
      </trkpt>
      <trkpt lat="44.72016" lon="5.81606">
        <ele>2588</ele>
        <time>2019-09-12T12:22:52+02:00</time>
      </trkpt>
      <trkpt lat="44.7202" lon="5.81608">
        <ele>2592</ele>
        <time>2019-09-12T12:23:05+02:00</time>
      </trkpt>
      <trkpt lat="44.72023" lon="5.81609">
        <ele>2595</ele>
        <time>2019-09-12T12:23:17+02:00</time>
      </trkpt>
      <trkpt lat="44.72026" lon="5.81608">
        <ele>2599</ele>
        <time>2019-09-12T12:23:35+02:00</time>
      </trkpt>
      <trkpt lat="44.72026" lon="5.81606">
        <ele>2598</ele>
        <time>2019-09-12T12:23:50+02:00</time>
      </trkpt>
      <trkpt lat="44.72027" lon="5.81605">
        <ele>2600</ele>
        <time>2019-09-12T12:24:04+02:00</time>
      </trkpt>
      <trkpt lat="44.72029" lon="5.81604">
        <ele>2603</ele>
        <time>2019-09-12T12:24:21+02:00</time>
      </trkpt>
      <trkpt lat="44.7203" lon="5.81605">
        <ele>2603</ele>
        <time>2019-09-12T12:24:41+02:00</time>
      </trkpt>
      <trkpt lat="44.7203" lon="5.81606">
        <ele>2603</ele>
        <time>2019-09-12T12:25:04+02:00</time>
      </trkpt>
      <trkpt lat="44.7203" lon="5.81606">
        <ele>2603</ele>
        <time>2019-09-12T12:25:25+02:00</time>
      </trkpt>
      <trkpt lat="44.7203" lon="5.81603">
        <ele>2603</ele>
        <time>2019-09-12T12:25:47+02:00</time>
      </trkpt>
      <trkpt lat="44.72032" lon="5.81603">
        <ele>2605</ele>
        <time>2019-09-12T12:26:07+02:00</time>
      </trkpt>
      <trkpt lat="44.72033" lon="5.81604">
        <ele>2606</ele>
        <time>2019-09-12T12:26:23+02:00</time>
      </trkpt>
      <trkpt lat="44.72033" lon="5.81606">
        <ele>2607</ele>
        <time>2019-09-12T12:26:38+02:00</time>
      </trkpt>
      <trkpt lat="44.72035" lon="5.81605">
        <ele>2609</ele>
        <time>2019-09-12T12:26:52+02:00</time>
      </trkpt>
      <trkpt lat="44.72036" lon="5.81606">
        <ele>2609</ele>
        <time>2019-09-12T12:27:09+02:00</time>
      </trkpt>
      <trkpt lat="44.72038" lon="5.81606">
        <ele>2612</ele>
        <time>2019-09-12T12:27:23+02:00</time>
      </trkpt>
      <trkpt lat="44.72038" lon="5.81606">
        <ele>2612</ele>
        <time>2019-09-12T12:27:36+02:00</time>
      </trkpt>
      <trkpt lat="44.72041" lon="5.81607">
        <ele>2614</ele>
        <time>2019-09-12T12:27:50+02:00</time>
      </trkpt>
      <trkpt lat="44.72042" lon="5.81607">
        <ele>2616</ele>
        <time>2019-09-12T12:28:05+02:00</time>
      </trkpt>
      <trkpt lat="44.72041" lon="5.81607">
        <ele>2615</ele>
        <time>2019-09-12T12:28:24+02:00</time>
      </trkpt>
      <trkpt lat="44.7204" lon="5.81608">
        <ele>2613</ele>
        <time>2019-09-12T12:28:40+02:00</time>
      </trkpt>
      <trkpt lat="44.72038" lon="5.8161">
        <ele>2611</ele>
        <time>2019-09-12T12:28:52+02:00</time>
      </trkpt>
      <trkpt lat="44.72038" lon="5.81611">
        <ele>2611</ele>
        <time>2019-09-12T12:28:58+02:00</time>
      </trkpt>
      <trkpt lat="44.72039" lon="5.81615">
        <ele>2611</ele>
        <time>2019-09-12T12:29:15+02:00</time>
      </trkpt>
      <trkpt lat="44.72038" lon="5.81615">
        <ele>2611</ele>
        <time>2019-09-12T12:29:41+02:00</time>
      </trkpt>
      <trkpt lat="44.72037" lon="5.81615">
        <ele>2610</ele>
        <time>2019-09-12T12:30:06+02:00</time>
      </trkpt>
      <trkpt lat="44.72038" lon="5.81615">
        <ele>2611</ele>
        <time>2019-09-12T12:30:23+02:00</time>
      </trkpt>
      <trkpt lat="44.72034" lon="5.81615">
        <ele>2607</ele>
        <time>2019-09-12T12:30:53+02:00</time>
      </trkpt>
      <trkpt lat="44.72038" lon="5.81616">
        <ele>2610</ele>
        <time>2019-09-12T12:31:19+02:00</time>
      </trkpt>
      <trkpt lat="44.72034" lon="5.8162">
        <ele>2605</ele>
        <time>2019-09-12T12:31:35+02:00</time>
      </trkpt>
      <trkpt lat="44.72037" lon="5.81621">
        <ele>2608</ele>
        <time>2019-09-12T12:31:56+02:00</time>
      </trkpt>
      <trkpt lat="44.72034" lon="5.81624">
        <ele>2605</ele>
        <time>2019-09-12T12:32:08+02:00</time>
      </trkpt>
      <trkpt lat="44.72035" lon="5.8162">
        <ele>2606</ele>
        <time>2019-09-12T12:32:27+02:00</time>
      </trkpt>
      <trkpt lat="44.72037" lon="5.81619">
        <ele>2609</ele>
        <time>2019-09-12T12:32:39+02:00</time>
      </trkpt>
      <trkpt lat="44.72039" lon="5.81614">
        <ele>2612</ele>
        <time>2019-09-12T12:32:49+02:00</time>
      </trkpt>
      <trkpt lat="44.72039" lon="5.81614">
        <ele>2612</ele>
        <time>2019-09-12T12:33:13+02:00</time>
      </trkpt>
      <trkpt lat="44.72039" lon="5.81614">
        <ele>2612</ele>
        <time>2019-09-12T12:33:37+02:00</time>
      </trkpt>
      <trkpt lat="44.7204" lon="5.81617">
        <ele>2612</ele>
        <time>2019-09-12T12:33:56+02:00</time>
      </trkpt>
      <trkpt lat="44.72041" lon="5.81619">
        <ele>2613</ele>
        <time>2019-09-12T12:34:23+02:00</time>
      </trkpt>
      <trkpt lat="44.72039" lon="5.81616">
        <ele>2611</ele>
        <time>2019-09-12T12:34:48+02:00</time>
      </trkpt>
      <trkpt lat="44.72037" lon="5.81617">
        <ele>2609</ele>
        <time>2019-09-12T12:35:04+02:00</time>
      </trkpt>
      <trkpt lat="44.72034" lon="5.81621">
        <ele>2605</ele>
        <time>2019-09-12T12:35:17+02:00</time>
      </trkpt>
      <trkpt lat="44.72034" lon="5.81622">
        <ele>2605</ele>
        <time>2019-09-12T12:35:33+02:00</time>
      </trkpt>
      <trkpt lat="44.72033" lon="5.81621">
        <ele>2604</ele>
        <time>2019-09-12T12:36:00+02:00</time>
      </trkpt>
      <trkpt lat="44.72034" lon="5.81622">
        <ele>2605</ele>
        <time>2019-09-12T12:36:21+02:00</time>
      </trkpt>
      <trkpt lat="44.72034" lon="5.81623">
        <ele>2605</ele>
        <time>2019-09-12T12:36:43+02:00</time>
      </trkpt>
      <trkpt lat="44.72035" lon="5.81623">
        <ele>2606</ele>
        <time>2019-09-12T12:37:00+02:00</time>
      </trkpt>
      <trkpt lat="44.72037" lon="5.81623">
        <ele>2609</ele>
        <time>2019-09-12T12:37:22+02:00</time>
      </trkpt>
      <trkpt lat="44.72039" lon="5.81624">
        <ele>2610</ele>
        <time>2019-09-12T12:37:46+02:00</time>
      </trkpt>
      <trkpt lat="44.72039" lon="5.81623">
        <ele>2611</ele>
        <time>2019-09-12T12:37:50+02:00</time>
      </trkpt>
      <trkpt lat="44.72037" lon="5.81625">
        <ele>2608</ele>
        <time>2019-09-12T12:38:07+02:00</time>
      </trkpt>
      <trkpt lat="44.72038" lon="5.81623">
        <ele>2609</ele>
        <time>2019-09-12T12:38:25+02:00</time>
      </trkpt>
      <trkpt lat="44.72039" lon="5.81624">
        <ele>2611</ele>
        <time>2019-09-12T12:38:55+02:00</time>
      </trkpt>
      <trkpt lat="44.72039" lon="5.81624">
        <ele>2611</ele>
        <time>2019-09-12T12:39:19+02:00</time>
      </trkpt>
      <trkpt lat="44.72038" lon="5.81624">
        <ele>2609</ele>
        <time>2019-09-12T12:39:44+02:00</time>
      </trkpt>
      <trkpt lat="44.72038" lon="5.81624">
        <ele>2609</ele>
        <time>2019-09-12T12:40:10+02:00</time>
      </trkpt>
      <trkpt lat="44.72041" lon="5.81624">
        <ele>2613</ele>
        <time>2019-09-12T12:40:34+02:00</time>
      </trkpt>
      <trkpt lat="44.72041" lon="5.81624">
        <ele>2613</ele>
        <time>2019-09-12T12:40:36+02:00</time>
      </trkpt>
      <trkpt lat="44.72043" lon="5.81622">
        <ele>2614</ele>
        <time>2019-09-12T12:40:55+02:00</time>
      </trkpt>
      <trkpt lat="44.72043" lon="5.81625">
        <ele>2615</ele>
        <time>2019-09-12T12:41:11+02:00</time>
      </trkpt>
      <trkpt lat="44.72046" lon="5.81625">
        <ele>2618</ele>
        <time>2019-09-12T12:41:27+02:00</time>
      </trkpt>
      <trkpt lat="44.72049" lon="5.81629">
        <ele>2620</ele>
        <time>2019-09-12T12:41:44+02:00</time>
      </trkpt>
      <trkpt lat="44.72052" lon="5.8163">
        <ele>2624</ele>
        <time>2019-09-12T12:42:00+02:00</time>
      </trkpt>
      <trkpt lat="44.72054" lon="5.81628">
        <ele>2625</ele>
        <time>2019-09-12T12:42:18+02:00</time>
      </trkpt>
      <trkpt lat="44.72054" lon="5.81627">
        <ele>2626</ele>
        <time>2019-09-12T12:42:40+02:00</time>
      </trkpt>
      <trkpt lat="44.72055" lon="5.81628">
        <ele>2627</ele>
        <time>2019-09-12T12:43:01+02:00</time>
      </trkpt>
      <trkpt lat="44.72058" lon="5.8163">
        <ele>2629</ele>
        <time>2019-09-12T12:43:19+02:00</time>
      </trkpt>
      <trkpt lat="44.72059" lon="5.81633">
        <ele>2630</ele>
        <time>2019-09-12T12:43:40+02:00</time>
      </trkpt>
      <trkpt lat="44.72064" lon="5.81634">
        <ele>2634</ele>
        <time>2019-09-12T12:43:59+02:00</time>
      </trkpt>
      <trkpt lat="44.72066" lon="5.81636">
        <ele>2636</ele>
        <time>2019-09-12T12:44:15+02:00</time>
      </trkpt>
      <trkpt lat="44.7207" lon="5.81639">
        <ele>2639</ele>
        <time>2019-09-12T12:44:32+02:00</time>
      </trkpt>
      <trkpt lat="44.72073" lon="5.8164">
        <ele>2640</ele>
        <time>2019-09-12T12:44:49+02:00</time>
      </trkpt>
      <trkpt lat="44.72073" lon="5.81644">
        <ele>2640</ele>
        <time>2019-09-12T12:45:08+02:00</time>
      </trkpt>
      <trkpt lat="44.72071" lon="5.81644">
        <ele>2638</ele>
        <time>2019-09-12T12:45:35+02:00</time>
      </trkpt>
      <trkpt lat="44.72072" lon="5.81644">
        <ele>2639</ele>
        <time>2019-09-12T12:45:55+02:00</time>
      </trkpt>
      <trkpt lat="44.72072" lon="5.81645">
        <ele>2639</ele>
        <time>2019-09-12T12:45:56+02:00</time>
      </trkpt>
      <trkpt lat="44.72073" lon="5.81645">
        <ele>2639</ele>
        <time>2019-09-12T12:45:58+02:00</time>
      </trkpt>
      <trkpt lat="44.72073" lon="5.81644">
        <ele>2640</ele>
        <time>2019-09-12T12:46:23+02:00</time>
      </trkpt>
      <trkpt lat="44.72075" lon="5.81643">
        <ele>2642</ele>
        <time>2019-09-12T12:46:45+02:00</time>
      </trkpt>
      <trkpt lat="44.72076" lon="5.81647">
        <ele>2641</ele>
        <time>2019-09-12T12:47:10+02:00</time>
      </trkpt>
      <trkpt lat="44.72076" lon="5.8165">
        <ele>2640</ele>
        <time>2019-09-12T12:47:31+02:00</time>
      </trkpt>
      <trkpt lat="44.72076" lon="5.81652">
        <ele>2639</ele>
        <time>2019-09-12T12:47:38+02:00</time>
      </trkpt>
      <trkpt lat="44.72077" lon="5.81652">
        <ele>2640</ele>
        <time>2019-09-12T12:48:02+02:00</time>
      </trkpt>
      <trkpt lat="44.72078" lon="5.81651">
        <ele>2641</ele>
        <time>2019-09-12T12:48:32+02:00</time>
      </trkpt>
      <trkpt lat="44.72077" lon="5.81651">
        <ele>2641</ele>
        <time>2019-09-12T12:48:57+02:00</time>
      </trkpt>
      <trkpt lat="44.72076" lon="5.81651">
        <ele>2640</ele>
        <time>2019-09-12T12:49:28+02:00</time>
      </trkpt>
      <trkpt lat="44.72076" lon="5.81651">
        <ele>2640</ele>
        <time>2019-09-12T12:50:01+02:00</time>
      </trkpt>
      <trkpt lat="44.72076" lon="5.81652">
        <ele>2640</ele>
        <time>2019-09-12T12:50:28+02:00</time>
      </trkpt>
      <trkpt lat="44.72076" lon="5.81651">
        <ele>2640</ele>
        <time>2019-09-12T12:50:58+02:00</time>
      </trkpt>
      <trkpt lat="44.72076" lon="5.81652">
        <ele>2640</ele>
        <time>2019-09-12T12:51:16+02:00</time>
      </trkpt>
      <trkpt lat="44.72075" lon="5.81651">
        <ele>2639</ele>
        <time>2019-09-12T12:51:32+02:00</time>
      </trkpt>
      <trkpt lat="44.72075" lon="5.8165">
        <ele>2640</ele>
        <time>2019-09-12T12:51:53+02:00</time>
      </trkpt>
      <trkpt lat="44.72076" lon="5.81654">
        <ele>2639</ele>
        <time>2019-09-12T12:52:09+02:00</time>
      </trkpt>
      <trkpt lat="44.7208" lon="5.8166">
        <ele>2641</ele>
        <time>2019-09-12T12:52:26+02:00</time>
      </trkpt>
      <trkpt lat="44.72082" lon="5.81661">
        <ele>2642</ele>
        <time>2019-09-12T12:52:32+02:00</time>
      </trkpt>
      <trkpt lat="44.72087" lon="5.81668">
        <ele>2642</ele>
        <time>2019-09-12T12:52:50+02:00</time>
      </trkpt>
      <trkpt lat="44.72087" lon="5.81666">
        <ele>2642</ele>
        <time>2019-09-12T12:53:11+02:00</time>
      </trkpt>
      <trkpt lat="44.72088" lon="5.81665">
        <ele>2643</ele>
        <time>2019-09-12T12:53:32+02:00</time>
      </trkpt>
      <trkpt lat="44.72087" lon="5.81664">
        <ele>2643</ele>
        <time>2019-09-12T12:53:56+02:00</time>
      </trkpt>
      <trkpt lat="44.72086" lon="5.81663">
        <ele>2643</ele>
        <time>2019-09-12T12:54:28+02:00</time>
      </trkpt>
      <trkpt lat="44.72088" lon="5.81663">
        <ele>2643</ele>
        <time>2019-09-12T12:54:50+02:00</time>
      </trkpt>
      <trkpt lat="44.72089" lon="5.81657">
        <ele>2646</ele>
        <time>2019-09-12T12:55:09+02:00</time>
      </trkpt>
      <trkpt lat="44.72092" lon="5.81654">
        <ele>2647</ele>
        <time>2019-09-12T12:55:25+02:00</time>
      </trkpt>
      <trkpt lat="44.72093" lon="5.81654">
        <ele>2647</ele>
        <time>2019-09-12T12:55:28+02:00</time>
      </trkpt>
      <trkpt lat="44.72096" lon="5.81652">
        <ele>2648</ele>
        <time>2019-09-12T12:55:44+02:00</time>
      </trkpt>
      <trkpt lat="44.72095" lon="5.81651">
        <ele>2649</ele>
        <time>2019-09-12T12:56:04+02:00</time>
      </trkpt>
      <trkpt lat="44.72097" lon="5.81646">
        <ele>2651</ele>
        <time>2019-09-12T12:56:19+02:00</time>
      </trkpt>
      <trkpt lat="44.72097" lon="5.81642">
        <ele>2653</ele>
        <time>2019-09-12T12:56:34+02:00</time>
      </trkpt>
      <trkpt lat="44.72097" lon="5.81636">
        <ele>2655</ele>
        <time>2019-09-12T12:56:50+02:00</time>
      </trkpt>
      <trkpt lat="44.72098" lon="5.81635">
        <ele>2656</ele>
        <time>2019-09-12T12:57:10+02:00</time>
      </trkpt>
      <trkpt lat="44.72098" lon="5.81631">
        <ele>2658</ele>
        <time>2019-09-12T12:57:26+02:00</time>
      </trkpt>
      <trkpt lat="44.72099" lon="5.81627">
        <ele>2660</ele>
        <time>2019-09-12T12:57:41+02:00</time>
      </trkpt>
      <trkpt lat="44.72098" lon="5.81624">
        <ele>2661</ele>
        <time>2019-09-12T12:57:57+02:00</time>
      </trkpt>
      <trkpt lat="44.721" lon="5.81623">
        <ele>2663</ele>
        <time>2019-09-12T12:58:12+02:00</time>
      </trkpt>
      <trkpt lat="44.72101" lon="5.81623">
        <ele>2663</ele>
        <time>2019-09-12T12:58:31+02:00</time>
      </trkpt>
      <trkpt lat="44.72102" lon="5.81618">
        <ele>2666</ele>
        <time>2019-09-12T12:58:48+02:00</time>
      </trkpt>
      <trkpt lat="44.72104" lon="5.8162">
        <ele>2666</ele>
        <time>2019-09-12T12:59:04+02:00</time>
      </trkpt>
      <trkpt lat="44.72107" lon="5.8162">
        <ele>2668</ele>
        <time>2019-09-12T12:59:23+02:00</time>
      </trkpt>
      <trkpt lat="44.7211" lon="5.81621">
        <ele>2670</ele>
        <time>2019-09-12T12:59:38+02:00</time>
      </trkpt>
      <trkpt lat="44.72111" lon="5.81616">
        <ele>2673</ele>
        <time>2019-09-12T12:59:55+02:00</time>
      </trkpt>
      <trkpt lat="44.72111" lon="5.81611">
        <ele>2677</ele>
        <time>2019-09-12T13:00:09+02:00</time>
      </trkpt>
      <trkpt lat="44.72111" lon="5.81608">
        <ele>2679</ele>
        <time>2019-09-12T13:00:29+02:00</time>
      </trkpt>
      <trkpt lat="44.72113" lon="5.81607">
        <ele>2680</ele>
        <time>2019-09-12T13:00:45+02:00</time>
      </trkpt>
      <trkpt lat="44.72111" lon="5.81606">
        <ele>2679</ele>
        <time>2019-09-12T13:01:08+02:00</time>
      </trkpt>
      <trkpt lat="44.72111" lon="5.81606">
        <ele>2679</ele>
        <time>2019-09-12T13:01:27+02:00</time>
      </trkpt>
      <trkpt lat="44.72114" lon="5.81608">
        <ele>2680</ele>
        <time>2019-09-12T13:01:42+02:00</time>
      </trkpt>
      <trkpt lat="44.72115" lon="5.81606">
        <ele>2681</ele>
        <time>2019-09-12T13:01:57+02:00</time>
      </trkpt>
      <trkpt lat="44.72115" lon="5.81603">
        <ele>2682</ele>
        <time>2019-09-12T13:02:12+02:00</time>
      </trkpt>
      <trkpt lat="44.72116" lon="5.81601">
        <ele>2683</ele>
        <time>2019-09-12T13:02:28+02:00</time>
      </trkpt>
      <trkpt lat="44.7212" lon="5.81604">
        <ele>2683</ele>
        <time>2019-09-12T13:02:44+02:00</time>
      </trkpt>
      <trkpt lat="44.72118" lon="5.81599">
        <ele>2685</ele>
        <time>2019-09-12T13:03:03+02:00</time>
      </trkpt>
      <trkpt lat="44.72121" lon="5.816">
        <ele>2686</ele>
        <time>2019-09-12T13:03:21+02:00</time>
      </trkpt>
      <trkpt lat="44.72122" lon="5.81599">
        <ele>2687</ele>
        <time>2019-09-12T13:03:41+02:00</time>
      </trkpt>
      <trkpt lat="44.72124" lon="5.81596">
        <ele>2689</ele>
        <time>2019-09-12T13:04:00+02:00</time>
      </trkpt>
      <trkpt lat="44.72124" lon="5.81595">
        <ele>2690</ele>
        <time>2019-09-12T13:04:19+02:00</time>
      </trkpt>
      <trkpt lat="44.72122" lon="5.81595">
        <ele>2689</ele>
        <time>2019-09-12T13:04:41+02:00</time>
      </trkpt>
      <trkpt lat="44.72126" lon="5.81593">
        <ele>2691</ele>
        <time>2019-09-12T13:04:59+02:00</time>
      </trkpt>
      <trkpt lat="44.72128" lon="5.81591">
        <ele>2693</ele>
        <time>2019-09-12T13:05:17+02:00</time>
      </trkpt>
      <trkpt lat="44.72128" lon="5.8159">
        <ele>2694</ele>
        <time>2019-09-12T13:05:35+02:00</time>
      </trkpt>
      <trkpt lat="44.72128" lon="5.8159">
        <ele>2694</ele>
        <time>2019-09-12T13:06:01+02:00</time>
      </trkpt>
      <trkpt lat="44.72128" lon="5.81589">
        <ele>2694</ele>
        <time>2019-09-12T13:06:28+02:00</time>
      </trkpt>
      <trkpt lat="44.72126" lon="5.81589">
        <ele>2693</ele>
        <time>2019-09-12T13:06:56+02:00</time>
      </trkpt>
      <trkpt lat="44.7213" lon="5.81588">
        <ele>2696</ele>
        <time>2019-09-12T13:07:16+02:00</time>
      </trkpt>
      <trkpt lat="44.72129" lon="5.81585">
        <ele>2696</ele>
        <time>2019-09-12T13:07:36+02:00</time>
      </trkpt>
      <trkpt lat="44.72128" lon="5.81588">
        <ele>2695</ele>
        <time>2019-09-12T13:08:00+02:00</time>
      </trkpt>
      <trkpt lat="44.7213" lon="5.81589">
        <ele>2695</ele>
        <time>2019-09-12T13:08:28+02:00</time>
      </trkpt>
      <trkpt lat="44.72132" lon="5.81588">
        <ele>2696</ele>
        <time>2019-09-12T13:08:48+02:00</time>
      </trkpt>
      <trkpt lat="44.72131" lon="5.81589">
        <ele>2696</ele>
        <time>2019-09-12T13:09:07+02:00</time>
      </trkpt>
      <trkpt lat="44.72132" lon="5.81587">
        <ele>2697</ele>
        <time>2019-09-12T13:09:26+02:00</time>
      </trkpt>
      <trkpt lat="44.72129" lon="5.81585">
        <ele>2697</ele>
        <time>2019-09-12T13:09:49+02:00</time>
      </trkpt>
      <trkpt lat="44.72127" lon="5.81584">
        <ele>2696</ele>
        <time>2019-09-12T13:10:07+02:00</time>
      </trkpt>
      <trkpt lat="44.72127" lon="5.81582">
        <ele>2697</ele>
        <time>2019-09-12T13:10:23+02:00</time>
      </trkpt>
      <trkpt lat="44.72127" lon="5.81582">
        <ele>2697</ele>
        <time>2019-09-12T13:10:40+02:00</time>
      </trkpt>
      <trkpt lat="44.72126" lon="5.81581">
        <ele>2697</ele>
        <time>2019-09-12T13:11:04+02:00</time>
      </trkpt>
      <trkpt lat="44.72124" lon="5.81581">
        <ele>2696</ele>
        <time>2019-09-12T13:11:25+02:00</time>
      </trkpt>
      <trkpt lat="44.72125" lon="5.81581">
        <ele>2697</ele>
        <time>2019-09-12T13:11:52+02:00</time>
      </trkpt>
      <trkpt lat="44.72124" lon="5.8158">
        <ele>2697</ele>
        <time>2019-09-12T13:12:20+02:00</time>
      </trkpt>
      <trkpt lat="44.72125" lon="5.81579">
        <ele>2698</ele>
        <time>2019-09-12T13:12:43+02:00</time>
      </trkpt>
      <trkpt lat="44.72125" lon="5.8158">
        <ele>2697</ele>
        <time>2019-09-12T13:13:14+02:00</time>
      </trkpt>
      <trkpt lat="44.72124" lon="5.81578">
        <ele>2697</ele>
        <time>2019-09-12T13:13:31+02:00</time>
      </trkpt>
      <trkpt lat="44.72125" lon="5.81575">
        <ele>2700</ele>
        <time>2019-09-12T13:13:51+02:00</time>
      </trkpt>
      <trkpt lat="44.72124" lon="5.81575">
        <ele>2699</ele>
        <time>2019-09-12T13:14:13+02:00</time>
      </trkpt>
      <trkpt lat="44.72125" lon="5.81574">
        <ele>2700</ele>
        <time>2019-09-12T13:14:35+02:00</time>
      </trkpt>
      <trkpt lat="44.72127" lon="5.81577">
        <ele>2700</ele>
        <time>2019-09-12T13:14:47+02:00</time>
      </trkpt>
      <trkpt lat="44.7213" lon="5.81573">
        <ele>2703</ele>
        <time>2019-09-12T13:15:03+02:00</time>
      </trkpt>
      <trkpt lat="44.72133" lon="5.81573">
        <ele>2706</ele>
        <time>2019-09-12T13:15:18+02:00</time>
      </trkpt>
      <trkpt lat="44.72135" lon="5.81571">
        <ele>2708</ele>
        <time>2019-09-12T13:15:35+02:00</time>
      </trkpt>
      <trkpt lat="44.72135" lon="5.81565">
        <ele>2711</ele>
        <time>2019-09-12T13:15:51+02:00</time>
      </trkpt>
      <trkpt lat="44.72135" lon="5.81563">
        <ele>2713</ele>
        <time>2019-09-12T13:16:15+02:00</time>
      </trkpt>
      <trkpt lat="44.72134" lon="5.81557">
        <ele>2716</ele>
        <time>2019-09-12T13:16:31+02:00</time>
      </trkpt>
      <trkpt lat="44.72133" lon="5.81553">
        <ele>2717</ele>
        <time>2019-09-12T13:16:48+02:00</time>
      </trkpt>
      <trkpt lat="44.72134" lon="5.81555">
        <ele>2717</ele>
        <time>2019-09-12T13:17:07+02:00</time>
      </trkpt>
      <trkpt lat="44.72134" lon="5.81555">
        <ele>2718</ele>
        <time>2019-09-12T13:17:27+02:00</time>
      </trkpt>
      <trkpt lat="44.72137" lon="5.81553">
        <ele>2720</ele>
        <time>2019-09-12T13:17:47+02:00</time>
      </trkpt>
      <trkpt lat="44.72138" lon="5.81549">
        <ele>2724</ele>
        <time>2019-09-12T13:18:09+02:00</time>
      </trkpt>
      <trkpt lat="44.72137" lon="5.81548">
        <ele>2723</ele>
        <time>2019-09-12T13:18:24+02:00</time>
      </trkpt>
      <trkpt lat="44.72138" lon="5.81547">
        <ele>2725</ele>
        <time>2019-09-12T13:18:39+02:00</time>
      </trkpt>
      <trkpt lat="44.72133" lon="5.81542">
        <ele>2724</ele>
        <time>2019-09-12T13:18:52+02:00</time>
      </trkpt>
      <trkpt lat="44.72135" lon="5.81537">
        <ele>2728</ele>
        <time>2019-09-12T13:19:08+02:00</time>
      </trkpt>
      <trkpt lat="44.7214" lon="5.81533">
        <ele>2735</ele>
        <time>2019-09-12T13:19:24+02:00</time>
      </trkpt>
      <trkpt lat="44.72143" lon="5.81528">
        <ele>2739</ele>
        <time>2019-09-12T13:19:39+02:00</time>
      </trkpt>
      <trkpt lat="44.72144" lon="5.81524">
        <ele>2740</ele>
        <time>2019-09-12T13:19:56+02:00</time>
      </trkpt>
      <trkpt lat="44.72145" lon="5.81525">
        <ele>2741</ele>
        <time>2019-09-12T13:20:19+02:00</time>
      </trkpt>
      <trkpt lat="44.72146" lon="5.81524">
        <ele>2741</ele>
        <time>2019-09-12T13:20:35+02:00</time>
      </trkpt>
      <trkpt lat="44.72149" lon="5.81525">
        <ele>2742</ele>
        <time>2019-09-12T13:20:49+02:00</time>
      </trkpt>
      <trkpt lat="44.72156" lon="5.81521">
        <ele>2745</ele>
        <time>2019-09-12T13:21:05+02:00</time>
      </trkpt>
      <trkpt lat="44.72161" lon="5.8152">
        <ele>2747</ele>
        <time>2019-09-12T13:21:19+02:00</time>
      </trkpt>
      <trkpt lat="44.72164" lon="5.81516">
        <ele>2749</ele>
        <time>2019-09-12T13:21:35+02:00</time>
      </trkpt>
      <trkpt lat="44.72171" lon="5.81508">
        <ele>2751</ele>
        <time>2019-09-12T13:21:50+02:00</time>
      </trkpt>
      <trkpt lat="44.72173" lon="5.815">
        <ele>2752</ele>
        <time>2019-09-12T13:22:06+02:00</time>
      </trkpt>
      <trkpt lat="44.72174" lon="5.81498">
        <ele>2750</ele>
        <time>2019-09-12T13:22:21+02:00</time>
      </trkpt>
      <trkpt lat="44.72175" lon="5.8149">
        <ele>2745</ele>
        <time>2019-09-12T13:22:35+02:00</time>
      </trkpt>
      <trkpt lat="44.72177" lon="5.81481">
        <ele>2736</ele>
        <time>2019-09-12T13:22:48+02:00</time>
      </trkpt>
      <trkpt lat="44.72178" lon="5.8148">
        <ele>2734</ele>
        <time>2019-09-12T13:23:01+02:00</time>
      </trkpt>
      <trkpt lat="44.72179" lon="5.8148">
        <ele>2733</ele>
        <time>2019-09-12T13:23:17+02:00</time>
      </trkpt>
      <trkpt lat="44.72182" lon="5.8148">
        <ele>2731</ele>
        <time>2019-09-12T13:23:35+02:00</time>
      </trkpt>
      <trkpt lat="44.72182" lon="5.8148">
        <ele>2731</ele>
        <time>2019-09-12T13:23:58+02:00</time>
      </trkpt>
      <trkpt lat="44.72182" lon="5.81479">
        <ele>2730</ele>
        <time>2019-09-12T13:24:17+02:00</time>
      </trkpt>
      <trkpt lat="44.72181" lon="5.81479">
        <ele>2731</ele>
        <time>2019-09-12T13:24:33+02:00</time>
      </trkpt>
      <trkpt lat="44.7218" lon="5.81478">
        <ele>2731</ele>
        <time>2019-09-12T13:24:48+02:00</time>
      </trkpt>
      <trkpt lat="44.72181" lon="5.81479">
        <ele>2730</ele>
        <time>2019-09-12T13:25:08+02:00</time>
      </trkpt>
      <trkpt lat="44.72175" lon="5.81481">
        <ele>2737</ele>
        <time>2019-09-12T13:25:32+02:00</time>
      </trkpt>
      <trkpt lat="44.72169" lon="5.8148">
        <ele>2743</ele>
        <time>2019-09-12T13:25:48+02:00</time>
      </trkpt>
      <trkpt lat="44.72163" lon="5.81482">
        <ele>2743</ele>
        <time>2019-09-12T13:26:02+02:00</time>
      </trkpt>
      <trkpt lat="44.72165" lon="5.81483">
        <ele>2745</ele>
        <time>2019-09-12T13:26:08+02:00</time>
      </trkpt>
      <trkpt lat="44.72177" lon="5.81483">
        <ele>2738</ele>
        <time>2019-09-12T13:26:25+02:00</time>
      </trkpt>
      <trkpt lat="44.72178" lon="5.81482">
        <ele>2736</ele>
        <time>2019-09-12T13:26:27+02:00</time>
      </trkpt>
      <trkpt lat="44.72183" lon="5.81479">
        <ele>2729</ele>
        <time>2019-09-12T13:26:40+02:00</time>
      </trkpt>
      <trkpt lat="44.72188" lon="5.81479">
        <ele>2725</ele>
        <time>2019-09-12T13:26:45+02:00</time>
      </trkpt>
      <trkpt lat="44.72195" lon="5.81479">
        <ele>2718</ele>
        <time>2019-09-12T13:27:02+02:00</time>
      </trkpt>
      <trkpt lat="44.72191" lon="5.81481">
        <ele>2725</ele>
        <time>2019-09-12T13:27:20+02:00</time>
      </trkpt>
      <trkpt lat="44.72192" lon="5.8148">
        <ele>2723</ele>
        <time>2019-09-12T13:27:53+02:00</time>
      </trkpt>
      <trkpt lat="44.72189" lon="5.81481">
        <ele>2726</ele>
        <time>2019-09-12T13:28:05+02:00</time>
      </trkpt>
      <trkpt lat="44.72178" lon="5.81483">
        <ele>2736</ele>
        <time>2019-09-12T13:28:22+02:00</time>
      </trkpt>
      <trkpt lat="44.72178" lon="5.81484">
        <ele>2738</ele>
        <time>2019-09-12T13:29:06+02:00</time>
      </trkpt>
      <trkpt lat="44.72179" lon="5.81484">
        <ele>2737</ele>
        <time>2019-09-12T13:29:35+02:00</time>
      </trkpt>
      <trkpt lat="44.7218" lon="5.81481">
        <ele>2733</ele>
        <time>2019-09-12T13:29:50+02:00</time>
      </trkpt>
      <trkpt lat="44.72181" lon="5.81479">
        <ele>2731</ele>
        <time>2019-09-12T13:30:06+02:00</time>
      </trkpt>
      <trkpt lat="44.72181" lon="5.81479">
        <ele>2731</ele>
        <time>2019-09-12T13:30:23+02:00</time>
      </trkpt>
      <trkpt lat="44.7218" lon="5.81479">
        <ele>2733</ele>
        <time>2019-09-12T13:30:44+02:00</time>
      </trkpt>
      <trkpt lat="44.72178" lon="5.81481">
        <ele>2735</ele>
        <time>2019-09-12T13:31:02+02:00</time>
      </trkpt>
      <trkpt lat="44.72175" lon="5.81485">
        <ele>2741</ele>
        <time>2019-09-12T13:31:21+02:00</time>
      </trkpt>
      <trkpt lat="44.72171" lon="5.81485">
        <ele>2743</ele>
        <time>2019-09-12T13:31:25+02:00</time>
      </trkpt>
      <trkpt lat="44.72164" lon="5.81486">
        <ele>2746</ele>
        <time>2019-09-12T13:31:32+02:00</time>
      </trkpt>
      <trkpt lat="44.72156" lon="5.81486">
        <ele>2742</ele>
        <time>2019-09-12T13:31:49+02:00</time>
      </trkpt>
      <trkpt lat="44.72161" lon="5.81485">
        <ele>2744</ele>
        <time>2019-09-12T13:32:09+02:00</time>
      </trkpt>
      <trkpt lat="44.72165" lon="5.81485">
        <ele>2746</ele>
        <time>2019-09-12T13:32:26+02:00</time>
      </trkpt>
      <trkpt lat="44.72167" lon="5.81486">
        <ele>2747</ele>
        <time>2019-09-12T13:32:52+02:00</time>
      </trkpt>
      <trkpt lat="44.72171" lon="5.81486">
        <ele>2744</ele>
        <time>2019-09-12T13:33:06+02:00</time>
      </trkpt>
      <trkpt lat="44.72174" lon="5.81482">
        <ele>2739</ele>
        <time>2019-09-12T13:33:21+02:00</time>
      </trkpt>
      <trkpt lat="44.72178" lon="5.81479">
        <ele>2733</ele>
        <time>2019-09-12T13:33:41+02:00</time>
      </trkpt>
      <trkpt lat="44.72176" lon="5.81482">
        <ele>2739</ele>
        <time>2019-09-12T13:33:59+02:00</time>
      </trkpt>
      <trkpt lat="44.72175" lon="5.81487">
        <ele>2742</ele>
        <time>2019-09-12T13:34:13+02:00</time>
      </trkpt>
      <trkpt lat="44.72177" lon="5.81485">
        <ele>2740</ele>
        <time>2019-09-12T13:34:36+02:00</time>
      </trkpt>
      <trkpt lat="44.72176" lon="5.81486">
        <ele>2742</ele>
        <time>2019-09-12T13:35:09+02:00</time>
      </trkpt>
      <trkpt lat="44.72173" lon="5.8149">
        <ele>2746</ele>
        <time>2019-09-12T13:35:29+02:00</time>
      </trkpt>
      <trkpt lat="44.72171" lon="5.81501">
        <ele>2752</ele>
        <time>2019-09-12T13:35:45+02:00</time>
      </trkpt>
      <trkpt lat="44.72168" lon="5.8151">
        <ele>2751</ele>
        <time>2019-09-12T13:35:59+02:00</time>
      </trkpt>
      <trkpt lat="44.72161" lon="5.81518">
        <ele>2747</ele>
        <time>2019-09-12T13:36:18+02:00</time>
      </trkpt>
      <trkpt lat="44.72159" lon="5.8152">
        <ele>2746</ele>
        <time>2019-09-12T13:36:36+02:00</time>
      </trkpt>
      <trkpt lat="44.72158" lon="5.8152">
        <ele>2746</ele>
        <time>2019-09-12T13:37:02+02:00</time>
      </trkpt>
      <trkpt lat="44.72155" lon="5.81521">
        <ele>2745</ele>
        <time>2019-09-12T13:37:17+02:00</time>
      </trkpt>
      <trkpt lat="44.72151" lon="5.81523">
        <ele>2743</ele>
        <time>2019-09-12T13:37:30+02:00</time>
      </trkpt>
      <trkpt lat="44.72146" lon="5.81524">
        <ele>2741</ele>
        <time>2019-09-12T13:37:46+02:00</time>
      </trkpt>
      <trkpt lat="44.72143" lon="5.81523">
        <ele>2740</ele>
        <time>2019-09-12T13:38:01+02:00</time>
      </trkpt>
      <trkpt lat="44.72142" lon="5.81526">
        <ele>2739</ele>
        <time>2019-09-12T13:38:15+02:00</time>
      </trkpt>
      <trkpt lat="44.72138" lon="5.81531">
        <ele>2735</ele>
        <time>2019-09-12T13:38:33+02:00</time>
      </trkpt>
      <trkpt lat="44.72135" lon="5.81535">
        <ele>2729</ele>
        <time>2019-09-12T13:38:48+02:00</time>
      </trkpt>
      <trkpt lat="44.72131" lon="5.81541">
        <ele>2722</ele>
        <time>2019-09-12T13:39:02+02:00</time>
      </trkpt>
      <trkpt lat="44.72134" lon="5.81544">
        <ele>2723</ele>
        <time>2019-09-12T13:39:18+02:00</time>
      </trkpt>
      <trkpt lat="44.72135" lon="5.81542">
        <ele>2725</ele>
        <time>2019-09-12T13:39:40+02:00</time>
      </trkpt>
      <trkpt lat="44.72136" lon="5.81544">
        <ele>2725</ele>
        <time>2019-09-12T13:39:56+02:00</time>
      </trkpt>
      <trkpt lat="44.72134" lon="5.81547">
        <ele>2722</ele>
        <time>2019-09-12T13:40:11+02:00</time>
      </trkpt>
      <trkpt lat="44.72134" lon="5.81548">
        <ele>2721</ele>
        <time>2019-09-12T13:40:30+02:00</time>
      </trkpt>
      <trkpt lat="44.72133" lon="5.81551">
        <ele>2718</ele>
        <time>2019-09-12T13:40:45+02:00</time>
      </trkpt>
      <trkpt lat="44.72134" lon="5.81552">
        <ele>2719</ele>
        <time>2019-09-12T13:41:02+02:00</time>
      </trkpt>
      <trkpt lat="44.72134" lon="5.81552">
        <ele>2719</ele>
        <time>2019-09-12T13:41:20+02:00</time>
      </trkpt>
      <trkpt lat="44.72133" lon="5.81552">
        <ele>2717</ele>
        <time>2019-09-12T13:41:41+02:00</time>
      </trkpt>
      <trkpt lat="44.72134" lon="5.81559">
        <ele>2714</ele>
        <time>2019-09-12T13:41:55+02:00</time>
      </trkpt>
      <trkpt lat="44.72133" lon="5.81563">
        <ele>2712</ele>
        <time>2019-09-12T13:42:09+02:00</time>
      </trkpt>
      <trkpt lat="44.72132" lon="5.81565">
        <ele>2709</ele>
        <time>2019-09-12T13:42:21+02:00</time>
      </trkpt>
      <trkpt lat="44.72131" lon="5.81568">
        <ele>2707</ele>
        <time>2019-09-12T13:42:50+02:00</time>
      </trkpt>
      <trkpt lat="44.72131" lon="5.81572">
        <ele>2705</ele>
        <time>2019-09-12T13:43:05+02:00</time>
      </trkpt>
      <trkpt lat="44.72131" lon="5.81572">
        <ele>2705</ele>
        <time>2019-09-12T13:43:20+02:00</time>
      </trkpt>
      <trkpt lat="44.72128" lon="5.81575">
        <ele>2701</ele>
        <time>2019-09-12T13:43:39+02:00</time>
      </trkpt>
      <trkpt lat="44.72127" lon="5.81576">
        <ele>2700</ele>
        <time>2019-09-12T13:44:00+02:00</time>
      </trkpt>
      <trkpt lat="44.72127" lon="5.81574">
        <ele>2701</ele>
        <time>2019-09-12T13:44:20+02:00</time>
      </trkpt>
      <trkpt lat="44.72129" lon="5.81574">
        <ele>2702</ele>
        <time>2019-09-12T13:44:39+02:00</time>
      </trkpt>
      <trkpt lat="44.72129" lon="5.81574">
        <ele>2702</ele>
        <time>2019-09-12T13:44:41+02:00</time>
      </trkpt>
      <trkpt lat="44.72129" lon="5.81574">
        <ele>2702</ele>
        <time>2019-09-12T13:44:46+02:00</time>
      </trkpt>
      <trkpt lat="44.72127" lon="5.81574">
        <ele>2701</ele>
        <time>2019-09-12T14:01:08+02:00</time>
      </trkpt>
      <trkpt lat="44.72127" lon="5.81575">
        <ele>2701</ele>
        <time>2019-09-12T14:01:10+02:00</time>
      </trkpt>
      <trkpt lat="44.72126" lon="5.81576">
        <ele>2699</ele>
        <time>2019-09-12T14:01:37+02:00</time>
      </trkpt>
      <trkpt lat="44.72126" lon="5.81577">
        <ele>2699</ele>
        <time>2019-09-12T14:01:43+02:00</time>
      </trkpt>
      <trkpt lat="44.72124" lon="5.81574">
        <ele>2699</ele>
        <time>2019-09-12T14:01:58+02:00</time>
      </trkpt>
      <trkpt lat="44.72121" lon="5.81576">
        <ele>2697</ele>
        <time>2019-09-12T14:02:09+02:00</time>
      </trkpt>
      <trkpt lat="44.72121" lon="5.81582">
        <ele>2694</ele>
        <time>2019-09-12T14:02:23+02:00</time>
      </trkpt>
      <trkpt lat="44.72122" lon="5.81585">
        <ele>2693</ele>
        <time>2019-09-12T14:02:39+02:00</time>
      </trkpt>
      <trkpt lat="44.72125" lon="5.81586">
        <ele>2694</ele>
        <time>2019-09-12T14:02:56+02:00</time>
      </trkpt>
      <trkpt lat="44.72127" lon="5.81586">
        <ele>2696</ele>
        <time>2019-09-12T14:03:14+02:00</time>
      </trkpt>
      <trkpt lat="44.72126" lon="5.81585">
        <ele>2695</ele>
        <time>2019-09-12T14:03:31+02:00</time>
      </trkpt>
      <trkpt lat="44.72127" lon="5.81586">
        <ele>2695</ele>
        <time>2019-09-12T14:03:49+02:00</time>
      </trkpt>
      <trkpt lat="44.72127" lon="5.81587">
        <ele>2695</ele>
        <time>2019-09-12T14:04:16+02:00</time>
      </trkpt>
      <trkpt lat="44.72123" lon="5.81589">
        <ele>2692</ele>
        <time>2019-09-12T14:04:35+02:00</time>
      </trkpt>
      <trkpt lat="44.72123" lon="5.81592">
        <ele>2691</ele>
        <time>2019-09-12T14:04:52+02:00</time>
      </trkpt>
      <trkpt lat="44.72123" lon="5.81592">
        <ele>2690</ele>
        <time>2019-09-12T14:05:10+02:00</time>
      </trkpt>
      <trkpt lat="44.72122" lon="5.81593">
        <ele>2690</ele>
        <time>2019-09-12T14:05:31+02:00</time>
      </trkpt>
      <trkpt lat="44.72121" lon="5.81596">
        <ele>2688</ele>
        <time>2019-09-12T14:05:47+02:00</time>
      </trkpt>
      <trkpt lat="44.72119" lon="5.81599">
        <ele>2686</ele>
        <time>2019-09-12T14:06:04+02:00</time>
      </trkpt>
      <trkpt lat="44.7212" lon="5.816">
        <ele>2685</ele>
        <time>2019-09-12T14:06:11+02:00</time>
      </trkpt>
      <trkpt lat="44.72118" lon="5.81601">
        <ele>2684</ele>
        <time>2019-09-12T14:06:29+02:00</time>
      </trkpt>
      <trkpt lat="44.72118" lon="5.81603">
        <ele>2683</ele>
        <time>2019-09-12T14:06:45+02:00</time>
      </trkpt>
      <trkpt lat="44.72116" lon="5.81602">
        <ele>2683</ele>
        <time>2019-09-12T14:07:02+02:00</time>
      </trkpt>
      <trkpt lat="44.72118" lon="5.81603">
        <ele>2683</ele>
        <time>2019-09-12T14:07:17+02:00</time>
      </trkpt>
      <trkpt lat="44.72116" lon="5.81602">
        <ele>2683</ele>
        <time>2019-09-12T14:07:34+02:00</time>
      </trkpt>
      <trkpt lat="44.7211" lon="5.81598">
        <ele>2682</ele>
        <time>2019-09-12T14:07:51+02:00</time>
      </trkpt>
      <trkpt lat="44.72107" lon="5.81602">
        <ele>2677</ele>
        <time>2019-09-12T14:08:06+02:00</time>
      </trkpt>
      <trkpt lat="44.72107" lon="5.81602">
        <ele>2677</ele>
        <time>2019-09-12T14:08:23+02:00</time>
      </trkpt>
      <trkpt lat="44.72108" lon="5.81607">
        <ele>2676</ele>
        <time>2019-09-12T14:08:38+02:00</time>
      </trkpt>
      <trkpt lat="44.72109" lon="5.81612">
        <ele>2675</ele>
        <time>2019-09-12T14:08:52+02:00</time>
      </trkpt>
      <trkpt lat="44.7211" lon="5.81613">
        <ele>2675</ele>
        <time>2019-09-12T14:09:06+02:00</time>
      </trkpt>
      <trkpt lat="44.72109" lon="5.81614">
        <ele>2673</ele>
        <time>2019-09-12T14:09:23+02:00</time>
      </trkpt>
      <trkpt lat="44.72109" lon="5.81619">
        <ele>2670</ele>
        <time>2019-09-12T14:09:38+02:00</time>
      </trkpt>
      <trkpt lat="44.72108" lon="5.81621">
        <ele>2668</ele>
        <time>2019-09-12T14:09:53+02:00</time>
      </trkpt>
      <trkpt lat="44.72106" lon="5.81621">
        <ele>2667</ele>
        <time>2019-09-12T14:10:05+02:00</time>
      </trkpt>
      <trkpt lat="44.72104" lon="5.81621">
        <ele>2666</ele>
        <time>2019-09-12T14:10:23+02:00</time>
      </trkpt>
      <trkpt lat="44.72102" lon="5.81626">
        <ele>2663</ele>
        <time>2019-09-12T14:10:40+02:00</time>
      </trkpt>
      <trkpt lat="44.72103" lon="5.81628">
        <ele>2662</ele>
        <time>2019-09-12T14:10:59+02:00</time>
      </trkpt>
      <trkpt lat="44.721" lon="5.81625">
        <ele>2661</ele>
        <time>2019-09-12T14:11:14+02:00</time>
      </trkpt>
      <trkpt lat="44.72097" lon="5.81626">
        <ele>2659</ele>
        <time>2019-09-12T14:11:28+02:00</time>
      </trkpt>
      <trkpt lat="44.72096" lon="5.81631">
        <ele>2657</ele>
        <time>2019-09-12T14:11:43+02:00</time>
      </trkpt>
      <trkpt lat="44.72095" lon="5.81634">
        <ele>2656</ele>
        <time>2019-09-12T14:11:58+02:00</time>
      </trkpt>
      <trkpt lat="44.72095" lon="5.81636">
        <ele>2655</ele>
        <time>2019-09-12T14:12:17+02:00</time>
      </trkpt>
      <trkpt lat="44.72095" lon="5.81639">
        <ele>2654</ele>
        <time>2019-09-12T14:12:35+02:00</time>
      </trkpt>
      <trkpt lat="44.72095" lon="5.81643">
        <ele>2652</ele>
        <time>2019-09-12T14:12:50+02:00</time>
      </trkpt>
      <trkpt lat="44.72094" lon="5.81646">
        <ele>2651</ele>
        <time>2019-09-12T14:13:05+02:00</time>
      </trkpt>
      <trkpt lat="44.72094" lon="5.81648">
        <ele>2650</ele>
        <time>2019-09-12T14:13:18+02:00</time>
      </trkpt>
      <trkpt lat="44.72093" lon="5.81651">
        <ele>2648</ele>
        <time>2019-09-12T14:13:34+02:00</time>
      </trkpt>
      <trkpt lat="44.72091" lon="5.81652">
        <ele>2648</ele>
        <time>2019-09-12T14:13:48+02:00</time>
      </trkpt>
      <trkpt lat="44.72088" lon="5.81654">
        <ele>2646</ele>
        <time>2019-09-12T14:14:05+02:00</time>
      </trkpt>
      <trkpt lat="44.72087" lon="5.81659">
        <ele>2645</ele>
        <time>2019-09-12T14:14:20+02:00</time>
      </trkpt>
      <trkpt lat="44.72086" lon="5.81664">
        <ele>2643</ele>
        <time>2019-09-12T14:14:36+02:00</time>
      </trkpt>
      <trkpt lat="44.72087" lon="5.81666">
        <ele>2642</ele>
        <time>2019-09-12T14:14:58+02:00</time>
      </trkpt>
      <trkpt lat="44.72087" lon="5.81666">
        <ele>2642</ele>
        <time>2019-09-12T14:15:21+02:00</time>
      </trkpt>
      <trkpt lat="44.72088" lon="5.81666">
        <ele>2642</ele>
        <time>2019-09-12T14:15:39+02:00</time>
      </trkpt>
      <trkpt lat="44.72088" lon="5.81666">
        <ele>2642</ele>
        <time>2019-09-12T14:16:00+02:00</time>
      </trkpt>
      <trkpt lat="44.72088" lon="5.81664">
        <ele>2643</ele>
        <time>2019-09-12T14:16:19+02:00</time>
      </trkpt>
      <trkpt lat="44.72089" lon="5.81663">
        <ele>2643</ele>
        <time>2019-09-12T14:16:45+02:00</time>
      </trkpt>
      <trkpt lat="44.72088" lon="5.81666">
        <ele>2642</ele>
        <time>2019-09-12T14:17:09+02:00</time>
      </trkpt>
      <trkpt lat="44.72087" lon="5.81667">
        <ele>2642</ele>
        <time>2019-09-12T14:17:28+02:00</time>
      </trkpt>
      <trkpt lat="44.72087" lon="5.81666">
        <ele>2642</ele>
        <time>2019-09-12T14:17:33+02:00</time>
      </trkpt>
      <trkpt lat="44.72085" lon="5.81667">
        <ele>2642</ele>
        <time>2019-09-12T14:17:52+02:00</time>
      </trkpt>
      <trkpt lat="44.72085" lon="5.81668">
        <ele>2642</ele>
        <time>2019-09-12T14:18:21+02:00</time>
      </trkpt>
      <trkpt lat="44.72085" lon="5.81667">
        <ele>2642</ele>
        <time>2019-09-12T14:18:49+02:00</time>
      </trkpt>
      <trkpt lat="44.72086" lon="5.81668">
        <ele>2642</ele>
        <time>2019-09-12T14:19:13+02:00</time>
      </trkpt>
      <trkpt lat="44.72085" lon="5.8167">
        <ele>2641</ele>
        <time>2019-09-12T14:19:36+02:00</time>
      </trkpt>
      <trkpt lat="44.72086" lon="5.81667">
        <ele>2642</ele>
        <time>2019-09-12T14:20:01+02:00</time>
      </trkpt>
      <trkpt lat="44.72086" lon="5.81667">
        <ele>2642</ele>
        <time>2019-09-12T14:20:21+02:00</time>
      </trkpt>
      <trkpt lat="44.72085" lon="5.81663">
        <ele>2643</ele>
        <time>2019-09-12T14:20:45+02:00</time>
      </trkpt>
      <trkpt lat="44.7208" lon="5.8166">
        <ele>2641</ele>
        <time>2019-09-12T14:20:59+02:00</time>
      </trkpt>
      <trkpt lat="44.72078" lon="5.81663">
        <ele>2638</ele>
        <time>2019-09-12T14:21:16+02:00</time>
      </trkpt>
      <trkpt lat="44.72079" lon="5.81663">
        <ele>2639</ele>
        <time>2019-09-12T14:21:38+02:00</time>
      </trkpt>
      <trkpt lat="44.72077" lon="5.81662">
        <ele>2638</ele>
        <time>2019-09-12T14:21:56+02:00</time>
      </trkpt>
      <trkpt lat="44.72076" lon="5.81658">
        <ele>2638</ele>
        <time>2019-09-12T14:22:11+02:00</time>
      </trkpt>
      <trkpt lat="44.72075" lon="5.81657">
        <ele>2637</ele>
        <time>2019-09-12T14:22:16+02:00</time>
      </trkpt>
      <trkpt lat="44.72074" lon="5.81653">
        <ele>2638</ele>
        <time>2019-09-12T14:22:33+02:00</time>
      </trkpt>
      <trkpt lat="44.72073" lon="5.81646">
        <ele>2639</ele>
        <time>2019-09-12T14:22:53+02:00</time>
      </trkpt>
      <trkpt lat="44.72069" lon="5.81641">
        <ele>2637</ele>
        <time>2019-09-12T14:23:11+02:00</time>
      </trkpt>
      <trkpt lat="44.72063" lon="5.81636">
        <ele>2633</ele>
        <time>2019-09-12T14:23:26+02:00</time>
      </trkpt>
      <trkpt lat="44.72059" lon="5.81633">
        <ele>2630</ele>
        <time>2019-09-12T14:23:43+02:00</time>
      </trkpt>
      <trkpt lat="44.72057" lon="5.81631">
        <ele>2628</ele>
        <time>2019-09-12T14:24:01+02:00</time>
      </trkpt>
      <trkpt lat="44.72055" lon="5.8163">
        <ele>2626</ele>
        <time>2019-09-12T14:24:17+02:00</time>
      </trkpt>
      <trkpt lat="44.72055" lon="5.81629">
        <ele>2627</ele>
        <time>2019-09-12T14:24:34+02:00</time>
      </trkpt>
      <trkpt lat="44.72053" lon="5.81626">
        <ele>2625</ele>
        <time>2019-09-12T14:24:53+02:00</time>
      </trkpt>
      <trkpt lat="44.7205" lon="5.81624">
        <ele>2622</ele>
        <time>2019-09-12T14:25:08+02:00</time>
      </trkpt>
      <trkpt lat="44.72048" lon="5.81618">
        <ele>2620</ele>
        <time>2019-09-12T14:25:25+02:00</time>
      </trkpt>
      <trkpt lat="44.72045" lon="5.81622">
        <ele>2617</ele>
        <time>2019-09-12T14:25:42+02:00</time>
      </trkpt>
      <trkpt lat="44.72043" lon="5.81625">
        <ele>2614</ele>
        <time>2019-09-12T14:25:56+02:00</time>
      </trkpt>
      <trkpt lat="44.72042" lon="5.81626">
        <ele>2613</ele>
        <time>2019-09-12T14:26:12+02:00</time>
      </trkpt>
      <trkpt lat="44.72041" lon="5.81628">
        <ele>2612</ele>
        <time>2019-09-12T14:26:29+02:00</time>
      </trkpt>
      <trkpt lat="44.72036" lon="5.81625">
        <ele>2607</ele>
        <time>2019-09-12T14:26:45+02:00</time>
      </trkpt>
      <trkpt lat="44.72033" lon="5.81622">
        <ele>2605</ele>
        <time>2019-09-12T14:27:01+02:00</time>
      </trkpt>
      <trkpt lat="44.72033" lon="5.81622">
        <ele>2604</ele>
        <time>2019-09-12T14:27:25+02:00</time>
      </trkpt>
      <trkpt lat="44.72032" lon="5.81622">
        <ele>2603</ele>
        <time>2019-09-12T14:27:53+02:00</time>
      </trkpt>
      <trkpt lat="44.72033" lon="5.81622">
        <ele>2604</ele>
        <time>2019-09-12T14:28:14+02:00</time>
      </trkpt>
      <trkpt lat="44.72035" lon="5.8162">
        <ele>2606</ele>
        <time>2019-09-12T14:28:39+02:00</time>
      </trkpt>
      <trkpt lat="44.72033" lon="5.81622">
        <ele>2604</ele>
        <time>2019-09-12T14:29:01+02:00</time>
      </trkpt>
      <trkpt lat="44.72035" lon="5.81619">
        <ele>2607</ele>
        <time>2019-09-12T14:29:23+02:00</time>
      </trkpt>
      <trkpt lat="44.72039" lon="5.81614">
        <ele>2612</ele>
        <time>2019-09-12T14:29:38+02:00</time>
      </trkpt>
      <trkpt lat="44.72039" lon="5.8161">
        <ele>2613</ele>
        <time>2019-09-12T14:29:56+02:00</time>
      </trkpt>
      <trkpt lat="44.72038" lon="5.81609">
        <ele>2612</ele>
        <time>2019-09-12T14:30:16+02:00</time>
      </trkpt>
      <trkpt lat="44.72038" lon="5.81609">
        <ele>2612</ele>
        <time>2019-09-12T14:30:31+02:00</time>
      </trkpt>
      <trkpt lat="44.72039" lon="5.81606">
        <ele>2613</ele>
        <time>2019-09-12T14:30:46+02:00</time>
      </trkpt>
      <trkpt lat="44.72035" lon="5.81601">
        <ele>2609</ele>
        <time>2019-09-12T14:31:00+02:00</time>
      </trkpt>
      <trkpt lat="44.7203" lon="5.81605">
        <ele>2604</ele>
        <time>2019-09-12T14:31:14+02:00</time>
      </trkpt>
      <trkpt lat="44.72029" lon="5.81603">
        <ele>2603</ele>
        <time>2019-09-12T14:31:31+02:00</time>
      </trkpt>
      <trkpt lat="44.72028" lon="5.81602">
        <ele>2602</ele>
        <time>2019-09-12T14:31:52+02:00</time>
      </trkpt>
      <trkpt lat="44.72028" lon="5.81602">
        <ele>2601</ele>
        <time>2019-09-12T14:32:10+02:00</time>
      </trkpt>
      <trkpt lat="44.72025" lon="5.81603">
        <ele>2598</ele>
        <time>2019-09-12T14:32:37+02:00</time>
      </trkpt>
      <trkpt lat="44.72025" lon="5.81604">
        <ele>2598</ele>
        <time>2019-09-12T14:33:06+02:00</time>
      </trkpt>
      <trkpt lat="44.72026" lon="5.81604">
        <ele>2599</ele>
        <time>2019-09-12T14:33:30+02:00</time>
      </trkpt>
      <trkpt lat="44.72023" lon="5.81606">
        <ele>2595</ele>
        <time>2019-09-12T14:33:54+02:00</time>
      </trkpt>
      <trkpt lat="44.72024" lon="5.81605">
        <ele>2597</ele>
        <time>2019-09-12T14:34:17+02:00</time>
      </trkpt>
      <trkpt lat="44.72022" lon="5.81606">
        <ele>2594</ele>
        <time>2019-09-12T14:34:36+02:00</time>
      </trkpt>
      <trkpt lat="44.72021" lon="5.81604">
        <ele>2594</ele>
        <time>2019-09-12T14:34:55+02:00</time>
      </trkpt>
      <trkpt lat="44.72024" lon="5.81604">
        <ele>2597</ele>
        <time>2019-09-12T14:35:10+02:00</time>
      </trkpt>
      <trkpt lat="44.72018" lon="5.81606">
        <ele>2590</ele>
        <time>2019-09-12T14:35:31+02:00</time>
      </trkpt>
      <trkpt lat="44.72019" lon="5.81606">
        <ele>2591</ele>
        <time>2019-09-12T14:35:48+02:00</time>
      </trkpt>
      <trkpt lat="44.72018" lon="5.81606">
        <ele>2590</ele>
        <time>2019-09-12T14:36:08+02:00</time>
      </trkpt>
      <trkpt lat="44.72013" lon="5.81606">
        <ele>2585</ele>
        <time>2019-09-12T14:36:28+02:00</time>
      </trkpt>
      <trkpt lat="44.72013" lon="5.81606">
        <ele>2585</ele>
        <time>2019-09-12T14:36:44+02:00</time>
      </trkpt>
      <trkpt lat="44.72012" lon="5.81603">
        <ele>2585</ele>
        <time>2019-09-12T14:37:03+02:00</time>
      </trkpt>
      <trkpt lat="44.72006" lon="5.81608">
        <ele>2577</ele>
        <time>2019-09-12T14:37:19+02:00</time>
      </trkpt>
      <trkpt lat="44.72004" lon="5.81608">
        <ele>2576</ele>
        <time>2019-09-12T14:37:28+02:00</time>
      </trkpt>
      <trkpt lat="44.72007" lon="5.81605">
        <ele>2578</ele>
        <time>2019-09-12T14:37:49+02:00</time>
      </trkpt>
      <trkpt lat="44.72007" lon="5.81596">
        <ele>2581</ele>
        <time>2019-09-12T14:38:05+02:00</time>
      </trkpt>
      <trkpt lat="44.72004" lon="5.81594">
        <ele>2578</ele>
        <time>2019-09-12T14:38:20+02:00</time>
      </trkpt>
      <trkpt lat="44.72003" lon="5.81593">
        <ele>2577</ele>
        <time>2019-09-12T14:38:36+02:00</time>
      </trkpt>
      <trkpt lat="44.72001" lon="5.81592">
        <ele>2576</ele>
        <time>2019-09-12T14:38:51+02:00</time>
      </trkpt>
      <trkpt lat="44.71999" lon="5.81592">
        <ele>2574</ele>
        <time>2019-09-12T14:39:07+02:00</time>
      </trkpt>
      <trkpt lat="44.71997" lon="5.81597">
        <ele>2571</ele>
        <time>2019-09-12T14:39:23+02:00</time>
      </trkpt>
      <trkpt lat="44.71996" lon="5.81599">
        <ele>2569</ele>
        <time>2019-09-12T14:39:37+02:00</time>
      </trkpt>
      <trkpt lat="44.71994" lon="5.81597">
        <ele>2569</ele>
        <time>2019-09-12T14:39:54+02:00</time>
      </trkpt>
      <trkpt lat="44.71993" lon="5.81597">
        <ele>2568</ele>
        <time>2019-09-12T14:40:10+02:00</time>
      </trkpt>
      <trkpt lat="44.7199" lon="5.81593">
        <ele>2566</ele>
        <time>2019-09-12T14:40:30+02:00</time>
      </trkpt>
      <trkpt lat="44.71988" lon="5.81587">
        <ele>2565</ele>
        <time>2019-09-12T14:40:51+02:00</time>
      </trkpt>
      <trkpt lat="44.71985" lon="5.81592">
        <ele>2562</ele>
        <time>2019-09-12T14:41:05+02:00</time>
      </trkpt>
      <trkpt lat="44.71982" lon="5.8159">
        <ele>2560</ele>
        <time>2019-09-12T14:41:22+02:00</time>
      </trkpt>
      <trkpt lat="44.71981" lon="5.81587">
        <ele>2559</ele>
        <time>2019-09-12T14:41:44+02:00</time>
      </trkpt>
      <trkpt lat="44.71979" lon="5.81584">
        <ele>2559</ele>
        <time>2019-09-12T14:42:04+02:00</time>
      </trkpt>
      <trkpt lat="44.71977" lon="5.81585">
        <ele>2557</ele>
        <time>2019-09-12T14:42:24+02:00</time>
      </trkpt>
      <trkpt lat="44.71976" lon="5.81585">
        <ele>2556</ele>
        <time>2019-09-12T14:42:38+02:00</time>
      </trkpt>
      <trkpt lat="44.71974" lon="5.81584">
        <ele>2554</ele>
        <time>2019-09-12T14:42:50+02:00</time>
      </trkpt>
      <trkpt lat="44.71967" lon="5.81581">
        <ele>2549</ele>
        <time>2019-09-12T14:43:04+02:00</time>
      </trkpt>
      <trkpt lat="44.71967" lon="5.81577">
        <ele>2550</ele>
        <time>2019-09-12T14:43:26+02:00</time>
      </trkpt>
      <trkpt lat="44.71961" lon="5.81575">
        <ele>2546</ele>
        <time>2019-09-12T14:43:39+02:00</time>
      </trkpt>
      <trkpt lat="44.71954" lon="5.8157">
        <ele>2541</ele>
        <time>2019-09-12T14:43:52+02:00</time>
      </trkpt>
      <trkpt lat="44.71951" lon="5.81564">
        <ele>2540</ele>
        <time>2019-09-12T14:44:10+02:00</time>
      </trkpt>
      <trkpt lat="44.71946" lon="5.81563">
        <ele>2536</ele>
        <time>2019-09-12T14:44:19+02:00</time>
      </trkpt>
      <trkpt lat="44.71941" lon="5.81563">
        <ele>2532</ele>
        <time>2019-09-12T14:44:32+02:00</time>
      </trkpt>
      <trkpt lat="44.71936" lon="5.81562">
        <ele>2529</ele>
        <time>2019-09-12T14:44:50+02:00</time>
      </trkpt>
      <trkpt lat="44.71932" lon="5.8156">
        <ele>2526</ele>
        <time>2019-09-12T14:45:03+02:00</time>
      </trkpt>
      <trkpt lat="44.71926" lon="5.81557">
        <ele>2522</ele>
        <time>2019-09-12T14:45:14+02:00</time>
      </trkpt>
      <trkpt lat="44.71919" lon="5.81554">
        <ele>2518</ele>
        <time>2019-09-12T14:45:24+02:00</time>
      </trkpt>
      <trkpt lat="44.71913" lon="5.81552">
        <ele>2514</ele>
        <time>2019-09-12T14:45:37+02:00</time>
      </trkpt>
      <trkpt lat="44.71908" lon="5.81555">
        <ele>2510</ele>
        <time>2019-09-12T14:45:50+02:00</time>
      </trkpt>
      <trkpt lat="44.71902" lon="5.8156">
        <ele>2507</ele>
        <time>2019-09-12T14:45:59+02:00</time>
      </trkpt>
      <trkpt lat="44.71898" lon="5.81565">
        <ele>2505</ele>
        <time>2019-09-12T14:46:11+02:00</time>
      </trkpt>
      <trkpt lat="44.71892" lon="5.81565">
        <ele>2501</ele>
        <time>2019-09-12T14:46:22+02:00</time>
      </trkpt>
      <trkpt lat="44.71887" lon="5.81563">
        <ele>2498</ele>
        <time>2019-09-12T14:46:30+02:00</time>
      </trkpt>
      <trkpt lat="44.71883" lon="5.81562">
        <ele>2496</ele>
        <time>2019-09-12T14:46:38+02:00</time>
      </trkpt>
      <trkpt lat="44.71879" lon="5.81574">
        <ele>2495</ele>
        <time>2019-09-12T14:46:52+02:00</time>
      </trkpt>
      <trkpt lat="44.71874" lon="5.81588">
        <ele>2492</ele>
        <time>2019-09-12T14:47:06+02:00</time>
      </trkpt>
      <trkpt lat="44.71871" lon="5.81594">
        <ele>2490</ele>
        <time>2019-09-12T14:47:27+02:00</time>
      </trkpt>
      <trkpt lat="44.71869" lon="5.81599">
        <ele>2488</ele>
        <time>2019-09-12T14:47:42+02:00</time>
      </trkpt>
      <trkpt lat="44.71867" lon="5.81598">
        <ele>2487</ele>
        <time>2019-09-12T14:48:06+02:00</time>
      </trkpt>
      <trkpt lat="44.71868" lon="5.81598">
        <ele>2488</ele>
        <time>2019-09-12T14:48:34+02:00</time>
      </trkpt>
      <trkpt lat="44.71868" lon="5.81599">
        <ele>2487</ele>
        <time>2019-09-12T14:48:57+02:00</time>
      </trkpt>
      <trkpt lat="44.71867" lon="5.81597">
        <ele>2487</ele>
        <time>2019-09-12T14:49:16+02:00</time>
      </trkpt>
      <trkpt lat="44.71868" lon="5.81597">
        <ele>2488</ele>
        <time>2019-09-12T14:49:34+02:00</time>
      </trkpt>
      <trkpt lat="44.71869" lon="5.81596">
        <ele>2488</ele>
        <time>2019-09-12T14:49:52+02:00</time>
      </trkpt>
      <trkpt lat="44.71869" lon="5.81596">
        <ele>2489</ele>
        <time>2019-09-12T14:50:10+02:00</time>
      </trkpt>
      <trkpt lat="44.71867" lon="5.81597">
        <ele>2487</ele>
        <time>2019-09-12T14:50:26+02:00</time>
      </trkpt>
      <trkpt lat="44.71868" lon="5.81596">
        <ele>2488</ele>
        <time>2019-09-12T14:50:35+02:00</time>
      </trkpt>
      <trkpt lat="44.71868" lon="5.81597">
        <ele>2488</ele>
        <time>2019-09-12T14:50:53+02:00</time>
      </trkpt>
      <trkpt lat="44.71868" lon="5.81596">
        <ele>2488</ele>
        <time>2019-09-12T14:51:10+02:00</time>
      </trkpt>
      <trkpt lat="44.7187" lon="5.81596">
        <ele>2489</ele>
        <time>2019-09-12T14:51:26+02:00</time>
      </trkpt>
      <trkpt lat="44.71869" lon="5.81597">
        <ele>2488</ele>
        <time>2019-09-12T14:51:43+02:00</time>
      </trkpt>
      <trkpt lat="44.7187" lon="5.81597">
        <ele>2489</ele>
        <time>2019-09-12T14:51:57+02:00</time>
      </trkpt>
      <trkpt lat="44.71869" lon="5.81596">
        <ele>2489</ele>
        <time>2019-09-12T14:52:13+02:00</time>
      </trkpt>
      <trkpt lat="44.71868" lon="5.81594">
        <ele>2488</ele>
        <time>2019-09-12T14:52:34+02:00</time>
      </trkpt>
      <trkpt lat="44.71868" lon="5.81593">
        <ele>2489</ele>
        <time>2019-09-12T14:52:52+02:00</time>
      </trkpt>
      <trkpt lat="44.71867" lon="5.81596">
        <ele>2487</ele>
        <time>2019-09-12T14:53:05+02:00</time>
      </trkpt>
      <trkpt lat="44.71866" lon="5.81595">
        <ele>2487</ele>
        <time>2019-09-12T14:53:06+02:00</time>
      </trkpt>
      <trkpt lat="44.71857" lon="5.81595">
        <ele>2483</ele>
        <time>2019-09-12T14:53:20+02:00</time>
      </trkpt>
      <trkpt lat="44.71849" lon="5.81593">
        <ele>2479</ele>
        <time>2019-09-12T14:53:31+02:00</time>
      </trkpt>
      <trkpt lat="44.71837" lon="5.81587">
        <ele>2476</ele>
        <time>2019-09-12T14:53:42+02:00</time>
      </trkpt>
      <trkpt lat="44.71831" lon="5.81578">
        <ele>2473</ele>
        <time>2019-09-12T14:53:55+02:00</time>
      </trkpt>
      <trkpt lat="44.71826" lon="5.81578">
        <ele>2470</ele>
        <time>2019-09-12T14:54:06+02:00</time>
      </trkpt>
      <trkpt lat="44.71822" lon="5.81574">
        <ele>2466</ele>
        <time>2019-09-12T14:54:18+02:00</time>
      </trkpt>
      <trkpt lat="44.71817" lon="5.81577">
        <ele>2464</ele>
        <time>2019-09-12T14:54:28+02:00</time>
      </trkpt>
      <trkpt lat="44.71811" lon="5.81578">
        <ele>2461</ele>
        <time>2019-09-12T14:54:38+02:00</time>
      </trkpt>
      <trkpt lat="44.71811" lon="5.81579">
        <ele>2461</ele>
        <time>2019-09-12T14:54:40+02:00</time>
      </trkpt>
      <trkpt lat="44.71803" lon="5.81571">
        <ele>2455</ele>
        <time>2019-09-12T14:54:54+02:00</time>
      </trkpt>
      <trkpt lat="44.718" lon="5.81569">
        <ele>2453</ele>
        <time>2019-09-12T14:55:05+02:00</time>
      </trkpt>
      <trkpt lat="44.718" lon="5.81569">
        <ele>2452</ele>
        <time>2019-09-12T14:55:06+02:00</time>
      </trkpt>
      <trkpt lat="44.71799" lon="5.81569">
        <ele>2452</ele>
        <time>2019-09-12T14:55:08+02:00</time>
      </trkpt>
      <trkpt lat="44.71797" lon="5.81567">
        <ele>2450</ele>
        <time>2019-09-12T14:55:12+02:00</time>
      </trkpt>
      <trkpt lat="44.71794" lon="5.81563">
        <ele>2448</ele>
        <time>2019-09-12T14:55:27+02:00</time>
      </trkpt>
      <trkpt lat="44.71793" lon="5.81556">
        <ele>2447</ele>
        <time>2019-09-12T14:55:37+02:00</time>
      </trkpt>
      <trkpt lat="44.71791" lon="5.81557">
        <ele>2446</ele>
        <time>2019-09-12T14:55:40+02:00</time>
      </trkpt>
      <trkpt lat="44.71791" lon="5.81552">
        <ele>2444</ele>
        <time>2019-09-12T14:55:54+02:00</time>
      </trkpt>
      <trkpt lat="44.71784" lon="5.81552">
        <ele>2441</ele>
        <time>2019-09-12T14:56:07+02:00</time>
      </trkpt>
      <trkpt lat="44.71784" lon="5.81553">
        <ele>2441</ele>
        <time>2019-09-12T14:56:08+02:00</time>
      </trkpt>
      <trkpt lat="44.71781" lon="5.81553">
        <ele>2439</ele>
        <time>2019-09-12T14:56:21+02:00</time>
      </trkpt>
      <trkpt lat="44.71776" lon="5.8155">
        <ele>2435</ele>
        <time>2019-09-12T14:56:34+02:00</time>
      </trkpt>
      <trkpt lat="44.71773" lon="5.81548">
        <ele>2433</ele>
        <time>2019-09-12T14:56:45+02:00</time>
      </trkpt>
      <trkpt lat="44.71767" lon="5.81547">
        <ele>2429</ele>
        <time>2019-09-12T14:56:59+02:00</time>
      </trkpt>
      <trkpt lat="44.71765" lon="5.81548">
        <ele>2428</ele>
        <time>2019-09-12T14:57:13+02:00</time>
      </trkpt>
      <trkpt lat="44.7176" lon="5.81549">
        <ele>2426</ele>
        <time>2019-09-12T14:57:28+02:00</time>
      </trkpt>
      <trkpt lat="44.71759" lon="5.81547">
        <ele>2424</ele>
        <time>2019-09-12T14:57:42+02:00</time>
      </trkpt>
      <trkpt lat="44.71753" lon="5.81546">
        <ele>2421</ele>
        <time>2019-09-12T14:57:56+02:00</time>
      </trkpt>
      <trkpt lat="44.71747" lon="5.81547">
        <ele>2418</ele>
        <time>2019-09-12T14:58:10+02:00</time>
      </trkpt>
      <trkpt lat="44.71741" lon="5.81548">
        <ele>2416</ele>
        <time>2019-09-12T14:58:25+02:00</time>
      </trkpt>
      <trkpt lat="44.71738" lon="5.81548">
        <ele>2414</ele>
        <time>2019-09-12T14:58:38+02:00</time>
      </trkpt>
      <trkpt lat="44.71742" lon="5.81549">
        <ele>2417</ele>
        <time>2019-09-12T14:58:51+02:00</time>
      </trkpt>
      <trkpt lat="44.71744" lon="5.8154">
        <ele>2415</ele>
        <time>2019-09-12T14:59:07+02:00</time>
      </trkpt>
      <trkpt lat="44.71744" lon="5.81536">
        <ele>2413</ele>
        <time>2019-09-12T14:59:17+02:00</time>
      </trkpt>
      <trkpt lat="44.71746" lon="5.81526">
        <ele>2411</ele>
        <time>2019-09-12T14:59:30+02:00</time>
      </trkpt>
      <trkpt lat="44.71745" lon="5.81518">
        <ele>2409</ele>
        <time>2019-09-12T14:59:41+02:00</time>
      </trkpt>
      <trkpt lat="44.71744" lon="5.81511">
        <ele>2406</ele>
        <time>2019-09-12T14:59:56+02:00</time>
      </trkpt>
      <trkpt lat="44.71744" lon="5.81503">
        <ele>2404</ele>
        <time>2019-09-12T15:00:10+02:00</time>
      </trkpt>
      <trkpt lat="44.71748" lon="5.81492">
        <ele>2403</ele>
        <time>2019-09-12T15:00:23+02:00</time>
      </trkpt>
      <trkpt lat="44.71752" lon="5.81478">
        <ele>2402</ele>
        <time>2019-09-12T15:00:37+02:00</time>
      </trkpt>
      <trkpt lat="44.71754" lon="5.81472">
        <ele>2402</ele>
        <time>2019-09-12T15:00:47+02:00</time>
      </trkpt>
      <trkpt lat="44.71756" lon="5.81457">
        <ele>2402</ele>
        <time>2019-09-12T15:01:02+02:00</time>
      </trkpt>
      <trkpt lat="44.71751" lon="5.81447">
        <ele>2398</ele>
        <time>2019-09-12T15:01:16+02:00</time>
      </trkpt>
      <trkpt lat="44.71747" lon="5.81434">
        <ele>2395</ele>
        <time>2019-09-12T15:01:32+02:00</time>
      </trkpt>
      <trkpt lat="44.71744" lon="5.81425">
        <ele>2393</ele>
        <time>2019-09-12T15:01:43+02:00</time>
      </trkpt>
      <trkpt lat="44.71734" lon="5.81416">
        <ele>2388</ele>
        <time>2019-09-12T15:01:58+02:00</time>
      </trkpt>
      <trkpt lat="44.71728" lon="5.81416">
        <ele>2385</ele>
        <time>2019-09-12T15:02:15+02:00</time>
      </trkpt>
      <trkpt lat="44.71724" lon="5.81415">
        <ele>2384</ele>
        <time>2019-09-12T15:02:22+02:00</time>
      </trkpt>
      <trkpt lat="44.71719" lon="5.81416">
        <ele>2382</ele>
        <time>2019-09-12T15:02:32+02:00</time>
      </trkpt>
      <trkpt lat="44.71717" lon="5.81417">
        <ele>2381</ele>
        <time>2019-09-12T15:02:34+02:00</time>
      </trkpt>
      <trkpt lat="44.71708" lon="5.81423">
        <ele>2377</ele>
        <time>2019-09-12T15:02:48+02:00</time>
      </trkpt>
      <trkpt lat="44.71703" lon="5.81426">
        <ele>2376</ele>
        <time>2019-09-12T15:03:02+02:00</time>
      </trkpt>
      <trkpt lat="44.71702" lon="5.81427">
        <ele>2375</ele>
        <time>2019-09-12T15:03:03+02:00</time>
      </trkpt>
      <trkpt lat="44.71693" lon="5.81432">
        <ele>2372</ele>
        <time>2019-09-12T15:03:16+02:00</time>
      </trkpt>
      <trkpt lat="44.71686" lon="5.8144">
        <ele>2371</ele>
        <time>2019-09-12T15:03:28+02:00</time>
      </trkpt>
      <trkpt lat="44.71677" lon="5.8146">
        <ele>2368</ele>
        <time>2019-09-12T15:03:45+02:00</time>
      </trkpt>
      <trkpt lat="44.71667" lon="5.81469">
        <ele>2365</ele>
        <time>2019-09-12T15:03:59+02:00</time>
      </trkpt>
      <trkpt lat="44.7166" lon="5.81471">
        <ele>2364</ele>
        <time>2019-09-12T15:04:08+02:00</time>
      </trkpt>
      <trkpt lat="44.71656" lon="5.81472">
        <ele>2363</ele>
        <time>2019-09-12T15:04:12+02:00</time>
      </trkpt>
      <trkpt lat="44.71641" lon="5.81478">
        <ele>2361</ele>
        <time>2019-09-12T15:04:30+02:00</time>
      </trkpt>
      <trkpt lat="44.71637" lon="5.81475">
        <ele>2360</ele>
        <time>2019-09-12T15:04:45+02:00</time>
      </trkpt>
      <trkpt lat="44.71635" lon="5.81475">
        <ele>2359</ele>
        <time>2019-09-12T15:04:47+02:00</time>
      </trkpt>
      <trkpt lat="44.71632" lon="5.81474">
        <ele>2358</ele>
        <time>2019-09-12T15:04:50+02:00</time>
      </trkpt>
      <trkpt lat="44.7162" lon="5.81479">
        <ele>2354</ele>
        <time>2019-09-12T15:05:06+02:00</time>
      </trkpt>
      <trkpt lat="44.71609" lon="5.8148">
        <ele>2351</ele>
        <time>2019-09-12T15:05:18+02:00</time>
      </trkpt>
      <trkpt lat="44.71596" lon="5.81487">
        <ele>2347</ele>
        <time>2019-09-12T15:05:33+02:00</time>
      </trkpt>
      <trkpt lat="44.71581" lon="5.81496">
        <ele>2343</ele>
        <time>2019-09-12T15:05:51+02:00</time>
      </trkpt>
      <trkpt lat="44.7157" lon="5.81504">
        <ele>2339</ele>
        <time>2019-09-12T15:06:06+02:00</time>
      </trkpt>
      <trkpt lat="44.71569" lon="5.81507">
        <ele>2338</ele>
        <time>2019-09-12T15:06:19+02:00</time>
      </trkpt>
      <trkpt lat="44.71564" lon="5.81512">
        <ele>2336</ele>
        <time>2019-09-12T15:06:28+02:00</time>
      </trkpt>
      <trkpt lat="44.71559" lon="5.81519">
        <ele>2333</ele>
        <time>2019-09-12T15:06:42+02:00</time>
      </trkpt>
      <trkpt lat="44.71557" lon="5.81522">
        <ele>2332</ele>
        <time>2019-09-12T15:06:56+02:00</time>
      </trkpt>
      <trkpt lat="44.71559" lon="5.81524">
        <ele>2332</ele>
        <time>2019-09-12T15:07:12+02:00</time>
      </trkpt>
      <trkpt lat="44.71558" lon="5.81535">
        <ele>2330</ele>
        <time>2019-09-12T15:07:27+02:00</time>
      </trkpt>
      <trkpt lat="44.71557" lon="5.81542">
        <ele>2327</ele>
        <time>2019-09-12T15:07:43+02:00</time>
      </trkpt>
      <trkpt lat="44.71559" lon="5.81556">
        <ele>2325</ele>
        <time>2019-09-12T15:07:57+02:00</time>
      </trkpt>
      <trkpt lat="44.71561" lon="5.8157">
        <ele>2322</ele>
        <time>2019-09-12T15:08:13+02:00</time>
      </trkpt>
      <trkpt lat="44.71563" lon="5.81585">
        <ele>2320</ele>
        <time>2019-09-12T15:08:28+02:00</time>
      </trkpt>
      <trkpt lat="44.71565" lon="5.81592">
        <ele>2319</ele>
        <time>2019-09-12T15:08:44+02:00</time>
      </trkpt>
      <trkpt lat="44.71567" lon="5.81603">
        <ele>2316</ele>
        <time>2019-09-12T15:08:54+02:00</time>
      </trkpt>
      <trkpt lat="44.71573" lon="5.8162">
        <ele>2314</ele>
        <time>2019-09-12T15:09:11+02:00</time>
      </trkpt>
      <trkpt lat="44.71573" lon="5.81624">
        <ele>2313</ele>
        <time>2019-09-12T15:09:26+02:00</time>
      </trkpt>
      <trkpt lat="44.71576" lon="5.81627">
        <ele>2314</ele>
        <time>2019-09-12T15:09:41+02:00</time>
      </trkpt>
      <trkpt lat="44.71581" lon="5.81635">
        <ele>2315</ele>
        <time>2019-09-12T15:09:58+02:00</time>
      </trkpt>
      <trkpt lat="44.71583" lon="5.81646">
        <ele>2313</ele>
        <time>2019-09-12T15:10:10+02:00</time>
      </trkpt>
      <trkpt lat="44.71581" lon="5.81659">
        <ele>2309</ele>
        <time>2019-09-12T15:10:26+02:00</time>
      </trkpt>
      <trkpt lat="44.71575" lon="5.81675">
        <ele>2302</ele>
        <time>2019-09-12T15:10:44+02:00</time>
      </trkpt>
      <trkpt lat="44.71572" lon="5.81686">
        <ele>2299</ele>
        <time>2019-09-12T15:10:57+02:00</time>
      </trkpt>
      <trkpt lat="44.71571" lon="5.81691">
        <ele>2297</ele>
        <time>2019-09-12T15:11:02+02:00</time>
      </trkpt>
      <trkpt lat="44.7157" lon="5.81692">
        <ele>2297</ele>
        <time>2019-09-12T15:11:05+02:00</time>
      </trkpt>
      <trkpt lat="44.71568" lon="5.81694">
        <ele>2295</ele>
        <time>2019-09-12T15:11:10+02:00</time>
      </trkpt>
      <trkpt lat="44.71563" lon="5.817">
        <ele>2293</ele>
        <time>2019-09-12T15:11:18+02:00</time>
      </trkpt>
      <trkpt lat="44.71558" lon="5.81709">
        <ele>2290</ele>
        <time>2019-09-12T15:11:28+02:00</time>
      </trkpt>
      <trkpt lat="44.71554" lon="5.81712">
        <ele>2289</ele>
        <time>2019-09-12T15:11:33+02:00</time>
      </trkpt>
      <trkpt lat="44.71551" lon="5.81714">
        <ele>2288</ele>
        <time>2019-09-12T15:11:36+02:00</time>
      </trkpt>
      <trkpt lat="44.71542" lon="5.81718">
        <ele>2284</ele>
        <time>2019-09-12T15:11:50+02:00</time>
      </trkpt>
      <trkpt lat="44.71532" lon="5.81727">
        <ele>2281</ele>
        <time>2019-09-12T15:12:01+02:00</time>
      </trkpt>
      <trkpt lat="44.71524" lon="5.81737">
        <ele>2278</ele>
        <time>2019-09-12T15:12:11+02:00</time>
      </trkpt>
      <trkpt lat="44.71512" lon="5.81766">
        <ele>2276</ele>
        <time>2019-09-12T15:12:32+02:00</time>
      </trkpt>
      <trkpt lat="44.71508" lon="5.81773">
        <ele>2275</ele>
        <time>2019-09-12T15:12:49+02:00</time>
      </trkpt>
      <trkpt lat="44.71505" lon="5.81776">
        <ele>2274</ele>
        <time>2019-09-12T15:12:54+02:00</time>
      </trkpt>
      <trkpt lat="44.71497" lon="5.81785">
        <ele>2271</ele>
        <time>2019-09-12T15:13:06+02:00</time>
      </trkpt>
      <trkpt lat="44.71492" lon="5.8179">
        <ele>2267</ele>
        <time>2019-09-12T15:13:18+02:00</time>
      </trkpt>
      <trkpt lat="44.71488" lon="5.81791">
        <ele>2265</ele>
        <time>2019-09-12T15:13:35+02:00</time>
      </trkpt>
      <trkpt lat="44.71486" lon="5.81792">
        <ele>2264</ele>
        <time>2019-09-12T15:13:40+02:00</time>
      </trkpt>
      <trkpt lat="44.71481" lon="5.81787">
        <ele>2262</ele>
        <time>2019-09-12T15:13:56+02:00</time>
      </trkpt>
      <trkpt lat="44.71478" lon="5.81786">
        <ele>2261</ele>
        <time>2019-09-12T15:14:11+02:00</time>
      </trkpt>
      <trkpt lat="44.71479" lon="5.81784">
        <ele>2261</ele>
        <time>2019-09-12T15:14:31+02:00</time>
      </trkpt>
      <trkpt lat="44.7148" lon="5.81783">
        <ele>2262</ele>
        <time>2019-09-12T15:14:45+02:00</time>
      </trkpt>
      <trkpt lat="44.71475" lon="5.81777">
        <ele>2259</ele>
        <time>2019-09-12T15:15:02+02:00</time>
      </trkpt>
      <trkpt lat="44.71472" lon="5.81765">
        <ele>2256</ele>
        <time>2019-09-12T15:15:18+02:00</time>
      </trkpt>
      <trkpt lat="44.71471" lon="5.81759">
        <ele>2255</ele>
        <time>2019-09-12T15:15:31+02:00</time>
      </trkpt>
      <trkpt lat="44.71467" lon="5.81759">
        <ele>2252</ele>
        <time>2019-09-12T15:15:44+02:00</time>
      </trkpt>
      <trkpt lat="44.71461" lon="5.81763">
        <ele>2249</ele>
        <time>2019-09-12T15:15:58+02:00</time>
      </trkpt>
      <trkpt lat="44.71455" lon="5.81767">
        <ele>2245</ele>
        <time>2019-09-12T15:16:15+02:00</time>
      </trkpt>
      <trkpt lat="44.71453" lon="5.81762">
        <ele>2244</ele>
        <time>2019-09-12T15:16:30+02:00</time>
      </trkpt>
      <trkpt lat="44.71452" lon="5.81759">
        <ele>2243</ele>
        <time>2019-09-12T15:16:35+02:00</time>
      </trkpt>
      <trkpt lat="44.71447" lon="5.81764">
        <ele>2240</ele>
        <time>2019-09-12T15:16:50+02:00</time>
      </trkpt>
      <trkpt lat="44.71442" lon="5.81764">
        <ele>2238</ele>
        <time>2019-09-12T15:17:04+02:00</time>
      </trkpt>
      <trkpt lat="44.7144" lon="5.8176">
        <ele>2238</ele>
        <time>2019-09-12T15:17:09+02:00</time>
      </trkpt>
      <trkpt lat="44.71435" lon="5.81745">
        <ele>2238</ele>
        <time>2019-09-12T15:17:24+02:00</time>
      </trkpt>
      <trkpt lat="44.71434" lon="5.81746">
        <ele>2237</ele>
        <time>2019-09-12T15:17:26+02:00</time>
      </trkpt>
      <trkpt lat="44.71426" lon="5.81748">
        <ele>2236</ele>
        <time>2019-09-12T15:17:39+02:00</time>
      </trkpt>
      <trkpt lat="44.71425" lon="5.81748">
        <ele>2236</ele>
        <time>2019-09-12T15:17:44+02:00</time>
      </trkpt>
      <trkpt lat="44.7142" lon="5.81755">
        <ele>2234</ele>
        <time>2019-09-12T15:18:00+02:00</time>
      </trkpt>
      <trkpt lat="44.71414" lon="5.81761">
        <ele>2231</ele>
        <time>2019-09-12T15:18:11+02:00</time>
      </trkpt>
      <trkpt lat="44.71414" lon="5.81762">
        <ele>2231</ele>
        <time>2019-09-12T15:18:12+02:00</time>
      </trkpt>
      <trkpt lat="44.71406" lon="5.8177">
        <ele>2229</ele>
        <time>2019-09-12T15:18:27+02:00</time>
      </trkpt>
      <trkpt lat="44.71403" lon="5.81777">
        <ele>2226</ele>
        <time>2019-09-12T15:18:39+02:00</time>
      </trkpt>
      <trkpt lat="44.71397" lon="5.81786">
        <ele>2222</ele>
        <time>2019-09-12T15:18:54+02:00</time>
      </trkpt>
      <trkpt lat="44.71396" lon="5.8179">
        <ele>2221</ele>
        <time>2019-09-12T15:18:59+02:00</time>
      </trkpt>
      <trkpt lat="44.71388" lon="5.81793">
        <ele>2218</ele>
        <time>2019-09-12T15:19:14+02:00</time>
      </trkpt>
      <trkpt lat="44.71384" lon="5.818">
        <ele>2214</ele>
        <time>2019-09-12T15:19:27+02:00</time>
      </trkpt>
      <trkpt lat="44.71379" lon="5.81806">
        <ele>2210</ele>
        <time>2019-09-12T15:19:40+02:00</time>
      </trkpt>
      <trkpt lat="44.71372" lon="5.81819">
        <ele>2204</ele>
        <time>2019-09-12T15:19:57+02:00</time>
      </trkpt>
      <trkpt lat="44.71371" lon="5.81818">
        <ele>2204</ele>
        <time>2019-09-12T15:20:13+02:00</time>
      </trkpt>
      <trkpt lat="44.7137" lon="5.81819">
        <ele>2204</ele>
        <time>2019-09-12T15:20:27+02:00</time>
      </trkpt>
      <trkpt lat="44.7137" lon="5.81818">
        <ele>2204</ele>
        <time>2019-09-12T15:20:39+02:00</time>
      </trkpt>
      <trkpt lat="44.71371" lon="5.8182">
        <ele>2204</ele>
        <time>2019-09-12T15:21:05+02:00</time>
      </trkpt>
      <trkpt lat="44.71372" lon="5.81818">
        <ele>2204</ele>
        <time>2019-09-12T15:21:27+02:00</time>
      </trkpt>
      <trkpt lat="44.71368" lon="5.81819">
        <ele>2203</ele>
        <time>2019-09-12T15:21:41+02:00</time>
      </trkpt>
      <trkpt lat="44.71361" lon="5.81823">
        <ele>2200</ele>
        <time>2019-09-12T15:21:56+02:00</time>
      </trkpt>
      <trkpt lat="44.71353" lon="5.81824">
        <ele>2197</ele>
        <time>2019-09-12T15:22:11+02:00</time>
      </trkpt>
      <trkpt lat="44.71347" lon="5.81827">
        <ele>2195</ele>
        <time>2019-09-12T15:22:26+02:00</time>
      </trkpt>
      <trkpt lat="44.71338" lon="5.81833">
        <ele>2191</ele>
        <time>2019-09-12T15:22:42+02:00</time>
      </trkpt>
      <trkpt lat="44.71336" lon="5.81833">
        <ele>2191</ele>
        <time>2019-09-12T15:22:44+02:00</time>
      </trkpt>
      <trkpt lat="44.71327" lon="5.81834">
        <ele>2188</ele>
        <time>2019-09-12T15:23:00+02:00</time>
      </trkpt>
      <trkpt lat="44.7132" lon="5.81833">
        <ele>2186</ele>
        <time>2019-09-12T15:23:14+02:00</time>
      </trkpt>
      <trkpt lat="44.71315" lon="5.81836">
        <ele>2183</ele>
        <time>2019-09-12T15:23:28+02:00</time>
      </trkpt>
      <trkpt lat="44.71307" lon="5.81837">
        <ele>2181</ele>
        <time>2019-09-12T15:23:43+02:00</time>
      </trkpt>
      <trkpt lat="44.71299" lon="5.81837">
        <ele>2178</ele>
        <time>2019-09-12T15:23:57+02:00</time>
      </trkpt>
      <trkpt lat="44.71288" lon="5.81837">
        <ele>2174</ele>
        <time>2019-09-12T15:24:11+02:00</time>
      </trkpt>
      <trkpt lat="44.71273" lon="5.81834">
        <ele>2170</ele>
        <time>2019-09-12T15:24:28+02:00</time>
      </trkpt>
      <trkpt lat="44.71265" lon="5.81835">
        <ele>2168</ele>
        <time>2019-09-12T15:24:43+02:00</time>
      </trkpt>
      <trkpt lat="44.71261" lon="5.81837">
        <ele>2166</ele>
        <time>2019-09-12T15:25:02+02:00</time>
      </trkpt>
      <trkpt lat="44.71259" lon="5.81839">
        <ele>2165</ele>
        <time>2019-09-12T15:25:24+02:00</time>
      </trkpt>
      <trkpt lat="44.71254" lon="5.8184">
        <ele>2164</ele>
        <time>2019-09-12T15:25:46+02:00</time>
      </trkpt>
      <trkpt lat="44.71252" lon="5.81844">
        <ele>2163</ele>
        <time>2019-09-12T15:25:51+02:00</time>
      </trkpt>
      <trkpt lat="44.71243" lon="5.81847">
        <ele>2161</ele>
        <time>2019-09-12T15:26:06+02:00</time>
      </trkpt>
      <trkpt lat="44.71232" lon="5.81851">
        <ele>2158</ele>
        <time>2019-09-12T15:26:20+02:00</time>
      </trkpt>
      <trkpt lat="44.71217" lon="5.81854">
        <ele>2156</ele>
        <time>2019-09-12T15:26:35+02:00</time>
      </trkpt>
      <trkpt lat="44.71214" lon="5.81854">
        <ele>2155</ele>
        <time>2019-09-12T15:26:38+02:00</time>
      </trkpt>
      <trkpt lat="44.71207" lon="5.81855">
        <ele>2154</ele>
        <time>2019-09-12T15:26:47+02:00</time>
      </trkpt>
      <trkpt lat="44.71201" lon="5.8187">
        <ele>2151</ele>
        <time>2019-09-12T15:27:00+02:00</time>
      </trkpt>
      <trkpt lat="44.71195" lon="5.81871">
        <ele>2150</ele>
        <time>2019-09-12T15:27:09+02:00</time>
      </trkpt>
      <trkpt lat="44.71176" lon="5.81871">
        <ele>2148</ele>
        <time>2019-09-12T15:27:27+02:00</time>
      </trkpt>
      <trkpt lat="44.71161" lon="5.81873">
        <ele>2145</ele>
        <time>2019-09-12T15:27:42+02:00</time>
      </trkpt>
      <trkpt lat="44.71143" lon="5.81878">
        <ele>2143</ele>
        <time>2019-09-12T15:27:59+02:00</time>
      </trkpt>
      <trkpt lat="44.71133" lon="5.81879">
        <ele>2142</ele>
        <time>2019-09-12T15:28:11+02:00</time>
      </trkpt>
      <trkpt lat="44.71118" lon="5.81881">
        <ele>2140</ele>
        <time>2019-09-12T15:28:26+02:00</time>
      </trkpt>
      <trkpt lat="44.7111" lon="5.81882">
        <ele>2139</ele>
        <time>2019-09-12T15:28:33+02:00</time>
      </trkpt>
      <trkpt lat="44.71094" lon="5.81892">
        <ele>2134</ele>
        <time>2019-09-12T15:28:53+02:00</time>
      </trkpt>
      <trkpt lat="44.7109" lon="5.81899">
        <ele>2132</ele>
        <time>2019-09-12T15:29:02+02:00</time>
      </trkpt>
      <trkpt lat="44.71089" lon="5.819">
        <ele>2132</ele>
        <time>2019-09-12T15:29:03+02:00</time>
      </trkpt>
      <trkpt lat="44.71087" lon="5.81906">
        <ele>2130</ele>
        <time>2019-09-12T15:29:19+02:00</time>
      </trkpt>
      <trkpt lat="44.71085" lon="5.81905">
        <ele>2130</ele>
        <time>2019-09-12T15:29:23+02:00</time>
      </trkpt>
      <trkpt lat="44.71077" lon="5.81911">
        <ele>2126</ele>
        <time>2019-09-12T15:29:34+02:00</time>
      </trkpt>
      <trkpt lat="44.71073" lon="5.81914">
        <ele>2124</ele>
        <time>2019-09-12T15:29:41+02:00</time>
      </trkpt>
      <trkpt lat="44.71066" lon="5.81921">
        <ele>2120</ele>
        <time>2019-09-12T15:29:50+02:00</time>
      </trkpt>
      <trkpt lat="44.71063" lon="5.81926">
        <ele>2119</ele>
        <time>2019-09-12T15:29:55+02:00</time>
      </trkpt>
      <trkpt lat="44.7106" lon="5.81932">
        <ele>2117</ele>
        <time>2019-09-12T15:29:59+02:00</time>
      </trkpt>
      <trkpt lat="44.7105" lon="5.81949">
        <ele>2113</ele>
        <time>2019-09-12T15:30:15+02:00</time>
      </trkpt>
      <trkpt lat="44.71043" lon="5.81958">
        <ele>2110</ele>
        <time>2019-09-12T15:30:25+02:00</time>
      </trkpt>
      <trkpt lat="44.71043" lon="5.81959">
        <ele>2110</ele>
        <time>2019-09-12T15:30:26+02:00</time>
      </trkpt>
      <trkpt lat="44.71034" lon="5.81974">
        <ele>2107</ele>
        <time>2019-09-12T15:30:40+02:00</time>
      </trkpt>
      <trkpt lat="44.71033" lon="5.81975">
        <ele>2107</ele>
        <time>2019-09-12T15:30:41+02:00</time>
      </trkpt>
      <trkpt lat="44.71025" lon="5.81981">
        <ele>2104</ele>
        <time>2019-09-12T15:30:50+02:00</time>
      </trkpt>
      <trkpt lat="44.71013" lon="5.81993">
        <ele>2100</ele>
        <time>2019-09-12T15:31:06+02:00</time>
      </trkpt>
      <trkpt lat="44.71005" lon="5.82002">
        <ele>2097</ele>
        <time>2019-09-12T15:31:18+02:00</time>
      </trkpt>
      <trkpt lat="44.70994" lon="5.82015">
        <ele>2092</ele>
        <time>2019-09-12T15:31:32+02:00</time>
      </trkpt>
      <trkpt lat="44.70988" lon="5.82023">
        <ele>2089</ele>
        <time>2019-09-12T15:31:45+02:00</time>
      </trkpt>
      <trkpt lat="44.70984" lon="5.82028">
        <ele>2088</ele>
        <time>2019-09-12T15:31:55+02:00</time>
      </trkpt>
      <trkpt lat="44.7098" lon="5.82037">
        <ele>2086</ele>
        <time>2019-09-12T15:32:03+02:00</time>
      </trkpt>
      <trkpt lat="44.7098" lon="5.82038">
        <ele>2086</ele>
        <time>2019-09-12T15:32:04+02:00</time>
      </trkpt>
      <trkpt lat="44.70974" lon="5.82047">
        <ele>2083</ele>
        <time>2019-09-12T15:32:15+02:00</time>
      </trkpt>
      <trkpt lat="44.70964" lon="5.82061">
        <ele>2078</ele>
        <time>2019-09-12T15:32:31+02:00</time>
      </trkpt>
      <trkpt lat="44.70963" lon="5.82063">
        <ele>2077</ele>
        <time>2019-09-12T15:32:35+02:00</time>
      </trkpt>
      <trkpt lat="44.70958" lon="5.82074">
        <ele>2074</ele>
        <time>2019-09-12T15:32:50+02:00</time>
      </trkpt>
      <trkpt lat="44.70956" lon="5.82085">
        <ele>2070</ele>
        <time>2019-09-12T15:33:03+02:00</time>
      </trkpt>
      <trkpt lat="44.70955" lon="5.82087">
        <ele>2070</ele>
        <time>2019-09-12T15:33:05+02:00</time>
      </trkpt>
      <trkpt lat="44.70949" lon="5.82093">
        <ele>2067</ele>
        <time>2019-09-12T15:33:16+02:00</time>
      </trkpt>
      <trkpt lat="44.70948" lon="5.82094">
        <ele>2066</ele>
        <time>2019-09-12T15:33:17+02:00</time>
      </trkpt>
      <trkpt lat="44.70945" lon="5.82101">
        <ele>2064</ele>
        <time>2019-09-12T15:33:32+02:00</time>
      </trkpt>
      <trkpt lat="44.70946" lon="5.82103">
        <ele>2064</ele>
        <time>2019-09-12T15:33:35+02:00</time>
      </trkpt>
      <trkpt lat="44.70953" lon="5.82116">
        <ele>2062</ele>
        <time>2019-09-12T15:33:52+02:00</time>
      </trkpt>
      <trkpt lat="44.70953" lon="5.82124">
        <ele>2060</ele>
        <time>2019-09-12T15:34:05+02:00</time>
      </trkpt>
      <trkpt lat="44.70962" lon="5.82136">
        <ele>2059</ele>
        <time>2019-09-12T15:34:20+02:00</time>
      </trkpt>
      <trkpt lat="44.70969" lon="5.82149">
        <ele>2057</ele>
        <time>2019-09-12T15:34:35+02:00</time>
      </trkpt>
      <trkpt lat="44.70971" lon="5.82153">
        <ele>2056</ele>
        <time>2019-09-12T15:34:39+02:00</time>
      </trkpt>
      <trkpt lat="44.70976" lon="5.82165">
        <ele>2053</ele>
        <time>2019-09-12T15:34:55+02:00</time>
      </trkpt>
      <trkpt lat="44.70982" lon="5.82174">
        <ele>2050</ele>
        <time>2019-09-12T15:35:11+02:00</time>
      </trkpt>
      <trkpt lat="44.70984" lon="5.82175">
        <ele>2050</ele>
        <time>2019-09-12T15:35:27+02:00</time>
      </trkpt>
      <trkpt lat="44.70994" lon="5.82181">
        <ele>2049</ele>
        <time>2019-09-12T15:35:43+02:00</time>
      </trkpt>
      <trkpt lat="44.70995" lon="5.8218">
        <ele>2050</ele>
        <time>2019-09-12T15:35:57+02:00</time>
      </trkpt>
      <trkpt lat="44.71005" lon="5.82188">
        <ele>2048</ele>
        <time>2019-09-12T15:36:14+02:00</time>
      </trkpt>
      <trkpt lat="44.71018" lon="5.82196">
        <ele>2047</ele>
        <time>2019-09-12T15:36:33+02:00</time>
      </trkpt>
      <trkpt lat="44.71027" lon="5.82204">
        <ele>2045</ele>
        <time>2019-09-12T15:36:49+02:00</time>
      </trkpt>
      <trkpt lat="44.71032" lon="5.82206">
        <ele>2045</ele>
        <time>2019-09-12T15:37:05+02:00</time>
      </trkpt>
      <trkpt lat="44.7103" lon="5.82209">
        <ele>2043</ele>
        <time>2019-09-12T15:37:19+02:00</time>
      </trkpt>
      <trkpt lat="44.71027" lon="5.82213">
        <ele>2040</ele>
        <time>2019-09-12T15:37:34+02:00</time>
      </trkpt>
      <trkpt lat="44.71024" lon="5.82214">
        <ele>2039</ele>
        <time>2019-09-12T15:37:48+02:00</time>
      </trkpt>
      <trkpt lat="44.71021" lon="5.82216">
        <ele>2038</ele>
        <time>2019-09-12T15:38:02+02:00</time>
      </trkpt>
      <trkpt lat="44.71021" lon="5.82217">
        <ele>2037</ele>
        <time>2019-09-12T15:38:18+02:00</time>
      </trkpt>
      <trkpt lat="44.7102" lon="5.8222">
        <ele>2036</ele>
        <time>2019-09-12T15:38:34+02:00</time>
      </trkpt>
      <trkpt lat="44.71019" lon="5.8222">
        <ele>2035</ele>
        <time>2019-09-12T15:38:49+02:00</time>
      </trkpt>
      <trkpt lat="44.71017" lon="5.82224">
        <ele>2033</ele>
        <time>2019-09-12T15:39:04+02:00</time>
      </trkpt>
      <trkpt lat="44.71013" lon="5.82227">
        <ele>2030</ele>
        <time>2019-09-12T15:39:17+02:00</time>
      </trkpt>
      <trkpt lat="44.71011" lon="5.82231">
        <ele>2028</ele>
        <time>2019-09-12T15:39:35+02:00</time>
      </trkpt>
      <trkpt lat="44.7101" lon="5.82237">
        <ele>2025</ele>
        <time>2019-09-12T15:39:51+02:00</time>
      </trkpt>
      <trkpt lat="44.71009" lon="5.82241">
        <ele>2022</ele>
        <time>2019-09-12T15:40:07+02:00</time>
      </trkpt>
      <trkpt lat="44.71005" lon="5.82242">
        <ele>2021</ele>
        <time>2019-09-12T15:40:21+02:00</time>
      </trkpt>
      <trkpt lat="44.71003" lon="5.82247">
        <ele>2017</ele>
        <time>2019-09-12T15:40:33+02:00</time>
      </trkpt>
      <trkpt lat="44.71001" lon="5.82252">
        <ele>2014</ele>
        <time>2019-09-12T15:40:47+02:00</time>
      </trkpt>
      <trkpt lat="44.71" lon="5.82256">
        <ele>2012</ele>
        <time>2019-09-12T15:41:01+02:00</time>
      </trkpt>
      <trkpt lat="44.70997" lon="5.82259">
        <ele>2009</ele>
        <time>2019-09-12T15:41:16+02:00</time>
      </trkpt>
      <trkpt lat="44.70997" lon="5.82262">
        <ele>2008</ele>
        <time>2019-09-12T15:41:24+02:00</time>
      </trkpt>
      <trkpt lat="44.70996" lon="5.82268">
        <ele>2005</ele>
        <time>2019-09-12T15:41:36+02:00</time>
      </trkpt>
      <trkpt lat="44.70995" lon="5.8227">
        <ele>2003</ele>
        <time>2019-09-12T15:41:53+02:00</time>
      </trkpt>
      <trkpt lat="44.70992" lon="5.82274">
        <ele>2000</ele>
        <time>2019-09-12T15:42:03+02:00</time>
      </trkpt>
      <trkpt lat="44.70992" lon="5.82276">
        <ele>1999</ele>
        <time>2019-09-12T15:42:18+02:00</time>
      </trkpt>
      <trkpt lat="44.7099" lon="5.82278">
        <ele>1997</ele>
        <time>2019-09-12T15:42:35+02:00</time>
      </trkpt>
      <trkpt lat="44.70987" lon="5.82281">
        <ele>1995</ele>
        <time>2019-09-12T15:42:49+02:00</time>
      </trkpt>
      <trkpt lat="44.70983" lon="5.82283">
        <ele>1993</ele>
        <time>2019-09-12T15:43:05+02:00</time>
      </trkpt>
      <trkpt lat="44.70982" lon="5.82287">
        <ele>1991</ele>
        <time>2019-09-12T15:43:16+02:00</time>
      </trkpt>
      <trkpt lat="44.70982" lon="5.82293">
        <ele>1988</ele>
        <time>2019-09-12T15:43:31+02:00</time>
      </trkpt>
      <trkpt lat="44.70982" lon="5.82296">
        <ele>1987</ele>
        <time>2019-09-12T15:43:46+02:00</time>
      </trkpt>
      <trkpt lat="44.70981" lon="5.823">
        <ele>1985</ele>
        <time>2019-09-12T15:44:01+02:00</time>
      </trkpt>
      <trkpt lat="44.7098" lon="5.82303">
        <ele>1982</ele>
        <time>2019-09-12T15:44:12+02:00</time>
      </trkpt>
      <trkpt lat="44.70977" lon="5.82306">
        <ele>1981</ele>
        <time>2019-09-12T15:44:28+02:00</time>
      </trkpt>
      <trkpt lat="44.70975" lon="5.82311">
        <ele>1978</ele>
        <time>2019-09-12T15:44:45+02:00</time>
      </trkpt>
      <trkpt lat="44.70972" lon="5.82313">
        <ele>1976</ele>
        <time>2019-09-12T15:45:05+02:00</time>
      </trkpt>
      <trkpt lat="44.70971" lon="5.82319">
        <ele>1973</ele>
        <time>2019-09-12T15:45:19+02:00</time>
      </trkpt>
      <trkpt lat="44.70969" lon="5.82323">
        <ele>1970</ele>
        <time>2019-09-12T15:45:33+02:00</time>
      </trkpt>
      <trkpt lat="44.70966" lon="5.82326">
        <ele>1968</ele>
        <time>2019-09-12T15:45:48+02:00</time>
      </trkpt>
      <trkpt lat="44.70965" lon="5.82329">
        <ele>1966</ele>
        <time>2019-09-12T15:46:02+02:00</time>
      </trkpt>
      <trkpt lat="44.7096" lon="5.8233">
        <ele>1964</ele>
        <time>2019-09-12T15:46:14+02:00</time>
      </trkpt>
      <trkpt lat="44.70954" lon="5.82337">
        <ele>1960</ele>
        <time>2019-09-12T15:46:28+02:00</time>
      </trkpt>
      <trkpt lat="44.70951" lon="5.82342">
        <ele>1957</ele>
        <time>2019-09-12T15:46:42+02:00</time>
      </trkpt>
      <trkpt lat="44.70947" lon="5.82345">
        <ele>1954</ele>
        <time>2019-09-12T15:46:53+02:00</time>
      </trkpt>
      <trkpt lat="44.70946" lon="5.82345">
        <ele>1954</ele>
        <time>2019-09-12T15:46:54+02:00</time>
      </trkpt>
      <trkpt lat="44.70944" lon="5.82346">
        <ele>1953</ele>
        <time>2019-09-12T15:47:06+02:00</time>
      </trkpt>
      <trkpt lat="44.70939" lon="5.82345">
        <ele>1952</ele>
        <time>2019-09-12T15:47:21+02:00</time>
      </trkpt>
      <trkpt lat="44.70935" lon="5.82343">
        <ele>1952</ele>
        <time>2019-09-12T15:47:35+02:00</time>
      </trkpt>
      <trkpt lat="44.70933" lon="5.82349">
        <ele>1948</ele>
        <time>2019-09-12T15:47:47+02:00</time>
      </trkpt>
      <trkpt lat="44.70931" lon="5.82353">
        <ele>1946</ele>
        <time>2019-09-12T15:48:02+02:00</time>
      </trkpt>
      <trkpt lat="44.70928" lon="5.82355">
        <ele>1944</ele>
        <time>2019-09-12T15:48:15+02:00</time>
      </trkpt>
      <trkpt lat="44.70925" lon="5.82362">
        <ele>1940</ele>
        <time>2019-09-12T15:48:30+02:00</time>
      </trkpt>
      <trkpt lat="44.70923" lon="5.82367">
        <ele>1937</ele>
        <time>2019-09-12T15:48:44+02:00</time>
      </trkpt>
      <trkpt lat="44.70916" lon="5.82369">
        <ele>1935</ele>
        <time>2019-09-12T15:48:58+02:00</time>
      </trkpt>
      <trkpt lat="44.70916" lon="5.82369">
        <ele>1934</ele>
        <time>2019-09-12T15:48:59+02:00</time>
      </trkpt>
      <trkpt lat="44.7091" lon="5.8237">
        <ele>1932</ele>
        <time>2019-09-12T15:49:14+02:00</time>
      </trkpt>
      <trkpt lat="44.70907" lon="5.82376">
        <ele>1928</ele>
        <time>2019-09-12T15:49:28+02:00</time>
      </trkpt>
      <trkpt lat="44.70904" lon="5.82381">
        <ele>1925</ele>
        <time>2019-09-12T15:49:38+02:00</time>
      </trkpt>
      <trkpt lat="44.70899" lon="5.82386">
        <ele>1922</ele>
        <time>2019-09-12T15:49:52+02:00</time>
      </trkpt>
      <trkpt lat="44.70896" lon="5.82395">
        <ele>1918</ele>
        <time>2019-09-12T15:50:04+02:00</time>
      </trkpt>
      <trkpt lat="44.70891" lon="5.82402">
        <ele>1914</ele>
        <time>2019-09-12T15:50:16+02:00</time>
      </trkpt>
      <trkpt lat="44.7089" lon="5.82405">
        <ele>1913</ele>
        <time>2019-09-12T15:50:20+02:00</time>
      </trkpt>
      <trkpt lat="44.70883" lon="5.82415">
        <ele>1908</ele>
        <time>2019-09-12T15:50:35+02:00</time>
      </trkpt>
      <trkpt lat="44.70882" lon="5.82419">
        <ele>1906</ele>
        <time>2019-09-12T15:50:39+02:00</time>
      </trkpt>
      <trkpt lat="44.7088" lon="5.82433">
        <ele>1903</ele>
        <time>2019-09-12T15:50:54+02:00</time>
      </trkpt>
      <trkpt lat="44.70878" lon="5.82441">
        <ele>1901</ele>
        <time>2019-09-12T15:51:08+02:00</time>
      </trkpt>
      <trkpt lat="44.70876" lon="5.82444">
        <ele>1900</ele>
        <time>2019-09-12T15:51:12+02:00</time>
      </trkpt>
      <trkpt lat="44.70874" lon="5.82448">
        <ele>1899</ele>
        <time>2019-09-12T15:51:17+02:00</time>
      </trkpt>
      <trkpt lat="44.70874" lon="5.8246">
        <ele>1897</ele>
        <time>2019-09-12T15:51:30+02:00</time>
      </trkpt>
      <trkpt lat="44.70875" lon="5.82472">
        <ele>1895</ele>
        <time>2019-09-12T15:51:42+02:00</time>
      </trkpt>
      <trkpt lat="44.70873" lon="5.82482">
        <ele>1893</ele>
        <time>2019-09-12T15:51:53+02:00</time>
      </trkpt>
      <trkpt lat="44.70871" lon="5.82483">
        <ele>1892</ele>
        <time>2019-09-12T15:51:55+02:00</time>
      </trkpt>
      <trkpt lat="44.70867" lon="5.82493">
        <ele>1890</ele>
        <time>2019-09-12T15:52:05+02:00</time>
      </trkpt>
      <trkpt lat="44.70862" lon="5.82515">
        <ele>1885</ele>
        <time>2019-09-12T15:52:23+02:00</time>
      </trkpt>
      <trkpt lat="44.70861" lon="5.82536">
        <ele>1881</ele>
        <time>2019-09-12T15:52:39+02:00</time>
      </trkpt>
      <trkpt lat="44.7086" lon="5.82549">
        <ele>1878</ele>
        <time>2019-09-12T15:52:52+02:00</time>
      </trkpt>
      <trkpt lat="44.70856" lon="5.82563">
        <ele>1875</ele>
        <time>2019-09-12T15:53:04+02:00</time>
      </trkpt>
      <trkpt lat="44.70855" lon="5.82569">
        <ele>1874</ele>
        <time>2019-09-12T15:53:08+02:00</time>
      </trkpt>
      <trkpt lat="44.70856" lon="5.8258">
        <ele>1871</ele>
        <time>2019-09-12T15:53:25+02:00</time>
      </trkpt>
      <trkpt lat="44.70854" lon="5.82577">
        <ele>1872</ele>
        <time>2019-09-12T15:53:44+02:00</time>
      </trkpt>
      <trkpt lat="44.70852" lon="5.82578">
        <ele>1872</ele>
        <time>2019-09-12T15:54:06+02:00</time>
      </trkpt>
      <trkpt lat="44.70851" lon="5.82574">
        <ele>1872</ele>
        <time>2019-09-12T15:54:26+02:00</time>
      </trkpt>
      <trkpt lat="44.7085" lon="5.82583">
        <ele>1871</ele>
        <time>2019-09-12T15:54:46+02:00</time>
      </trkpt>
      <trkpt lat="44.70851" lon="5.82581">
        <ele>1871</ele>
        <time>2019-09-12T15:54:50+02:00</time>
      </trkpt>
      <trkpt lat="44.70852" lon="5.82584">
        <ele>1871</ele>
        <time>2019-09-12T15:55:06+02:00</time>
      </trkpt>
      <trkpt lat="44.7085" lon="5.82581">
        <ele>1871</ele>
        <time>2019-09-12T15:55:23+02:00</time>
      </trkpt>
      <trkpt lat="44.70852" lon="5.82576">
        <ele>1872</ele>
        <time>2019-09-12T15:55:38+02:00</time>
      </trkpt>
      <trkpt lat="44.7085" lon="5.82578">
        <ele>1872</ele>
        <time>2019-09-12T15:55:49+02:00</time>
      </trkpt>
      <trkpt lat="44.70854" lon="5.82579">
        <ele>1872</ele>
        <time>2019-09-12T15:56:02+02:00</time>
      </trkpt>
      <trkpt lat="44.70857" lon="5.82581">
        <ele>1871</ele>
        <time>2019-09-12T15:56:16+02:00</time>
      </trkpt>
      <trkpt lat="44.70856" lon="5.82582">
        <ele>1871</ele>
        <time>2019-09-12T15:56:28+02:00</time>
      </trkpt>
      <trkpt lat="44.7086" lon="5.82583">
        <ele>1871</ele>
        <time>2019-09-12T15:56:48+02:00</time>
      </trkpt>
      <trkpt lat="44.70857" lon="5.8259">
        <ele>1869</ele>
        <time>2019-09-12T15:57:06+02:00</time>
      </trkpt>
      <trkpt lat="44.70852" lon="5.82586">
        <ele>1870</ele>
        <time>2019-09-12T15:57:35+02:00</time>
      </trkpt>
      <trkpt lat="44.70852" lon="5.82591">
        <ele>1869</ele>
        <time>2019-09-12T15:58:07+02:00</time>
      </trkpt>
      <trkpt lat="44.70851" lon="5.82595">
        <ele>1868</ele>
        <time>2019-09-12T15:58:43+02:00</time>
      </trkpt>
      <trkpt lat="44.70856" lon="5.82592">
        <ele>1869</ele>
        <time>2019-09-12T15:59:00+02:00</time>
      </trkpt>
      <trkpt lat="44.70856" lon="5.82596">
        <ele>1868</ele>
        <time>2019-09-12T15:59:14+02:00</time>
      </trkpt>
      <trkpt lat="44.70859" lon="5.82605">
        <ele>1866</ele>
        <time>2019-09-12T15:59:27+02:00</time>
      </trkpt>
      <trkpt lat="44.70863" lon="5.82617">
        <ele>1863</ele>
        <time>2019-09-12T15:59:37+02:00</time>
      </trkpt>
      <trkpt lat="44.70867" lon="5.82632">
        <ele>1860</ele>
        <time>2019-09-12T15:59:53+02:00</time>
      </trkpt>
      <trkpt lat="44.70869" lon="5.82636">
        <ele>1860</ele>
        <time>2019-09-12T15:59:57+02:00</time>
      </trkpt>
      <trkpt lat="44.70871" lon="5.82638">
        <ele>1859</ele>
        <time>2019-09-12T16:00:00+02:00</time>
      </trkpt>
      <trkpt lat="44.70876" lon="5.8266">
        <ele>1858</ele>
        <time>2019-09-12T16:00:16+02:00</time>
      </trkpt>
      <trkpt lat="44.70878" lon="5.82679">
        <ele>1855</ele>
        <time>2019-09-12T16:00:32+02:00</time>
      </trkpt>
      <trkpt lat="44.70882" lon="5.82686">
        <ele>1852</ele>
        <time>2019-09-12T16:00:42+02:00</time>
      </trkpt>
      <trkpt lat="44.70892" lon="5.82687">
        <ele>1852</ele>
        <time>2019-09-12T16:00:56+02:00</time>
      </trkpt>
      <trkpt lat="44.709" lon="5.82698">
        <ele>1848</ele>
        <time>2019-09-12T16:01:12+02:00</time>
      </trkpt>
      <trkpt lat="44.70909" lon="5.82707">
        <ele>1845</ele>
        <time>2019-09-12T16:01:28+02:00</time>
      </trkpt>
      <trkpt lat="44.70914" lon="5.82711">
        <ele>1844</ele>
        <time>2019-09-12T16:01:41+02:00</time>
      </trkpt>
      <trkpt lat="44.7092" lon="5.82717">
        <ele>1841</ele>
        <time>2019-09-12T16:01:55+02:00</time>
      </trkpt>
      <trkpt lat="44.70928" lon="5.82723">
        <ele>1837</ele>
        <time>2019-09-12T16:02:09+02:00</time>
      </trkpt>
      <trkpt lat="44.7094" lon="5.82725">
        <ele>1834</ele>
        <time>2019-09-12T16:02:23+02:00</time>
      </trkpt>
      <trkpt lat="44.70953" lon="5.82728">
        <ele>1832</ele>
        <time>2019-09-12T16:02:39+02:00</time>
      </trkpt>
      <trkpt lat="44.7096" lon="5.8274">
        <ele>1829</ele>
        <time>2019-09-12T16:02:54+02:00</time>
      </trkpt>
      <trkpt lat="44.7096" lon="5.82742">
        <ele>1828</ele>
        <time>2019-09-12T16:02:56+02:00</time>
      </trkpt>
      <trkpt lat="44.70956" lon="5.82764">
        <ele>1823</ele>
        <time>2019-09-12T16:03:13+02:00</time>
      </trkpt>
      <trkpt lat="44.70949" lon="5.82785">
        <ele>1819</ele>
        <time>2019-09-12T16:03:29+02:00</time>
      </trkpt>
      <trkpt lat="44.70951" lon="5.82808">
        <ele>1814</ele>
        <time>2019-09-12T16:03:47+02:00</time>
      </trkpt>
      <trkpt lat="44.70957" lon="5.8282">
        <ele>1813</ele>
        <time>2019-09-12T16:04:01+02:00</time>
      </trkpt>
      <trkpt lat="44.70962" lon="5.82834">
        <ele>1812</ele>
        <time>2019-09-12T16:04:17+02:00</time>
      </trkpt>
      <trkpt lat="44.7096" lon="5.82852">
        <ele>1809</ele>
        <time>2019-09-12T16:04:33+02:00</time>
      </trkpt>
      <trkpt lat="44.70959" lon="5.82856">
        <ele>1809</ele>
        <time>2019-09-12T16:04:37+02:00</time>
      </trkpt>
      <trkpt lat="44.70956" lon="5.82867">
        <ele>1807</ele>
        <time>2019-09-12T16:04:47+02:00</time>
      </trkpt>
      <trkpt lat="44.70946" lon="5.8289">
        <ele>1802</ele>
        <time>2019-09-12T16:05:05+02:00</time>
      </trkpt>
      <trkpt lat="44.70948" lon="5.8291">
        <ele>1801</ele>
        <time>2019-09-12T16:05:21+02:00</time>
      </trkpt>
      <trkpt lat="44.70951" lon="5.82922">
        <ele>1800</ele>
        <time>2019-09-12T16:05:29+02:00</time>
      </trkpt>
      <trkpt lat="44.70954" lon="5.82936">
        <ele>1799</ele>
        <time>2019-09-12T16:05:39+02:00</time>
      </trkpt>
      <trkpt lat="44.70955" lon="5.82963">
        <ele>1797</ele>
        <time>2019-09-12T16:05:57+02:00</time>
      </trkpt>
      <trkpt lat="44.70958" lon="5.82984">
        <ele>1796</ele>
        <time>2019-09-12T16:06:11+02:00</time>
      </trkpt>
      <trkpt lat="44.70959" lon="5.83018">
        <ele>1793</ele>
        <time>2019-09-12T16:06:29+02:00</time>
      </trkpt>
      <trkpt lat="44.70961" lon="5.8304">
        <ele>1792</ele>
        <time>2019-09-12T16:06:45+02:00</time>
      </trkpt>
      <trkpt lat="44.70961" lon="5.83041">
        <ele>1792</ele>
        <time>2019-09-12T16:06:49+02:00</time>
      </trkpt>
      <trkpt lat="44.70961" lon="5.83045">
        <ele>1792</ele>
        <time>2019-09-12T16:06:52+02:00</time>
      </trkpt>
      <trkpt lat="44.70956" lon="5.83069">
        <ele>1790</ele>
        <time>2019-09-12T16:07:07+02:00</time>
      </trkpt>
      <trkpt lat="44.70953" lon="5.83095">
        <ele>1789</ele>
        <time>2019-09-12T16:07:24+02:00</time>
      </trkpt>
      <trkpt lat="44.70952" lon="5.83112">
        <ele>1788</ele>
        <time>2019-09-12T16:07:36+02:00</time>
      </trkpt>
      <trkpt lat="44.70952" lon="5.83137">
        <ele>1787</ele>
        <time>2019-09-12T16:07:53+02:00</time>
      </trkpt>
      <trkpt lat="44.70953" lon="5.83157">
        <ele>1787</ele>
        <time>2019-09-12T16:08:09+02:00</time>
      </trkpt>
      <trkpt lat="44.70954" lon="5.8318">
        <ele>1787</ele>
        <time>2019-09-12T16:08:25+02:00</time>
      </trkpt>
      <trkpt lat="44.70949" lon="5.83203">
        <ele>1785</ele>
        <time>2019-09-12T16:08:43+02:00</time>
      </trkpt>
      <trkpt lat="44.70946" lon="5.83227">
        <ele>1784</ele>
        <time>2019-09-12T16:08:59+02:00</time>
      </trkpt>
      <trkpt lat="44.70947" lon="5.83249">
        <ele>1783</ele>
        <time>2019-09-12T16:09:13+02:00</time>
      </trkpt>
      <trkpt lat="44.70941" lon="5.83283">
        <ele>1781</ele>
        <time>2019-09-12T16:09:34+02:00</time>
      </trkpt>
      <trkpt lat="44.70936" lon="5.83316">
        <ele>1779</ele>
        <time>2019-09-12T16:09:55+02:00</time>
      </trkpt>
      <trkpt lat="44.70936" lon="5.8335">
        <ele>1778</ele>
        <time>2019-09-12T16:10:15+02:00</time>
      </trkpt>
      <trkpt lat="44.70931" lon="5.83367">
        <ele>1777</ele>
        <time>2019-09-12T16:10:30+02:00</time>
      </trkpt>
      <trkpt lat="44.70924" lon="5.83385">
        <ele>1776</ele>
        <time>2019-09-12T16:10:46+02:00</time>
      </trkpt>
      <trkpt lat="44.70923" lon="5.83389">
        <ele>1775</ele>
        <time>2019-09-12T16:10:49+02:00</time>
      </trkpt>
      <trkpt lat="44.70923" lon="5.83392">
        <ele>1775</ele>
        <time>2019-09-12T16:10:51+02:00</time>
      </trkpt>
      <trkpt lat="44.70925" lon="5.83403">
        <ele>1774</ele>
        <time>2019-09-12T16:10:59+02:00</time>
      </trkpt>
      <trkpt lat="44.70921" lon="5.83422">
        <ele>1772</ele>
        <time>2019-09-12T16:11:15+02:00</time>
      </trkpt>
      <trkpt lat="44.7091" lon="5.83436">
        <ele>1772</ele>
        <time>2019-09-12T16:11:31+02:00</time>
      </trkpt>
      <trkpt lat="44.70906" lon="5.83443">
        <ele>1772</ele>
        <time>2019-09-12T16:11:38+02:00</time>
      </trkpt>
      <trkpt lat="44.70897" lon="5.83469">
        <ele>1770</ele>
        <time>2019-09-12T16:11:58+02:00</time>
      </trkpt>
      <trkpt lat="44.70892" lon="5.83486">
        <ele>1769</ele>
        <time>2019-09-12T16:12:16+02:00</time>
      </trkpt>
      <trkpt lat="44.70886" lon="5.83499">
        <ele>1768</ele>
        <time>2019-09-12T16:12:32+02:00</time>
      </trkpt>
      <trkpt lat="44.70879" lon="5.83519">
        <ele>1768</ele>
        <time>2019-09-12T16:12:46+02:00</time>
      </trkpt>
      <trkpt lat="44.70872" lon="5.83542">
        <ele>1767</ele>
        <time>2019-09-12T16:13:02+02:00</time>
      </trkpt>
      <trkpt lat="44.70865" lon="5.83561">
        <ele>1766</ele>
        <time>2019-09-12T16:13:18+02:00</time>
      </trkpt>
      <trkpt lat="44.70858" lon="5.83583">
        <ele>1766</ele>
        <time>2019-09-12T16:13:35+02:00</time>
      </trkpt>
      <trkpt lat="44.70848" lon="5.83601">
        <ele>1768</ele>
        <time>2019-09-12T16:13:52+02:00</time>
      </trkpt>
      <trkpt lat="44.70838" lon="5.83618">
        <ele>1770</ele>
        <time>2019-09-12T16:14:08+02:00</time>
      </trkpt>
      <trkpt lat="44.70832" lon="5.83638">
        <ele>1769</ele>
        <time>2019-09-12T16:14:26+02:00</time>
      </trkpt>
      <trkpt lat="44.70823" lon="5.83654">
        <ele>1769</ele>
        <time>2019-09-12T16:14:42+02:00</time>
      </trkpt>
      <trkpt lat="44.70818" lon="5.83662">
        <ele>1770</ele>
        <time>2019-09-12T16:14:49+02:00</time>
      </trkpt>
      <trkpt lat="44.70807" lon="5.83677">
        <ele>1771</ele>
        <time>2019-09-12T16:15:06+02:00</time>
      </trkpt>
      <trkpt lat="44.70801" lon="5.83683">
        <ele>1772</ele>
        <time>2019-09-12T16:15:21+02:00</time>
      </trkpt>
      <trkpt lat="44.70797" lon="5.83693">
        <ele>1771</ele>
        <time>2019-09-12T16:15:42+02:00</time>
      </trkpt>
      <trkpt lat="44.7079" lon="5.8371">
        <ele>1770</ele>
        <time>2019-09-12T16:15:57+02:00</time>
      </trkpt>
      <trkpt lat="44.70782" lon="5.83733">
        <ele>1768</ele>
        <time>2019-09-12T16:16:14+02:00</time>
      </trkpt>
      <trkpt lat="44.70778" lon="5.83748">
        <ele>1765</ele>
        <time>2019-09-12T16:16:26+02:00</time>
      </trkpt>
      <trkpt lat="44.70771" lon="5.83764">
        <ele>1766</ele>
        <time>2019-09-12T16:16:40+02:00</time>
      </trkpt>
      <trkpt lat="44.7077" lon="5.83765">
        <ele>1766</ele>
        <time>2019-09-12T16:16:41+02:00</time>
      </trkpt>
      <trkpt lat="44.70759" lon="5.83781">
        <ele>1768</ele>
        <time>2019-09-12T16:16:58+02:00</time>
      </trkpt>
      <trkpt lat="44.70757" lon="5.83797">
        <ele>1765</ele>
        <time>2019-09-12T16:17:12+02:00</time>
      </trkpt>
      <trkpt lat="44.70751" lon="5.83814">
        <ele>1764</ele>
        <time>2019-09-12T16:17:24+02:00</time>
      </trkpt>
      <trkpt lat="44.70743" lon="5.8383">
        <ele>1766</ele>
        <time>2019-09-12T16:17:40+02:00</time>
      </trkpt>
      <trkpt lat="44.70742" lon="5.83833">
        <ele>1765</ele>
        <time>2019-09-12T16:17:43+02:00</time>
      </trkpt>
      <trkpt lat="44.70737" lon="5.83848">
        <ele>1766</ele>
        <time>2019-09-12T16:17:58+02:00</time>
      </trkpt>
      <trkpt lat="44.7073" lon="5.83858">
        <ele>1768</ele>
        <time>2019-09-12T16:18:14+02:00</time>
      </trkpt>
      <trkpt lat="44.70725" lon="5.83873">
        <ele>1770</ele>
        <time>2019-09-12T16:18:31+02:00</time>
      </trkpt>
      <trkpt lat="44.70723" lon="5.83892">
        <ele>1770</ele>
        <time>2019-09-12T16:18:46+02:00</time>
      </trkpt>
      <trkpt lat="44.70724" lon="5.839">
        <ele>1770</ele>
        <time>2019-09-12T16:19:02+02:00</time>
      </trkpt>
      <trkpt lat="44.70723" lon="5.83915">
        <ele>1773</ele>
        <time>2019-09-12T16:19:18+02:00</time>
      </trkpt>
      <trkpt lat="44.70725" lon="5.83931">
        <ele>1773</ele>
        <time>2019-09-12T16:19:31+02:00</time>
      </trkpt>
      <trkpt lat="44.70727" lon="5.8395">
        <ele>1775</ele>
        <time>2019-09-12T16:19:46+02:00</time>
      </trkpt>
      <trkpt lat="44.70732" lon="5.83971">
        <ele>1777</ele>
        <time>2019-09-12T16:20:02+02:00</time>
      </trkpt>
      <trkpt lat="44.70732" lon="5.83983">
        <ele>1778</ele>
        <time>2019-09-12T16:20:18+02:00</time>
      </trkpt>
      <trkpt lat="44.70735" lon="5.84001">
        <ele>1780</ele>
        <time>2019-09-12T16:20:34+02:00</time>
      </trkpt>
      <trkpt lat="44.70735" lon="5.84019">
        <ele>1782</ele>
        <time>2019-09-12T16:20:50+02:00</time>
      </trkpt>
      <trkpt lat="44.70734" lon="5.84029">
        <ele>1784</ele>
        <time>2019-09-12T16:21:05+02:00</time>
      </trkpt>
      <trkpt lat="44.70732" lon="5.84043">
        <ele>1787</ele>
        <time>2019-09-12T16:21:22+02:00</time>
      </trkpt>
      <trkpt lat="44.70727" lon="5.8404">
        <ele>1789</ele>
        <time>2019-09-12T16:21:38+02:00</time>
      </trkpt>
      <trkpt lat="44.70722" lon="5.84039">
        <ele>1792</ele>
        <time>2019-09-12T16:21:51+02:00</time>
      </trkpt>
      <trkpt lat="44.70721" lon="5.84052">
        <ele>1794</ele>
        <time>2019-09-12T16:22:06+02:00</time>
      </trkpt>
      <trkpt lat="44.70718" lon="5.84062">
        <ele>1797</ele>
        <time>2019-09-12T16:22:20+02:00</time>
      </trkpt>
      <trkpt lat="44.70709" lon="5.84063">
        <ele>1800</ele>
        <time>2019-09-12T16:22:37+02:00</time>
      </trkpt>
      <trkpt lat="44.70702" lon="5.84067">
        <ele>1804</ele>
        <time>2019-09-12T16:22:51+02:00</time>
      </trkpt>
      <trkpt lat="44.70693" lon="5.84072">
        <ele>1808</ele>
        <time>2019-09-12T16:23:07+02:00</time>
      </trkpt>
      <trkpt lat="44.70682" lon="5.84076">
        <ele>1809</ele>
        <time>2019-09-12T16:23:24+02:00</time>
      </trkpt>
      <trkpt lat="44.7067" lon="5.84077">
        <ele>1811</ele>
        <time>2019-09-12T16:23:40+02:00</time>
      </trkpt>
      <trkpt lat="44.70659" lon="5.84077">
        <ele>1813</ele>
        <time>2019-09-12T16:23:53+02:00</time>
      </trkpt>
      <trkpt lat="44.70655" lon="5.84079">
        <ele>1814</ele>
        <time>2019-09-12T16:23:57+02:00</time>
      </trkpt>
      <trkpt lat="44.70647" lon="5.84082">
        <ele>1816</ele>
        <time>2019-09-12T16:24:10+02:00</time>
      </trkpt>
      <trkpt lat="44.70637" lon="5.8408">
        <ele>1819</ele>
        <time>2019-09-12T16:24:25+02:00</time>
      </trkpt>
      <trkpt lat="44.70631" lon="5.84077">
        <ele>1820</ele>
        <time>2019-09-12T16:24:35+02:00</time>
      </trkpt>
      <trkpt lat="44.70625" lon="5.84078">
        <ele>1820</ele>
        <time>2019-09-12T16:24:49+02:00</time>
      </trkpt>
      <trkpt lat="44.70617" lon="5.84084">
        <ele>1821</ele>
        <time>2019-09-12T16:25:04+02:00</time>
      </trkpt>
      <trkpt lat="44.70612" lon="5.84092">
        <ele>1823</ele>
        <time>2019-09-12T16:25:18+02:00</time>
      </trkpt>
      <trkpt lat="44.70609" lon="5.84091">
        <ele>1823</ele>
        <time>2019-09-12T16:25:30+02:00</time>
      </trkpt>
      <trkpt lat="44.70599" lon="5.84088">
        <ele>1825</ele>
        <time>2019-09-12T16:25:44+02:00</time>
      </trkpt>
      <trkpt lat="44.70589" lon="5.84088">
        <ele>1828</ele>
        <time>2019-09-12T16:25:59+02:00</time>
      </trkpt>
      <trkpt lat="44.70582" lon="5.8409">
        <ele>1829</ele>
        <time>2019-09-12T16:26:13+02:00</time>
      </trkpt>
      <trkpt lat="44.70581" lon="5.84094">
        <ele>1830</ele>
        <time>2019-09-12T16:26:25+02:00</time>
      </trkpt>
      <trkpt lat="44.70567" lon="5.84097">
        <ele>1831</ele>
        <time>2019-09-12T16:26:42+02:00</time>
      </trkpt>
      <trkpt lat="44.70558" lon="5.84105">
        <ele>1831</ele>
        <time>2019-09-12T16:26:56+02:00</time>
      </trkpt>
      <trkpt lat="44.70555" lon="5.84116">
        <ele>1831</ele>
        <time>2019-09-12T16:27:10+02:00</time>
      </trkpt>
      <trkpt lat="44.70553" lon="5.84117">
        <ele>1831</ele>
        <time>2019-09-12T16:27:27+02:00</time>
      </trkpt>
      <trkpt lat="44.70548" lon="5.84124">
        <ele>1831</ele>
        <time>2019-09-12T16:27:35+02:00</time>
      </trkpt>
      <trkpt lat="44.70546" lon="5.84132">
        <ele>1830</ele>
        <time>2019-09-12T16:27:49+02:00</time>
      </trkpt>
      <trkpt lat="44.70542" lon="5.84143">
        <ele>1829</ele>
        <time>2019-09-12T16:28:03+02:00</time>
      </trkpt>
      <trkpt lat="44.70539" lon="5.84152">
        <ele>1827</ele>
        <time>2019-09-12T16:28:16+02:00</time>
      </trkpt>
      <trkpt lat="44.70534" lon="5.84161">
        <ele>1825</ele>
        <time>2019-09-12T16:28:29+02:00</time>
      </trkpt>
      <trkpt lat="44.70529" lon="5.84169">
        <ele>1823</ele>
        <time>2019-09-12T16:28:41+02:00</time>
      </trkpt>
      <trkpt lat="44.70525" lon="5.84182">
        <ele>1820</ele>
        <time>2019-09-12T16:28:56+02:00</time>
      </trkpt>
      <trkpt lat="44.70524" lon="5.84189">
        <ele>1818</ele>
        <time>2019-09-12T16:29:08+02:00</time>
      </trkpt>
      <trkpt lat="44.70522" lon="5.84195">
        <ele>1817</ele>
        <time>2019-09-12T16:29:14+02:00</time>
      </trkpt>
      <trkpt lat="44.70515" lon="5.8422">
        <ele>1812</ele>
        <time>2019-09-12T16:29:32+02:00</time>
      </trkpt>
      <trkpt lat="44.70508" lon="5.84228">
        <ele>1811</ele>
        <time>2019-09-12T16:29:46+02:00</time>
      </trkpt>
      <trkpt lat="44.70507" lon="5.84228">
        <ele>1811</ele>
        <time>2019-09-12T16:29:48+02:00</time>
      </trkpt>
      <trkpt lat="44.70505" lon="5.84231">
        <ele>1810</ele>
        <time>2019-09-12T16:29:52+02:00</time>
      </trkpt>
      <trkpt lat="44.70487" lon="5.84243">
        <ele>1808</ele>
        <time>2019-09-12T16:30:09+02:00</time>
      </trkpt>
      <trkpt lat="44.70474" lon="5.8426">
        <ele>1806</ele>
        <time>2019-09-12T16:30:26+02:00</time>
      </trkpt>
      <trkpt lat="44.70471" lon="5.84261">
        <ele>1805</ele>
        <time>2019-09-12T16:30:31+02:00</time>
      </trkpt>
      <trkpt lat="44.70467" lon="5.84267">
        <ele>1804</ele>
        <time>2019-09-12T16:30:36+02:00</time>
      </trkpt>
      <trkpt lat="44.70454" lon="5.84279">
        <ele>1802</ele>
        <time>2019-09-12T16:30:53+02:00</time>
      </trkpt>
      <trkpt lat="44.70446" lon="5.84281">
        <ele>1801</ele>
        <time>2019-09-12T16:31:04+02:00</time>
      </trkpt>
      <trkpt lat="44.70436" lon="5.84291">
        <ele>1800</ele>
        <time>2019-09-12T16:31:12+02:00</time>
      </trkpt>
      <trkpt lat="44.70435" lon="5.84291">
        <ele>1800</ele>
        <time>2019-09-12T16:31:13+02:00</time>
      </trkpt>
      <trkpt lat="44.70416" lon="5.84298">
        <ele>1800</ele>
        <time>2019-09-12T16:31:27+02:00</time>
      </trkpt>
      <trkpt lat="44.70403" lon="5.84309">
        <ele>1799</ele>
        <time>2019-09-12T16:31:41+02:00</time>
      </trkpt>
      <trkpt lat="44.70403" lon="5.84311">
        <ele>1799</ele>
        <time>2019-09-12T16:31:44+02:00</time>
      </trkpt>
      <trkpt lat="44.70403" lon="5.84312">
        <ele>1799</ele>
        <time>2019-09-12T16:31:45+02:00</time>
      </trkpt>
      <trkpt lat="44.70402" lon="5.84313">
        <ele>1799</ele>
        <time>2019-09-12T16:31:46+02:00</time>
      </trkpt>
      <trkpt lat="44.70401" lon="5.8432">
        <ele>1799</ele>
        <time>2019-09-12T16:31:53+02:00</time>
      </trkpt>
      <trkpt lat="44.70401" lon="5.84324">
        <ele>1799</ele>
        <time>2019-09-12T16:31:56+02:00</time>
      </trkpt>
      <trkpt lat="44.70401" lon="5.84326">
        <ele>1799</ele>
        <time>2019-09-12T16:31:57+02:00</time>
      </trkpt>
      <trkpt lat="44.70401" lon="5.84328">
        <ele>1799</ele>
        <time>2019-09-12T16:31:58+02:00</time>
      </trkpt>
      <trkpt lat="44.70398" lon="5.84332">
        <ele>1799</ele>
        <time>2019-09-12T16:32:07+02:00</time>
      </trkpt>
      <trkpt lat="44.70394" lon="5.84353">
        <ele>1798</ele>
        <time>2019-09-12T16:32:15+02:00</time>
      </trkpt>
      <trkpt lat="44.70391" lon="5.84362">
        <ele>1798</ele>
        <time>2019-09-12T16:32:23+02:00</time>
      </trkpt>
      <trkpt lat="44.70391" lon="5.84364">
        <ele>1798</ele>
        <time>2019-09-12T16:32:24+02:00</time>
      </trkpt>
      <trkpt lat="44.70392" lon="5.84365">
        <ele>1798</ele>
        <time>2019-09-12T16:32:25+02:00</time>
      </trkpt>
      <trkpt lat="44.70392" lon="5.84367">
        <ele>1798</ele>
        <time>2019-09-12T16:32:26+02:00</time>
      </trkpt>
      <trkpt lat="44.70392" lon="5.84368">
        <ele>1798</ele>
        <time>2019-09-12T16:32:27+02:00</time>
      </trkpt>
      <trkpt lat="44.7039" lon="5.84391">
        <ele>1798</ele>
        <time>2019-09-12T16:32:43+02:00</time>
      </trkpt>
      <trkpt lat="44.70387" lon="5.84404">
        <ele>1797</ele>
        <time>2019-09-12T16:32:52+02:00</time>
      </trkpt>
      <trkpt lat="44.70379" lon="5.84423">
        <ele>1796</ele>
        <time>2019-09-12T16:33:08+02:00</time>
      </trkpt>
      <trkpt lat="44.70375" lon="5.84431">
        <ele>1795</ele>
        <time>2019-09-12T16:33:17+02:00</time>
      </trkpt>
      <trkpt lat="44.70374" lon="5.84439">
        <ele>1795</ele>
        <time>2019-09-12T16:33:20+02:00</time>
      </trkpt>
      <trkpt lat="44.70374" lon="5.84441">
        <ele>1795</ele>
        <time>2019-09-12T16:33:21+02:00</time>
      </trkpt>
      <trkpt lat="44.70373" lon="5.84442">
        <ele>1795</ele>
        <time>2019-09-12T16:33:22+02:00</time>
      </trkpt>
      <trkpt lat="44.70372" lon="5.84444">
        <ele>1795</ele>
        <time>2019-09-12T16:33:23+02:00</time>
      </trkpt>
      <trkpt lat="44.7037" lon="5.84448">
        <ele>1794</ele>
        <time>2019-09-12T16:33:31+02:00</time>
      </trkpt>
      <trkpt lat="44.70367" lon="5.84456">
        <ele>1794</ele>
        <time>2019-09-12T16:33:37+02:00</time>
      </trkpt>
      <trkpt lat="44.70367" lon="5.8446">
        <ele>1794</ele>
        <time>2019-09-12T16:33:39+02:00</time>
      </trkpt>
      <trkpt lat="44.70367" lon="5.84463">
        <ele>1793</ele>
        <time>2019-09-12T16:33:40+02:00</time>
      </trkpt>
      <trkpt lat="44.70366" lon="5.84468">
        <ele>1793</ele>
        <time>2019-09-12T16:33:48+02:00</time>
      </trkpt>
      <trkpt lat="44.70367" lon="5.84478">
        <ele>1793</ele>
        <time>2019-09-12T16:33:53+02:00</time>
      </trkpt>
      <trkpt lat="44.70367" lon="5.8448">
        <ele>1793</ele>
        <time>2019-09-12T16:33:54+02:00</time>
      </trkpt>
      <trkpt lat="44.70366" lon="5.84482">
        <ele>1792</ele>
        <time>2019-09-12T16:33:55+02:00</time>
      </trkpt>
      <trkpt lat="44.70364" lon="5.84481">
        <ele>1792</ele>
        <time>2019-09-12T16:34:02+02:00</time>
      </trkpt>
      <trkpt lat="44.70362" lon="5.84482">
        <ele>1792</ele>
        <time>2019-09-12T16:34:07+02:00</time>
      </trkpt>
      <trkpt lat="44.70356" lon="5.84511">
        <ele>1791</ele>
        <time>2019-09-12T16:34:18+02:00</time>
      </trkpt>
      <trkpt lat="44.70353" lon="5.84519">
        <ele>1790</ele>
        <time>2019-09-12T16:34:24+02:00</time>
      </trkpt>
      <trkpt lat="44.70349" lon="5.84532">
        <ele>1790</ele>
        <time>2019-09-12T16:34:37+02:00</time>
      </trkpt>
      <trkpt lat="44.70349" lon="5.84534">
        <ele>1789</ele>
        <time>2019-09-12T16:34:38+02:00</time>
      </trkpt>
      <trkpt lat="44.70348" lon="5.84539">
        <ele>1789</ele>
        <time>2019-09-12T16:34:42+02:00</time>
      </trkpt>
      <trkpt lat="44.70344" lon="5.84556">
        <ele>1786</ele>
        <time>2019-09-12T16:34:59+02:00</time>
      </trkpt>
      <trkpt lat="44.70337" lon="5.84572">
        <ele>1784</ele>
        <time>2019-09-12T16:35:14+02:00</time>
      </trkpt>
      <trkpt lat="44.70334" lon="5.84583">
        <ele>1782</ele>
        <time>2019-09-12T16:35:28+02:00</time>
      </trkpt>
      <trkpt lat="44.70331" lon="5.8459">
        <ele>1781</ele>
        <time>2019-09-12T16:35:36+02:00</time>
      </trkpt>
      <trkpt lat="44.7033" lon="5.8459">
        <ele>1781</ele>
        <time>2019-09-12T16:35:37+02:00</time>
      </trkpt>
      <trkpt lat="44.7032" lon="5.84606">
        <ele>1779</ele>
        <time>2019-09-12T16:35:54+02:00</time>
      </trkpt>
      <trkpt lat="44.70313" lon="5.84625">
        <ele>1776</ele>
        <time>2019-09-12T16:36:10+02:00</time>
      </trkpt>
      <trkpt lat="44.70308" lon="5.8465">
        <ele>1772</ele>
        <time>2019-09-12T16:36:28+02:00</time>
      </trkpt>
      <trkpt lat="44.70306" lon="5.84668">
        <ele>1769</ele>
        <time>2019-09-12T16:36:44+02:00</time>
      </trkpt>
      <trkpt lat="44.70303" lon="5.84678">
        <ele>1767</ele>
        <time>2019-09-12T16:36:57+02:00</time>
      </trkpt>
      <trkpt lat="44.70301" lon="5.84681">
        <ele>1767</ele>
        <time>2019-09-12T16:37:01+02:00</time>
      </trkpt>
      <trkpt lat="44.70295" lon="5.84687">
        <ele>1766</ele>
        <time>2019-09-12T16:37:09+02:00</time>
      </trkpt>
      <trkpt lat="44.70294" lon="5.84687">
        <ele>1766</ele>
        <time>2019-09-12T16:37:10+02:00</time>
      </trkpt>
      <trkpt lat="44.70293" lon="5.84688">
        <ele>1766</ele>
        <time>2019-09-12T16:37:11+02:00</time>
      </trkpt>
      <trkpt lat="44.70278" lon="5.84695">
        <ele>1765</ele>
        <time>2019-09-12T16:37:29+02:00</time>
      </trkpt>
      <trkpt lat="44.70273" lon="5.84696">
        <ele>1765</ele>
        <time>2019-09-12T16:37:40+02:00</time>
      </trkpt>
      <trkpt lat="44.70262" lon="5.84707">
        <ele>1764</ele>
        <time>2019-09-12T16:37:56+02:00</time>
      </trkpt>
      <trkpt lat="44.70258" lon="5.84714">
        <ele>1763</ele>
        <time>2019-09-12T16:38:08+02:00</time>
      </trkpt>
      <trkpt lat="44.70255" lon="5.84726">
        <ele>1760</ele>
        <time>2019-09-12T16:38:22+02:00</time>
      </trkpt>
      <trkpt lat="44.70255" lon="5.84729">
        <ele>1759</ele>
        <time>2019-09-12T16:38:25+02:00</time>
      </trkpt>
      <trkpt lat="44.70252" lon="5.84736">
        <ele>1757</ele>
        <time>2019-09-12T16:38:37+02:00</time>
      </trkpt>
      <trkpt lat="44.70246" lon="5.84745">
        <ele>1756</ele>
        <time>2019-09-12T16:38:50+02:00</time>
      </trkpt>
      <trkpt lat="44.70244" lon="5.84755">
        <ele>1753</ele>
        <time>2019-09-12T16:39:03+02:00</time>
      </trkpt>
      <trkpt lat="44.70239" lon="5.84764">
        <ele>1751</ele>
        <time>2019-09-12T16:39:16+02:00</time>
      </trkpt>
      <trkpt lat="44.70227" lon="5.84774">
        <ele>1749</ele>
        <time>2019-09-12T16:39:33+02:00</time>
      </trkpt>
      <trkpt lat="44.70221" lon="5.84778">
        <ele>1748</ele>
        <time>2019-09-12T16:39:48+02:00</time>
      </trkpt>
      <trkpt lat="44.70217" lon="5.84786">
        <ele>1746</ele>
        <time>2019-09-12T16:40:03+02:00</time>
      </trkpt>
      <trkpt lat="44.70213" lon="5.84794">
        <ele>1743</ele>
        <time>2019-09-12T16:40:16+02:00</time>
      </trkpt>
      <trkpt lat="44.7021" lon="5.84803">
        <ele>1740</ele>
        <time>2019-09-12T16:40:30+02:00</time>
      </trkpt>
      <trkpt lat="44.70203" lon="5.84808">
        <ele>1739</ele>
        <time>2019-09-12T16:40:47+02:00</time>
      </trkpt>
      <trkpt lat="44.70198" lon="5.8482">
        <ele>1736</ele>
        <time>2019-09-12T16:41:01+02:00</time>
      </trkpt>
      <trkpt lat="44.70189" lon="5.84831">
        <ele>1733</ele>
        <time>2019-09-12T16:41:15+02:00</time>
      </trkpt>
      <trkpt lat="44.70186" lon="5.84832">
        <ele>1733</ele>
        <time>2019-09-12T16:41:19+02:00</time>
      </trkpt>
      <trkpt lat="44.70178" lon="5.84837">
        <ele>1733</ele>
        <time>2019-09-12T16:41:34+02:00</time>
      </trkpt>
      <trkpt lat="44.70174" lon="5.84852">
        <ele>1731</ele>
        <time>2019-09-12T16:41:49+02:00</time>
      </trkpt>
      <trkpt lat="44.70175" lon="5.84856">
        <ele>1730</ele>
        <time>2019-09-12T16:41:52+02:00</time>
      </trkpt>
      <trkpt lat="44.7018" lon="5.84874">
        <ele>1727</ele>
        <time>2019-09-12T16:42:09+02:00</time>
      </trkpt>
      <trkpt lat="44.70178" lon="5.84885">
        <ele>1726</ele>
        <time>2019-09-12T16:42:22+02:00</time>
      </trkpt>
      <trkpt lat="44.70175" lon="5.8489">
        <ele>1726</ele>
        <time>2019-09-12T16:42:29+02:00</time>
      </trkpt>
      <trkpt lat="44.70173" lon="5.84894">
        <ele>1726</ele>
        <time>2019-09-12T16:42:34+02:00</time>
      </trkpt>
      <trkpt lat="44.70174" lon="5.84913">
        <ele>1724</ele>
        <time>2019-09-12T16:42:49+02:00</time>
      </trkpt>
      <trkpt lat="44.70175" lon="5.84927">
        <ele>1722</ele>
        <time>2019-09-12T16:43:02+02:00</time>
      </trkpt>
      <trkpt lat="44.70173" lon="5.84926">
        <ele>1723</ele>
        <time>2019-09-12T16:43:22+02:00</time>
      </trkpt>
      <trkpt lat="44.70174" lon="5.84926">
        <ele>1723</ele>
        <time>2019-09-12T16:43:35+02:00</time>
      </trkpt>
      <trkpt lat="44.70177" lon="5.84934">
        <ele>1722</ele>
        <time>2019-09-12T16:43:49+02:00</time>
      </trkpt>
      <trkpt lat="44.7018" lon="5.84937">
        <ele>1721</ele>
        <time>2019-09-12T16:43:54+02:00</time>
      </trkpt>
      <trkpt lat="44.70191" lon="5.84949">
        <ele>1720</ele>
        <time>2019-09-12T16:44:10+02:00</time>
      </trkpt>
      <trkpt lat="44.70197" lon="5.84964">
        <ele>1719</ele>
        <time>2019-09-12T16:44:26+02:00</time>
      </trkpt>
      <trkpt lat="44.70197" lon="5.84966">
        <ele>1719</ele>
        <time>2019-09-12T16:44:28+02:00</time>
      </trkpt>
      <trkpt lat="44.70197" lon="5.84977">
        <ele>1718</ele>
        <time>2019-09-12T16:44:37+02:00</time>
      </trkpt>
      <trkpt lat="44.70197" lon="5.85001">
        <ele>1715</ele>
        <time>2019-09-12T16:44:55+02:00</time>
      </trkpt>
      <trkpt lat="44.70203" lon="5.85024">
        <ele>1715</ele>
        <time>2019-09-12T16:45:11+02:00</time>
      </trkpt>
      <trkpt lat="44.70211" lon="5.85051">
        <ele>1714</ele>
        <time>2019-09-12T16:45:29+02:00</time>
      </trkpt>
      <trkpt lat="44.70215" lon="5.85059">
        <ele>1714</ele>
        <time>2019-09-12T16:45:36+02:00</time>
      </trkpt>
      <trkpt lat="44.70237" lon="5.85066">
        <ele>1717</ele>
        <time>2019-09-12T16:45:55+02:00</time>
      </trkpt>
      <trkpt lat="44.70253" lon="5.8508">
        <ele>1716</ele>
        <time>2019-09-12T16:46:13+02:00</time>
      </trkpt>
      <trkpt lat="44.70265" lon="5.8509">
        <ele>1712</ele>
        <time>2019-09-12T16:46:29+02:00</time>
      </trkpt>
      <trkpt lat="44.70274" lon="5.85104">
        <ele>1708</ele>
        <time>2019-09-12T16:46:44+02:00</time>
      </trkpt>
      <trkpt lat="44.70276" lon="5.85113">
        <ele>1706</ele>
        <time>2019-09-12T16:46:52+02:00</time>
      </trkpt>
      <trkpt lat="44.70281" lon="5.85117">
        <ele>1705</ele>
        <time>2019-09-12T16:46:58+02:00</time>
      </trkpt>
      <trkpt lat="44.70299" lon="5.8512">
        <ele>1703</ele>
        <time>2019-09-12T16:47:17+02:00</time>
      </trkpt>
      <trkpt lat="44.70302" lon="5.85127">
        <ele>1701</ele>
        <time>2019-09-12T16:47:31+02:00</time>
      </trkpt>
      <trkpt lat="44.70302" lon="5.85131">
        <ele>1700</ele>
        <time>2019-09-12T16:47:45+02:00</time>
      </trkpt>
      <trkpt lat="44.703" lon="5.85143">
        <ele>1698</ele>
        <time>2019-09-12T16:47:52+02:00</time>
      </trkpt>
      <trkpt lat="44.70296" lon="5.85153">
        <ele>1696</ele>
        <time>2019-09-12T16:47:58+02:00</time>
      </trkpt>
      <trkpt lat="44.70286" lon="5.85165">
        <ele>1695</ele>
        <time>2019-09-12T16:48:13+02:00</time>
      </trkpt>
      <trkpt lat="44.70276" lon="5.85174">
        <ele>1694</ele>
        <time>2019-09-12T16:48:26+02:00</time>
      </trkpt>
      <trkpt lat="44.7028" lon="5.85185">
        <ele>1691</ele>
        <time>2019-09-12T16:48:36+02:00</time>
      </trkpt>
      <trkpt lat="44.70285" lon="5.85186">
        <ele>1690</ele>
        <time>2019-09-12T16:48:47+02:00</time>
      </trkpt>
      <trkpt lat="44.70287" lon="5.85187">
        <ele>1690</ele>
        <time>2019-09-12T16:48:52+02:00</time>
      </trkpt>
      <trkpt lat="44.70297" lon="5.8519">
        <ele>1688</ele>
        <time>2019-09-12T16:48:58+02:00</time>
      </trkpt>
      <trkpt lat="44.70299" lon="5.8519">
        <ele>1688</ele>
        <time>2019-09-12T16:48:59+02:00</time>
      </trkpt>
      <trkpt lat="44.70301" lon="5.8519">
        <ele>1687</ele>
        <time>2019-09-12T16:49:00+02:00</time>
      </trkpt>
      <trkpt lat="44.70303" lon="5.85189">
        <ele>1687</ele>
        <time>2019-09-12T16:49:01+02:00</time>
      </trkpt>
      <trkpt lat="44.70305" lon="5.85189">
        <ele>1687</ele>
        <time>2019-09-12T16:49:02+02:00</time>
      </trkpt>
      <trkpt lat="44.70307" lon="5.85188">
        <ele>1687</ele>
        <time>2019-09-12T16:49:03+02:00</time>
      </trkpt>
      <trkpt lat="44.70309" lon="5.85186">
        <ele>1688</ele>
        <time>2019-09-12T16:49:04+02:00</time>
      </trkpt>
      <trkpt lat="44.70311" lon="5.85186">
        <ele>1687</ele>
        <time>2019-09-12T16:49:05+02:00</time>
      </trkpt>
      <trkpt lat="44.70323" lon="5.85189">
        <ele>1686</ele>
        <time>2019-09-12T16:49:17+02:00</time>
      </trkpt>
      <trkpt lat="44.70326" lon="5.85191">
        <ele>1685</ele>
        <time>2019-09-12T16:49:24+02:00</time>
      </trkpt>
      <trkpt lat="44.70327" lon="5.85192">
        <ele>1685</ele>
        <time>2019-09-12T16:49:30+02:00</time>
      </trkpt>
      <trkpt lat="44.70328" lon="5.85192">
        <ele>1685</ele>
        <time>2019-09-12T16:49:31+02:00</time>
      </trkpt>
      <trkpt lat="44.7033" lon="5.85192">
        <ele>1685</ele>
        <time>2019-09-12T16:49:32+02:00</time>
      </trkpt>
      <trkpt lat="44.70345" lon="5.85194">
        <ele>1683</ele>
        <time>2019-09-12T16:49:42+02:00</time>
      </trkpt>
      <trkpt lat="44.70346" lon="5.85193">
        <ele>1683</ele>
        <time>2019-09-12T16:49:55+02:00</time>
      </trkpt>
      <trkpt lat="44.70351" lon="5.85197">
        <ele>1682</ele>
        <time>2019-09-12T16:50:05+02:00</time>
      </trkpt>
      <trkpt lat="44.70365" lon="5.85199">
        <ele>1681</ele>
        <time>2019-09-12T16:50:14+02:00</time>
      </trkpt>
      <trkpt lat="44.70367" lon="5.85201">
        <ele>1681</ele>
        <time>2019-09-12T16:50:15+02:00</time>
      </trkpt>
      <trkpt lat="44.7037" lon="5.85203">
        <ele>1680</ele>
        <time>2019-09-12T16:50:16+02:00</time>
      </trkpt>
      <trkpt lat="44.70372" lon="5.85205">
        <ele>1680</ele>
        <time>2019-09-12T16:50:17+02:00</time>
      </trkpt>
      <trkpt lat="44.70374" lon="5.85207">
        <ele>1680</ele>
        <time>2019-09-12T16:50:18+02:00</time>
      </trkpt>
      <trkpt lat="44.70376" lon="5.85208">
        <ele>1680</ele>
        <time>2019-09-12T16:50:19+02:00</time>
      </trkpt>
      <trkpt lat="44.70377" lon="5.85211">
        <ele>1679</ele>
        <time>2019-09-12T16:50:20+02:00</time>
      </trkpt>
      <trkpt lat="44.70378" lon="5.85213">
        <ele>1679</ele>
        <time>2019-09-12T16:50:21+02:00</time>
      </trkpt>
      <trkpt lat="44.70379" lon="5.85216">
        <ele>1678</ele>
        <time>2019-09-12T16:50:22+02:00</time>
      </trkpt>
      <trkpt lat="44.70386" lon="5.85225">
        <ele>1676</ele>
        <time>2019-09-12T16:50:34+02:00</time>
      </trkpt>
      <trkpt lat="44.70392" lon="5.85244">
        <ele>1673</ele>
        <time>2019-09-12T16:50:50+02:00</time>
      </trkpt>
      <trkpt lat="44.70392" lon="5.85246">
        <ele>1673</ele>
        <time>2019-09-12T16:50:52+02:00</time>
      </trkpt>
      <trkpt lat="44.70392" lon="5.85252">
        <ele>1671</ele>
        <time>2019-09-12T16:50:57+02:00</time>
      </trkpt>
      <trkpt lat="44.70397" lon="5.85266">
        <ele>1668</ele>
        <time>2019-09-12T16:51:10+02:00</time>
      </trkpt>
      <trkpt lat="44.70401" lon="5.8527">
        <ele>1668</ele>
        <time>2019-09-12T16:51:23+02:00</time>
      </trkpt>
      <trkpt lat="44.70405" lon="5.85274">
        <ele>1667</ele>
        <time>2019-09-12T16:51:29+02:00</time>
      </trkpt>
      <trkpt lat="44.70406" lon="5.85276">
        <ele>1667</ele>
        <time>2019-09-12T16:51:30+02:00</time>
      </trkpt>
      <trkpt lat="44.70415" lon="5.85286">
        <ele>1664</ele>
        <time>2019-09-12T16:51:47+02:00</time>
      </trkpt>
      <trkpt lat="44.7042" lon="5.85299">
        <ele>1660</ele>
        <time>2019-09-12T16:52:02+02:00</time>
      </trkpt>
      <trkpt lat="44.70424" lon="5.85313">
        <ele>1657</ele>
        <time>2019-09-12T16:52:17+02:00</time>
      </trkpt>
      <trkpt lat="44.70431" lon="5.85325">
        <ele>1654</ele>
        <time>2019-09-12T16:52:31+02:00</time>
      </trkpt>
      <trkpt lat="44.70438" lon="5.85337">
        <ele>1651</ele>
        <time>2019-09-12T16:52:47+02:00</time>
      </trkpt>
      <trkpt lat="44.70437" lon="5.85341">
        <ele>1649</ele>
        <time>2019-09-12T16:52:59+02:00</time>
      </trkpt>
      <trkpt lat="44.70439" lon="5.85346">
        <ele>1647</ele>
        <time>2019-09-12T16:53:13+02:00</time>
      </trkpt>
      <trkpt lat="44.70441" lon="5.85352">
        <ele>1645</ele>
        <time>2019-09-12T16:53:28+02:00</time>
      </trkpt>
      <trkpt lat="44.70443" lon="5.85362">
        <ele>1642</ele>
        <time>2019-09-12T16:53:42+02:00</time>
      </trkpt>
      <trkpt lat="44.70449" lon="5.85375">
        <ele>1637</ele>
        <time>2019-09-12T16:53:58+02:00</time>
      </trkpt>
      <trkpt lat="44.70449" lon="5.85377">
        <ele>1637</ele>
        <time>2019-09-12T16:53:59+02:00</time>
      </trkpt>
      <trkpt lat="44.70454" lon="5.85387">
        <ele>1633</ele>
        <time>2019-09-12T16:54:12+02:00</time>
      </trkpt>
      <trkpt lat="44.70458" lon="5.85401">
        <ele>1630</ele>
        <time>2019-09-12T16:54:26+02:00</time>
      </trkpt>
      <trkpt lat="44.70466" lon="5.85411">
        <ele>1628</ele>
        <time>2019-09-12T16:54:39+02:00</time>
      </trkpt>
      <trkpt lat="44.70467" lon="5.85413">
        <ele>1628</ele>
        <time>2019-09-12T16:54:55+02:00</time>
      </trkpt>
      <trkpt lat="44.70474" lon="5.85421">
        <ele>1626</ele>
        <time>2019-09-12T16:55:04+02:00</time>
      </trkpt>
      <trkpt lat="44.70477" lon="5.85429">
        <ele>1625</ele>
        <time>2019-09-12T16:55:12+02:00</time>
      </trkpt>
      <trkpt lat="44.70476" lon="5.85432">
        <ele>1625</ele>
        <time>2019-09-12T16:55:23+02:00</time>
      </trkpt>
      <trkpt lat="44.70472" lon="5.85443">
        <ele>1622</ele>
        <time>2019-09-12T16:55:36+02:00</time>
      </trkpt>
      <trkpt lat="44.70474" lon="5.85457">
        <ele>1620</ele>
        <time>2019-09-12T16:55:52+02:00</time>
      </trkpt>
      <trkpt lat="44.70469" lon="5.8546">
        <ele>1619</ele>
        <time>2019-09-12T16:56:06+02:00</time>
      </trkpt>
      <trkpt lat="44.70468" lon="5.8546">
        <ele>1619</ele>
        <time>2019-09-12T16:56:22+02:00</time>
      </trkpt>
      <trkpt lat="44.70468" lon="5.85458">
        <ele>1619</ele>
        <time>2019-09-12T16:57:15+02:00</time>
      </trkpt>
      <trkpt lat="44.70469" lon="5.85461">
        <ele>1619</ele>
        <time>2019-09-12T16:57:53+02:00</time>
      </trkpt>
      <trkpt lat="44.70468" lon="5.85459">
        <ele>1619</ele>
        <time>2019-09-12T16:58:30+02:00</time>
      </trkpt>
      <trkpt lat="44.70471" lon="5.8546">
        <ele>1619</ele>
        <time>2019-09-12T16:58:52+02:00</time>
      </trkpt>
      <trkpt lat="44.70475" lon="5.85465">
        <ele>1619</ele>
        <time>2019-09-12T16:59:04+02:00</time>
      </trkpt>
      <trkpt lat="44.70474" lon="5.85467">
        <ele>1618</ele>
        <time>2019-09-12T16:59:06+02:00</time>
      </trkpt>
      <trkpt lat="44.70472" lon="5.85473">
        <ele>1617</ele>
        <time>2019-09-12T16:59:12+02:00</time>
      </trkpt>
      <trkpt lat="44.70472" lon="5.85475">
        <ele>1616</ele>
        <time>2019-09-12T16:59:14+02:00</time>
      </trkpt>
      <trkpt lat="44.7047" lon="5.85485">
        <ele>1615</ele>
        <time>2019-09-12T16:59:24+02:00</time>
      </trkpt>
      <trkpt lat="44.70467" lon="5.855">
        <ele>1612</ele>
        <time>2019-09-12T16:59:37+02:00</time>
      </trkpt>
      <trkpt lat="44.70462" lon="5.85519">
        <ele>1609</ele>
        <time>2019-09-12T16:59:53+02:00</time>
      </trkpt>
      <trkpt lat="44.70458" lon="5.85531">
        <ele>1607</ele>
        <time>2019-09-12T17:00:09+02:00</time>
      </trkpt>
      <trkpt lat="44.70457" lon="5.85533">
        <ele>1607</ele>
        <time>2019-09-12T17:00:11+02:00</time>
      </trkpt>
      <trkpt lat="44.70457" lon="5.85563">
        <ele>1604</ele>
        <time>2019-09-12T17:00:31+02:00</time>
      </trkpt>
      <trkpt lat="44.70455" lon="5.8557">
        <ele>1603</ele>
        <time>2019-09-12T17:00:36+02:00</time>
      </trkpt>
      <trkpt lat="44.70458" lon="5.85593">
        <ele>1601</ele>
        <time>2019-09-12T17:00:51+02:00</time>
      </trkpt>
      <trkpt lat="44.7046" lon="5.85601">
        <ele>1600</ele>
        <time>2019-09-12T17:00:57+02:00</time>
      </trkpt>
      <trkpt lat="44.70462" lon="5.85607">
        <ele>1600</ele>
        <time>2019-09-12T17:01:00+02:00</time>
      </trkpt>
      <trkpt lat="44.70463" lon="5.8561">
        <ele>1599</ele>
        <time>2019-09-12T17:01:01+02:00</time>
      </trkpt>
      <trkpt lat="44.70463" lon="5.85612">
        <ele>1599</ele>
        <time>2019-09-12T17:01:02+02:00</time>
      </trkpt>
      <trkpt lat="44.70464" lon="5.8563">
        <ele>1597</ele>
        <time>2019-09-12T17:01:12+02:00</time>
      </trkpt>
      <trkpt lat="44.70462" lon="5.85642">
        <ele>1596</ele>
        <time>2019-09-12T17:01:25+02:00</time>
      </trkpt>
      <trkpt lat="44.7046" lon="5.85647">
        <ele>1595</ele>
        <time>2019-09-12T17:01:36+02:00</time>
      </trkpt>
      <trkpt lat="44.70461" lon="5.85677">
        <ele>1591</ele>
        <time>2019-09-12T17:01:48+02:00</time>
      </trkpt>
      <trkpt lat="44.70461" lon="5.85681">
        <ele>1591</ele>
        <time>2019-09-12T17:01:50+02:00</time>
      </trkpt>
      <trkpt lat="44.7046" lon="5.85682">
        <ele>1590</ele>
        <time>2019-09-12T17:01:51+02:00</time>
      </trkpt>
      <trkpt lat="44.70456" lon="5.8569">
        <ele>1589</ele>
        <time>2019-09-12T17:02:02+02:00</time>
      </trkpt>
      <trkpt lat="44.70457" lon="5.85693">
        <ele>1589</ele>
        <time>2019-09-12T17:02:03+02:00</time>
      </trkpt>
      <trkpt lat="44.70457" lon="5.85695">
        <ele>1588</ele>
        <time>2019-09-12T17:02:04+02:00</time>
      </trkpt>
      <trkpt lat="44.70457" lon="5.85698">
        <ele>1588</ele>
        <time>2019-09-12T17:02:05+02:00</time>
      </trkpt>
      <trkpt lat="44.70457" lon="5.857">
        <ele>1588</ele>
        <time>2019-09-12T17:02:06+02:00</time>
      </trkpt>
      <trkpt lat="44.70457" lon="5.85704">
        <ele>1587</ele>
        <time>2019-09-12T17:02:10+02:00</time>
      </trkpt>
      <trkpt lat="44.70458" lon="5.85706">
        <ele>1587</ele>
        <time>2019-09-12T17:02:11+02:00</time>
      </trkpt>
      <trkpt lat="44.70458" lon="5.8571">
        <ele>1587</ele>
        <time>2019-09-12T17:02:17+02:00</time>
      </trkpt>
      <trkpt lat="44.70458" lon="5.85712">
        <ele>1586</ele>
        <time>2019-09-12T17:02:18+02:00</time>
      </trkpt>
      <trkpt lat="44.70458" lon="5.85715">
        <ele>1586</ele>
        <time>2019-09-12T17:02:19+02:00</time>
      </trkpt>
      <trkpt lat="44.70459" lon="5.85718">
        <ele>1586</ele>
        <time>2019-09-12T17:02:20+02:00</time>
      </trkpt>
      <trkpt lat="44.7046" lon="5.8572">
        <ele>1585</ele>
        <time>2019-09-12T17:02:21+02:00</time>
      </trkpt>
      <trkpt lat="44.70461" lon="5.85723">
        <ele>1585</ele>
        <time>2019-09-12T17:02:22+02:00</time>
      </trkpt>
      <trkpt lat="44.70461" lon="5.85725">
        <ele>1585</ele>
        <time>2019-09-12T17:02:23+02:00</time>
      </trkpt>
      <trkpt lat="44.70459" lon="5.85727">
        <ele>1584</ele>
        <time>2019-09-12T17:02:30+02:00</time>
      </trkpt>
      <trkpt lat="44.70458" lon="5.85729">
        <ele>1584</ele>
        <time>2019-09-12T17:02:31+02:00</time>
      </trkpt>
      <trkpt lat="44.70456" lon="5.85734">
        <ele>1583</ele>
        <time>2019-09-12T17:02:40+02:00</time>
      </trkpt>
      <trkpt lat="44.70456" lon="5.85737">
        <ele>1583</ele>
        <time>2019-09-12T17:02:44+02:00</time>
      </trkpt>
      <trkpt lat="44.70454" lon="5.85742">
        <ele>1582</ele>
        <time>2019-09-12T17:02:54+02:00</time>
      </trkpt>
      <trkpt lat="44.70456" lon="5.8575">
        <ele>1581</ele>
        <time>2019-09-12T17:03:05+02:00</time>
      </trkpt>
      <trkpt lat="44.70461" lon="5.85769">
        <ele>1578</ele>
        <time>2019-09-12T17:03:15+02:00</time>
      </trkpt>
      <trkpt lat="44.70461" lon="5.85771">
        <ele>1578</ele>
        <time>2019-09-12T17:03:19+02:00</time>
      </trkpt>
      <trkpt lat="44.70462" lon="5.85774">
        <ele>1577</ele>
        <time>2019-09-12T17:03:23+02:00</time>
      </trkpt>
      <trkpt lat="44.70464" lon="5.85776">
        <ele>1576</ele>
        <time>2019-09-12T17:03:27+02:00</time>
      </trkpt>
      <trkpt lat="44.70465" lon="5.85788">
        <ele>1574</ele>
        <time>2019-09-12T17:03:41+02:00</time>
      </trkpt>
      <trkpt lat="44.7046" lon="5.8581">
        <ele>1570</ele>
        <time>2019-09-12T17:03:59+02:00</time>
      </trkpt>
      <trkpt lat="44.70456" lon="5.85828">
        <ele>1568</ele>
        <time>2019-09-12T17:04:15+02:00</time>
      </trkpt>
      <trkpt lat="44.7045" lon="5.85843">
        <ele>1567</ele>
        <time>2019-09-12T17:04:31+02:00</time>
      </trkpt>
      <trkpt lat="44.7045" lon="5.85857">
        <ele>1565</ele>
        <time>2019-09-12T17:04:45+02:00</time>
      </trkpt>
      <trkpt lat="44.7045" lon="5.85865">
        <ele>1563</ele>
        <time>2019-09-12T17:04:52+02:00</time>
      </trkpt>
      <trkpt lat="44.70448" lon="5.85888">
        <ele>1560</ele>
        <time>2019-09-12T17:05:11+02:00</time>
      </trkpt>
      <trkpt lat="44.70449" lon="5.85896">
        <ele>1559</ele>
        <time>2019-09-12T17:05:16+02:00</time>
      </trkpt>
      <trkpt lat="44.70447" lon="5.85902">
        <ele>1558</ele>
        <time>2019-09-12T17:05:20+02:00</time>
      </trkpt>
      <trkpt lat="44.70445" lon="5.85918">
        <ele>1557</ele>
        <time>2019-09-12T17:05:32+02:00</time>
      </trkpt>
      <trkpt lat="44.70445" lon="5.85921">
        <ele>1557</ele>
        <time>2019-09-12T17:05:34+02:00</time>
      </trkpt>
      <trkpt lat="44.70444" lon="5.85927">
        <ele>1556</ele>
        <time>2019-09-12T17:05:40+02:00</time>
      </trkpt>
      <trkpt lat="44.7045" lon="5.85935">
        <ele>1555</ele>
        <time>2019-09-12T17:05:45+02:00</time>
      </trkpt>
      <trkpt lat="44.70452" lon="5.85937">
        <ele>1555</ele>
        <time>2019-09-12T17:05:46+02:00</time>
      </trkpt>
      <trkpt lat="44.70453" lon="5.85939">
        <ele>1555</ele>
        <time>2019-09-12T17:05:47+02:00</time>
      </trkpt>
      <trkpt lat="44.70456" lon="5.85946">
        <ele>1554</ele>
        <time>2019-09-12T17:05:51+02:00</time>
      </trkpt>
      <trkpt lat="44.70456" lon="5.85954">
        <ele>1554</ele>
        <time>2019-09-12T17:06:00+02:00</time>
      </trkpt>
      <trkpt lat="44.70456" lon="5.85955">
        <ele>1554</ele>
        <time>2019-09-12T17:06:01+02:00</time>
      </trkpt>
      <trkpt lat="44.7046" lon="5.8596">
        <ele>1553</ele>
        <time>2019-09-12T17:06:04+02:00</time>
      </trkpt>
      <trkpt lat="44.70469" lon="5.85969">
        <ele>1552</ele>
        <time>2019-09-12T17:06:16+02:00</time>
      </trkpt>
      <trkpt lat="44.70471" lon="5.85981">
        <ele>1551</ele>
        <time>2019-09-12T17:06:34+02:00</time>
      </trkpt>
      <trkpt lat="44.70475" lon="5.85981">
        <ele>1551</ele>
        <time>2019-09-12T17:06:57+02:00</time>
      </trkpt>
      <trkpt lat="44.70476" lon="5.85989">
        <ele>1551</ele>
        <time>2019-09-12T17:07:16+02:00</time>
      </trkpt>
      <trkpt lat="44.70479" lon="5.86001">
        <ele>1549</ele>
        <time>2019-09-12T17:07:32+02:00</time>
      </trkpt>
      <trkpt lat="44.70481" lon="5.86013">
        <ele>1548</ele>
        <time>2019-09-12T17:07:42+02:00</time>
      </trkpt>
      <trkpt lat="44.70481" lon="5.86019">
        <ele>1547</ele>
        <time>2019-09-12T17:07:47+02:00</time>
      </trkpt>
      <trkpt lat="44.70485" lon="5.86038">
        <ele>1545</ele>
        <time>2019-09-12T17:08:01+02:00</time>
      </trkpt>
      <trkpt lat="44.70491" lon="5.86056">
        <ele>1543</ele>
        <time>2019-09-12T17:08:17+02:00</time>
      </trkpt>
      <trkpt lat="44.70494" lon="5.8607">
        <ele>1542</ele>
        <time>2019-09-12T17:08:31+02:00</time>
      </trkpt>
      <trkpt lat="44.70495" lon="5.8608">
        <ele>1541</ele>
        <time>2019-09-12T17:08:44+02:00</time>
      </trkpt>
      <trkpt lat="44.70496" lon="5.86089">
        <ele>1540</ele>
        <time>2019-09-12T17:09:00+02:00</time>
      </trkpt>
      <trkpt lat="44.70495" lon="5.86107">
        <ele>1537</ele>
        <time>2019-09-12T17:09:17+02:00</time>
      </trkpt>
      <trkpt lat="44.70496" lon="5.86117">
        <ele>1536</ele>
        <time>2019-09-12T17:09:25+02:00</time>
      </trkpt>
      <trkpt lat="44.70492" lon="5.86135">
        <ele>1533</ele>
        <time>2019-09-12T17:09:40+02:00</time>
      </trkpt>
      <trkpt lat="44.70484" lon="5.8614">
        <ele>1532</ele>
        <time>2019-09-12T17:09:54+02:00</time>
      </trkpt>
      <trkpt lat="44.70482" lon="5.8614">
        <ele>1531</ele>
        <time>2019-09-12T17:09:56+02:00</time>
      </trkpt>
      <trkpt lat="44.70481" lon="5.86141">
        <ele>1531</ele>
        <time>2019-09-12T17:09:57+02:00</time>
      </trkpt>
      <trkpt lat="44.7048" lon="5.86141">
        <ele>1531</ele>
        <time>2019-09-12T17:09:58+02:00</time>
      </trkpt>
      <trkpt lat="44.70474" lon="5.8614">
        <ele>1531</ele>
        <time>2019-09-12T17:10:06+02:00</time>
      </trkpt>
      <trkpt lat="44.70467" lon="5.86139">
        <ele>1530</ele>
        <time>2019-09-12T17:10:19+02:00</time>
      </trkpt>
      <trkpt lat="44.70457" lon="5.86137">
        <ele>1528</ele>
        <time>2019-09-12T17:10:35+02:00</time>
      </trkpt>
      <trkpt lat="44.70452" lon="5.86145">
        <ele>1526</ele>
        <time>2019-09-12T17:10:49+02:00</time>
      </trkpt>
      <trkpt lat="44.70447" lon="5.86157">
        <ele>1523</ele>
        <time>2019-09-12T17:11:02+02:00</time>
      </trkpt>
      <trkpt lat="44.70446" lon="5.86158">
        <ele>1523</ele>
        <time>2019-09-12T17:11:03+02:00</time>
      </trkpt>
      <trkpt lat="44.70439" lon="5.86166">
        <ele>1521</ele>
        <time>2019-09-12T17:11:18+02:00</time>
      </trkpt>
      <trkpt lat="44.70434" lon="5.86174">
        <ele>1519</ele>
        <time>2019-09-12T17:11:32+02:00</time>
      </trkpt>
      <trkpt lat="44.70429" lon="5.86184">
        <ele>1517</ele>
        <time>2019-09-12T17:11:41+02:00</time>
      </trkpt>
      <trkpt lat="44.70428" lon="5.86187">
        <ele>1517</ele>
        <time>2019-09-12T17:11:42+02:00</time>
      </trkpt>
      <trkpt lat="44.70428" lon="5.8619">
        <ele>1516</ele>
        <time>2019-09-12T17:11:43+02:00</time>
      </trkpt>
      <trkpt lat="44.70422" lon="5.86201">
        <ele>1515</ele>
        <time>2019-09-12T17:11:49+02:00</time>
      </trkpt>
      <trkpt lat="44.70416" lon="5.86202">
        <ele>1514</ele>
        <time>2019-09-12T17:11:57+02:00</time>
      </trkpt>
      <trkpt lat="44.70412" lon="5.86205">
        <ele>1513</ele>
        <time>2019-09-12T17:12:01+02:00</time>
      </trkpt>
      <trkpt lat="44.704" lon="5.86206">
        <ele>1512</ele>
        <time>2019-09-12T17:12:15+02:00</time>
      </trkpt>
      <trkpt lat="44.70387" lon="5.86213">
        <ele>1510</ele>
        <time>2019-09-12T17:12:24+02:00</time>
      </trkpt>
      <trkpt lat="44.70384" lon="5.86213">
        <ele>1510</ele>
        <time>2019-09-12T17:12:28+02:00</time>
      </trkpt>
      <trkpt lat="44.7038" lon="5.8621">
        <ele>1510</ele>
        <time>2019-09-12T17:12:40+02:00</time>
      </trkpt>
      <trkpt lat="44.70375" lon="5.86212">
        <ele>1509</ele>
        <time>2019-09-12T17:12:48+02:00</time>
      </trkpt>
      <trkpt lat="44.70374" lon="5.86213">
        <ele>1509</ele>
        <time>2019-09-12T17:12:49+02:00</time>
      </trkpt>
      <trkpt lat="44.70373" lon="5.86214">
        <ele>1508</ele>
        <time>2019-09-12T17:12:50+02:00</time>
      </trkpt>
      <trkpt lat="44.70371" lon="5.86215">
        <ele>1508</ele>
        <time>2019-09-12T17:12:51+02:00</time>
      </trkpt>
      <trkpt lat="44.7037" lon="5.86217">
        <ele>1508</ele>
        <time>2019-09-12T17:12:52+02:00</time>
      </trkpt>
      <trkpt lat="44.70368" lon="5.86218">
        <ele>1507</ele>
        <time>2019-09-12T17:12:53+02:00</time>
      </trkpt>
      <trkpt lat="44.70366" lon="5.8622">
        <ele>1507</ele>
        <time>2019-09-12T17:12:54+02:00</time>
      </trkpt>
      <trkpt lat="44.70354" lon="5.86223">
        <ele>1505</ele>
        <time>2019-09-12T17:13:05+02:00</time>
      </trkpt>
      <trkpt lat="44.70343" lon="5.86232">
        <ele>1502</ele>
        <time>2019-09-12T17:13:19+02:00</time>
      </trkpt>
      <trkpt lat="44.70334" lon="5.86238">
        <ele>1500</ele>
        <time>2019-09-12T17:13:30+02:00</time>
      </trkpt>
      <trkpt lat="44.70319" lon="5.86244">
        <ele>1498</ele>
        <time>2019-09-12T17:13:46+02:00</time>
      </trkpt>
      <trkpt lat="44.70311" lon="5.86251">
        <ele>1496</ele>
        <time>2019-09-12T17:13:57+02:00</time>
      </trkpt>
      <trkpt lat="44.70306" lon="5.86256">
        <ele>1494</ele>
        <time>2019-09-12T17:14:02+02:00</time>
      </trkpt>
      <trkpt lat="44.70303" lon="5.8628">
        <ele>1491</ele>
        <time>2019-09-12T17:14:19+02:00</time>
      </trkpt>
      <trkpt lat="44.70297" lon="5.86298">
        <ele>1488</ele>
        <time>2019-09-12T17:14:36+02:00</time>
      </trkpt>
      <trkpt lat="44.70297" lon="5.86306">
        <ele>1487</ele>
        <time>2019-09-12T17:14:43+02:00</time>
      </trkpt>
      <trkpt lat="44.70293" lon="5.86317">
        <ele>1485</ele>
        <time>2019-09-12T17:14:53+02:00</time>
      </trkpt>
      <trkpt lat="44.70292" lon="5.86318">
        <ele>1485</ele>
        <time>2019-09-12T17:14:54+02:00</time>
      </trkpt>
      <trkpt lat="44.70286" lon="5.86324">
        <ele>1483</ele>
        <time>2019-09-12T17:15:03+02:00</time>
      </trkpt>
      <trkpt lat="44.70283" lon="5.86326">
        <ele>1483</ele>
        <time>2019-09-12T17:15:06+02:00</time>
      </trkpt>
      <trkpt lat="44.70265" lon="5.86334">
        <ele>1481</ele>
        <time>2019-09-12T17:15:23+02:00</time>
      </trkpt>
      <trkpt lat="44.70247" lon="5.86346">
        <ele>1479</ele>
        <time>2019-09-12T17:15:42+02:00</time>
      </trkpt>
      <trkpt lat="44.70235" lon="5.86361">
        <ele>1476</ele>
        <time>2019-09-12T17:15:59+02:00</time>
      </trkpt>
      <trkpt lat="44.70227" lon="5.86377">
        <ele>1473</ele>
        <time>2019-09-12T17:16:15+02:00</time>
      </trkpt>
      <trkpt lat="44.70228" lon="5.86387">
        <ele>1471</ele>
        <time>2019-09-12T17:16:22+02:00</time>
      </trkpt>
      <trkpt lat="44.70228" lon="5.86388">
        <ele>1471</ele>
        <time>2019-09-12T17:16:23+02:00</time>
      </trkpt>
      <trkpt lat="44.70228" lon="5.86405">
        <ele>1468</ele>
        <time>2019-09-12T17:16:38+02:00</time>
      </trkpt>
      <trkpt lat="44.70223" lon="5.8642">
        <ele>1465</ele>
        <time>2019-09-12T17:16:54+02:00</time>
      </trkpt>
      <trkpt lat="44.70221" lon="5.86427">
        <ele>1464</ele>
        <time>2019-09-12T17:17:00+02:00</time>
      </trkpt>
      <trkpt lat="44.70215" lon="5.86443">
        <ele>1460</ele>
        <time>2019-09-12T17:17:16+02:00</time>
      </trkpt>
      <trkpt lat="44.70214" lon="5.86445">
        <ele>1460</ele>
        <time>2019-09-12T17:17:17+02:00</time>
      </trkpt>
      <trkpt lat="44.70214" lon="5.86446">
        <ele>1460</ele>
        <time>2019-09-12T17:17:18+02:00</time>
      </trkpt>
      <trkpt lat="44.70214" lon="5.86451">
        <ele>1459</ele>
        <time>2019-09-12T17:17:22+02:00</time>
      </trkpt>
      <trkpt lat="44.70207" lon="5.86467">
        <ele>1457</ele>
        <time>2019-09-12T17:17:36+02:00</time>
      </trkpt>
      <trkpt lat="44.70195" lon="5.86489">
        <ele>1454</ele>
        <time>2019-09-12T17:17:56+02:00</time>
      </trkpt>
      <trkpt lat="44.70184" lon="5.86496">
        <ele>1452</ele>
        <time>2019-09-12T17:18:11+02:00</time>
      </trkpt>
      <trkpt lat="44.70181" lon="5.865">
        <ele>1451</ele>
        <time>2019-09-12T17:18:22+02:00</time>
      </trkpt>
      <trkpt lat="44.70171" lon="5.86504">
        <ele>1449</ele>
        <time>2019-09-12T17:18:38+02:00</time>
      </trkpt>
      <trkpt lat="44.70161" lon="5.86511">
        <ele>1448</ele>
        <time>2019-09-12T17:18:55+02:00</time>
      </trkpt>
      <trkpt lat="44.70159" lon="5.86513">
        <ele>1448</ele>
        <time>2019-09-12T17:18:58+02:00</time>
      </trkpt>
      <trkpt lat="44.70146" lon="5.86538">
        <ele>1445</ele>
        <time>2019-09-12T17:19:18+02:00</time>
      </trkpt>
      <trkpt lat="44.70137" lon="5.8656">
        <ele>1443</ele>
        <time>2019-09-12T17:19:37+02:00</time>
      </trkpt>
      <trkpt lat="44.70135" lon="5.86565">
        <ele>1442</ele>
        <time>2019-09-12T17:19:52+02:00</time>
      </trkpt>
      <trkpt lat="44.70136" lon="5.86569">
        <ele>1442</ele>
        <time>2019-09-12T17:20:08+02:00</time>
      </trkpt>
      <trkpt lat="44.70134" lon="5.86569">
        <ele>1441</ele>
        <time>2019-09-12T17:20:21+02:00</time>
      </trkpt>
      <trkpt lat="44.70134" lon="5.86572">
        <ele>1441</ele>
        <time>2019-09-12T17:20:34+02:00</time>
      </trkpt>
      <trkpt lat="44.7013" lon="5.86569">
        <ele>1441</ele>
        <time>2019-09-12T17:21:16+02:00</time>
      </trkpt>
      <trkpt lat="44.70131" lon="5.8657">
        <ele>1441</ele>
        <time>2019-09-12T17:21:46+02:00</time>
      </trkpt>
      <trkpt lat="44.7013" lon="5.86576">
        <ele>1440</ele>
        <time>2019-09-12T17:22:24+02:00</time>
      </trkpt>
      <trkpt lat="44.70136" lon="5.86568">
        <ele>1442</ele>
        <time>2019-09-12T17:23:02+02:00</time>
      </trkpt>
      <trkpt lat="44.70135" lon="5.8657">
        <ele>1442</ele>
        <time>2019-09-12T17:23:27+02:00</time>
      </trkpt>
      <trkpt lat="44.70136" lon="5.86568">
        <ele>1442</ele>
        <time>2019-09-12T17:23:29+02:00</time>
      </trkpt>
      <trkpt lat="44.70135" lon="5.86567">
        <ele>1442</ele>
        <time>2019-09-12T17:23:35+02:00</time>
      </trkpt>
      <trkpt lat="44.70135" lon="5.86567">
        <ele>1442</ele>
        <time>2019-09-12T17:23:36+02:00</time>
      </trkpt>
      <trkpt lat="44.70137" lon="5.86565">
        <ele>1442</ele>
        <time>2019-09-12T17:23:59+02:00</time>
      </trkpt>
      <trkpt lat="44.70139" lon="5.86563">
        <ele>1442</ele>
        <time>2019-09-12T17:24:41+02:00</time>
      </trkpt>
      <trkpt lat="44.70138" lon="5.8657">
        <ele>1442</ele>
        <time>2019-09-12T17:25:12+02:00</time>
      </trkpt>
      <trkpt lat="44.70137" lon="5.86572">
        <ele>1442</ele>
        <time>2019-09-12T17:25:32+02:00</time>
      </trkpt>
      <trkpt lat="44.70139" lon="5.8657">
        <ele>1442</ele>
        <time>2019-09-12T17:25:57+02:00</time>
      </trkpt>
      <trkpt lat="44.70143" lon="5.8656">
        <ele>1443</ele>
        <time>2019-09-12T17:26:02+02:00</time>
      </trkpt>
      <trkpt lat="44.70143" lon="5.86558">
        <ele>1443</ele>
        <time>2019-09-12T17:26:03+02:00</time>
      </trkpt>
      <trkpt lat="44.70143" lon="5.86556">
        <ele>1443</ele>
        <time>2019-09-12T17:26:04+02:00</time>
      </trkpt>
      <trkpt lat="44.70143" lon="5.86558">
        <ele>1443</ele>
        <time>2019-09-12T17:26:14+02:00</time>
      </trkpt>
      <trkpt lat="44.7014" lon="5.86563">
        <ele>1442</ele>
        <time>2019-09-12T17:26:31+02:00</time>
      </trkpt>
      <trkpt lat="44.7014" lon="5.86559">
        <ele>1443</ele>
        <time>2019-09-12T17:27:02+02:00</time>
      </trkpt>
      <trkpt lat="44.70138" lon="5.86565">
        <ele>1442</ele>
        <time>2019-09-12T17:27:15+02:00</time>
      </trkpt>
      <trkpt lat="44.70138" lon="5.86567">
        <ele>1442</ele>
        <time>2019-09-12T17:27:16+02:00</time>
      </trkpt>
      <trkpt lat="44.70137" lon="5.86573">
        <ele>1441</ele>
        <time>2019-09-12T17:27:19+02:00</time>
      </trkpt>
    </trkseg>
  </trk>
</gpx>